Mi HomeGuard - helping people stay independent longer.


Humidity


Temperature

Click to expand sensor readings.

Wed Oct 28 11:06:58

Lowest: 61%

s1 Conserv HT
Wed Oct 28 10:54, 69.1% 14.4c

Wed Oct 28 10:54, 69.1% 14.4c
Wed Oct 28 10:32, 69.3% 14.2c
Wed Oct 28 09:38, 69.4% 13.9c
Wed Oct 28 09:24, 69.5% 13.9c
Wed Oct 28 08:46, 69.2% 13.4c
Wed Oct 28 08:44, 69.2% 13.4c
Wed Oct 28 07:45, 68.5% 13.2c
Wed Oct 28 06:52, 68.8% 12.9c
Wed Oct 28 05:52, 68.9% 12.9c
Wed Oct 28 04:54, 69.1% 12.9c
Wed Oct 28 04:45, 69.0% 12.9c
Wed Oct 28 04:03, 68.9% 13.1c
Wed Oct 28 03:09, 69.0% 13.1c
Wed Oct 28 02:18, 68.2% 13.5c
Wed Oct 28 01:25, 69.0% 13.3c
Tue Oct 27 23:33, 69.7% 13.3c
Tue Oct 27 22:42, 69.7% 13.3c
Tue Oct 27 22:26, 69.8% 13.4c
Tue Oct 27 21:48, 70.9% 13.1c
Tue Oct 27 20:49, 72.9% 12.9c
Tue Oct 27 19:57, 74.2% 13.2c
Tue Oct 27 18:59, 71.0% 13.2c
Tue Oct 27 18:00, 72.9% 12.9c
Tue Oct 27 17:19, 73.8% 13.4c
Tue Oct 27 17:10, 74.3% 13.6c
Tue Oct 27 16:11, 71.0% 14.1c
Tue Oct 27 15:45, 72.1% 13.9c
Tue Oct 27 15:25, 74.2% 13.4c
Tue Oct 27 15:19, 74.9% 13.1c
Tue Oct 27 14:23, 74.2% 12.8c
Tue Oct 27 13:29, 75.0% 13.0c
Tue Oct 27 12:34, 72.4% 13.0c
Tue Oct 27 11:38, 71.6% 12.8c
Tue Oct 27 11:28, 71.6% 12.9c
Tue Oct 27 10:44, 71.3% 12.7c
Tue Oct 27 09:53, 70.9% 12.5c
Tue Oct 27 09:13, 70.9% 12.3c
Tue Oct 27 08:54, 71.0% 12.3c
Tue Oct 27 08:00, 71.1% 12.2c
Tue Oct 27 07:08, 70.9% 12.2c
Mon Oct 26 14:39, 67.2% 15.1c
Mon Oct 26 13:43, 67.4% 14.9c
Mon Oct 26 13:19, 67.5% 14.9c
Mon Oct 26 12:45, 67.3% 15.1c
Mon Oct 26 11:50, 67.1% 15.6c
Mon Oct 26 11:21, 67.3% 15.4c
Mon Oct 26 10:56, 67.3% 15.2c
Mon Oct 26 10:14, 67.4% 14.9c
Mon Oct 26 10:01, 67.2% 14.6c
Mon Oct 26 09:55, 67.4% 14.4c
Mon Oct 26 09:29, 68.0% 13.9c
Mon Oct 26 09:09, 68.6% 13.6c
Mon Oct 26 08:49, 67.7% 13.4c
Mon Oct 26 08:13, 67.6% 12.8c
Mon Oct 26 07:14, 67.2% 12.8c
Mon Oct 26 06:46, 66.8% 12.9c
Mon Oct 26 06:17, 66.7% 13.1c
Mon Oct 26 05:25, 66.4% 13.4c
Mon Oct 26 04:33, 66.3% 13.5c
Mon Oct 26 03:38, 66.4% 13.1c
Mon Oct 26 02:44, 66.1% 13.4c
Mon Oct 26 01:46, 65.7% 13.5c
Mon Oct 26 00:49, 65.5% 13.5c
Sun Oct 25 23:58, 65.1% 13.4c
Sun Oct 25 23:01, 65.7% 13.2c
Sun Oct 25 22:06, 65.5% 13.3c
Sun Oct 25 21:48, 65.5% 13.4c
Sun Oct 25 21:07, 65.4% 13.8c
Sun Oct 25 20:09, 65.5% 13.9c
Sun Oct 25 19:24, 65.3% 13.9c
Sun Oct 25 19:18, 65.2% 14.0c
Sun Oct 25 18:22, 65.5% 14.4c
Sun Oct 25 18:21, 65.4% 14.4c
Sun Oct 25 17:33, 65.3% 14.9c
Sun Oct 25 17:27, 65.3% 15.0c
Sun Oct 25 16:59, 65.3% 15.4c
Sun Oct 25 16:34, 65.4% 15.9c
Sun Oct 25 16:24, 64.9% 15.9c
Sun Oct 25 15:57, 65.0% 16.5c
Sun Oct 25 15:35, 64.6% 16.7c
Sun Oct 25 15:07, 60.1% 17.0c
Sun Oct 25 14:45, 60.0% 17.5c
Sun Oct 25 14:44, 60.0% 17.5c
Sun Oct 25 14:31, 57.9% 18.0c
Sun Oct 25 14:23, 56.9% 18.5c
Sun Oct 25 14:18, 56.1% 19.1c
Sun Oct 25 14:14, 54.9% 19.6c
Sun Oct 25 14:11, 54.2% 20.1c
Sun Oct 25 14:00, 54.4% 20.6c
Sun Oct 25 13:53, 54.9% 20.1c
Sun Oct 25 13:50, 54.8% 20.4c
Sun Oct 25 13:48, 54.3% 20.6c
Sun Oct 25 13:41, 54.2% 21.1c
Sun Oct 25 13:32, 55.9% 20.6c
Sun Oct 25 13:30, 57.1% 20.1c
Sun Oct 25 13:29, 58.0% 19.5c
Sun Oct 25 13:06, 59.0% 19.0c
Sun Oct 25 12:56, 58.4% 19.4c
Sun Oct 25 12:51, 58.6% 19.5c
Sun Oct 25 12:41, 57.5% 20.0c
Sun Oct 25 12:37, 56.5% 20.6c
Sun Oct 25 12:34, 55.6% 21.1c
Sun Oct 25 12:31, 54.8% 21.6c
Sun Oct 25 12:29, 54.0% 22.1c
Sun Oct 25 12:27, 53.1% 22.6c
Sun Oct 25 12:25, 52.0% 23.1c
Sun Oct 25 12:23, 51.2% 23.7c
Sun Oct 25 12:21, 50.2% 24.2c
Sun Oct 25 12:12, 50.7% 24.7c
Sun Oct 25 12:10, 51.8% 24.2c
Sun Oct 25 12:08, 53.1% 23.7c
Sun Oct 25 12:07, 53.9% 23.2c
Sun Oct 25 12:06, 55.1% 22.6c
Sun Oct 25 12:04, 56.3% 22.1c
Sun Oct 25 12:04, 56.6% 21.9c
Sun Oct 25 12:03, 57.5% 21.6c
Sun Oct 25 11:46, 58.8% 21.1c
Sun Oct 25 11:42, 59.7% 20.5c
Sun Oct 25 11:34, 61.5% 20.0c
Sun Oct 25 11:28, 63.1% 19.5c
Sun Oct 25 11:08, 63.9% 19.0c
Sun Oct 25 11:04, 64.5% 18.8c
Sun Oct 25 10:59, 65.9% 18.5c
Sun Oct 25 10:51, 66.9% 18.0c
Sun Oct 25 10:39, 67.8% 17.5c
Sun Oct 25 10:27, 68.3% 16.9c
Sun Oct 25 10:17, 69.1% 16.4c
Sun Oct 25 10:10, 69.7% 15.9c
Sun Oct 25 10:10, 69.7% 15.9c
Sun Oct 25 10:01, 70.5% 15.4c
Sun Oct 25 09:52, 71.4% 14.9c
Sun Oct 25 09:38, 72.6% 14.4c
Sun Oct 25 09:26, 73.7% 13.9c
Sun Oct 25 09:15, 74.3% 13.4c
Sun Oct 25 09:13, 74.3% 13.4c
Sun Oct 25 08:43, 75.1% 12.9c
Sun Oct 25 08:15, 73.4% 12.7c
Sun Oct 25 07:21, 74.4% 12.3c
Sun Oct 25 07:12, 74.6% 12.3c
Sun Oct 25 06:26, 76.4% 12.0c
Sun Oct 25 05:32, 74.5% 11.6c
Sun Oct 25 04:34, 74.5% 11.6c
Sun Oct 25 03:37, 74.3% 11.7c
Sun Oct 25 02:44, 74.5% 11.6c
Sun Oct 25 01:46, 74.5% 11.8c
Sun Oct 25 01:14, 74.7% 11.8c
Sun Oct 25 01:52, 75.0% 12.0c
Sun Oct 25 00:53, 75.5% 12.2c
Sun Oct 25 00:13, 75.9% 12.3c
Sat Oct 24 23:58, 76.0% 12.5c
Sat Oct 24 23:06, 77.5% 12.7c
Sat Oct 24 22:08, 76.2% 12.8c
Sat Oct 24 21:11, 77.7% 12.7c
Sat Oct 24 20:24, 78.9% 12.9c
Sat Oct 24 20:16, 79.1% 13.0c
Sat Oct 24 19:24, 78.0% 13.4c
Sat Oct 24 19:16, 77.8% 13.6c
Sat Oct 24 18:24, 79.7% 13.8c
Sat Oct 24 17:25, 80.1% 14.0c
Sat Oct 24 17:06, 77.0% 13.9c
Sat Oct 24 16:30, 77.6% 14.2c
Sat Oct 24 15:39, 77.9% 14.5c
Sat Oct 24 15:04, 80.0% 14.4c
Sat Oct 24 14:41, 79.0% 14.1c
Sat Oct 24 14:34, 77.1% 13.9c
Sat Oct 24 13:48, 72.7% 13.6c
Sat Oct 24 12:56, 72.9% 13.3c
Sat Oct 24 12:02, 72.4% 13.3c
Sat Oct 24 11:11, 71.8% 13.4c
Sat Oct 24 11:09, 71.7% 13.4c
Sat Oct 24 10:20, 71.2% 13.8c
Sat Oct 24 09:43, 71.7% 13.9c
Sat Oct 24 09:30, 72.4% 13.6c
Sat Oct 24 09:22, 73.4% 13.4c
Sat Oct 24 08:32, 73.2% 13.0c
Sat Oct 24 07:36, 72.2% 12.8c
Sat Oct 24 06:40, 71.9% 12.7c
Sat Oct 24 05:41, 71.1% 12.8c
Sat Oct 24 05:12, 71.1% 12.8c
Sat Oct 24 04:43, 71.0% 12.7c
Sat Oct 24 03:44, 70.6% 12.7c
Sat Oct 24 02:48, 70.7% 12.5c
Sat Oct 24 01:54, 70.5% 12.3c
Sat Oct 24 00:55, 70.5% 12.3c
Sat Oct 24 00:22, 70.5% 12.3c
Sat Oct 24 00:01, 70.5% 12.5c
Fri Oct 23 23:09, 70.4% 12.5c
Fri Oct 23 22:08, 70.5% 12.8c
Fri Oct 23 21:16, 70.9% 12.8c
Fri Oct 23 21:13, 70.9% 12.8c
Fri Oct 23 20:25, 71.0% 13.4c
Fri Oct 23 20:21, 71.0% 13.3c
Fri Oct 23 19:40, 70.7% 13.9c
Fri Oct 23 19:27, 70.8% 14.1c
Fri Oct 23 18:41, 72.1% 14.4c
Fri Oct 23 18:34, 72.2% 14.6c
Fri Oct 23 18:11, 71.2% 14.9c
Fri Oct 23 17:36, 71.3% 15.4c
Fri Oct 23 17:35, 71.0% 15.4c
Fri Oct 23 16:41, 71.8% 15.8c
Fri Oct 23 16:33, 71.5% 15.9c
Fri Oct 23 15:52, 70.0% 16.4c
Fri Oct 23 15:43, 69.4% 16.6c
Fri Oct 23 15:29, 67.7% 16.9c
Fri Oct 23 15:19, 65.7% 17.4c
Fri Oct 23 15:12, 63.1% 17.9c
Fri Oct 23 15:01, 61.7% 18.4c
Fri Oct 23 14:59, 60.9% 18.9c
Fri Oct 23 14:56, 59.6% 19.5c
Fri Oct 23 14:54, 58.9% 20.0c
Fri Oct 23 14:52, 57.9% 20.5c
Fri Oct 23 14:50, 56.7% 21.1c
Fri Oct 23 14:50, 56.7% 21.0c
Fri Oct 23 14:48, 55.8% 21.6c
Fri Oct 23 14:46, 55.1% 22.1c
Fri Oct 23 14:39, 55.9% 22.6c
Fri Oct 23 14:38, 57.4% 22.1c
Fri Oct 23 14:37, 59.3% 21.6c
Fri Oct 23 14:36, 60.6% 21.1c
Fri Oct 23 14:35, 62.1% 20.5c
Fri Oct 23 14:33, 63.6% 20.0c
Fri Oct 23 14:33, 64.6% 19.5c
Fri Oct 23 14:32, 65.9% 19.0c
Fri Oct 23 14:31, 67.3% 18.5c
Fri Oct 23 14:30, 68.6% 17.9c
Fri Oct 23 14:29, 70.1% 17.4c
Fri Oct 23 14:27, 71.0% 16.9c
Fri Oct 23 14:04, 73.0% 16.4c
Fri Oct 23 13:54, 73.9% 15.8c
Fri Oct 23 13:50, 74.0% 15.7c
Fri Oct 23 13:43, 72.7% 15.3c
Fri Oct 23 13:28, 72.4% 14.8c
Fri Oct 23 12:58, 73.1% 14.3c
Fri Oct 23 12:54, 73.3% 14.1c
Fri Oct 23 12:34, 72.8% 13.8c
Fri Oct 23 12:01, 73.1% 13.6c
Fri Oct 23 11:09, 72.7% 13.4c
Fri Oct 23 10:09, 72.9% 13.4c
Fri Oct 23 09:14, 73.1% 13.3c
Fri Oct 23 09:06, 73.3% 13.3c
Fri Oct 23 08:15, 74.7% 13.0c
Fri Oct 23 07:15, 73.4% 12.9c
Fri Oct 23 06:22, 70.1% 12.8c
Fri Oct 23 05:23, 70.2% 12.8c
Fri Oct 23 05:14, 70.2% 12.8c
Fri Oct 23 04:25, 70.2% 13.0c
Fri Oct 23 03:32, 70.2% 13.0c
Fri Oct 23 02:33, 69.9% 13.2c
Fri Oct 23 02:27, 69.8% 13.3c
Fri Oct 23 01:38, 69.2% 13.7c
Fri Oct 23 00:38, 69.8% 13.7c
Thu Oct 22 23:39, 70.2% 13.4c
Thu Oct 22 22:47, 70.4% 13.4c
Thu Oct 22 21:51, 70.3% 13.8c
Thu Oct 22 21:23, 70.5% 13.8c
Thu Oct 22 21:00, 70.3% 13.9c
Thu Oct 22 20:04, 70.0% 14.4c
Thu Oct 22 19:20, 70.9% 14.3c
Thu Oct 22 19:11, 70.9% 14.4c
Thu Oct 22 18:21, 70.5% 14.8c
Thu Oct 22 18:15, 70.4% 14.9c
Thu Oct 22 17:17, 70.8% 15.3c
Thu Oct 22 16:26, 71.4% 15.4c
Thu Oct 22 15:29, 71.5% 15.5c
Thu Oct 22 14:33, 71.5% 15.4c
Thu Oct 22 13:42, 71.5% 15.4c
Thu Oct 22 12:51, 70.8% 15.6c
Thu Oct 22 12:04, 70.8% 15.3c
Thu Oct 22 12:00, 70.8% 15.2c
Thu Oct 22 11:07, 70.4% 15.2c
Thu Oct 22 10:07, 70.4% 14.9c
Thu Oct 22 09:51, 70.5% 14.8c
Thu Oct 22 09:16, 70.6% 14.0c
Thu Oct 22 08:16, 69.9% 14.1c
Thu Oct 22 07:17, 69.8% 14.3c
Thu Oct 22 06:22, 69.9% 14.3c
Thu Oct 22 06:11, 69.8% 14.3c
Thu Oct 22 05:26, 69.8% 14.4c
Thu Oct 22 04:35, 69.6% 14.6c
Thu Oct 22 03:35, 70.1% 14.4c
Thu Oct 22 02:37, 70.0% 14.6c
Thu Oct 22 01:37, 70.0% 14.8c
Thu Oct 22 00:46, 70.1% 14.8c
Thu Oct 22 00:42, 70.1% 14.8c
Wed Oct 21 23:54, 70.0% 15.0c
Wed Oct 21 22:56, 70.2% 15.1c
Wed Oct 21 22:02, 70.5% 15.2c
Wed Oct 21 21:07, 71.3% 15.2c
Wed Oct 21 20:56, 71.4% 15.3c
Wed Oct 21 20:12, 72.4% 15.6c
Wed Oct 21 19:13, 72.5% 15.6c
Wed Oct 21 18:13, 72.7% 15.9c
Wed Oct 21 18:07, 72.8% 15.8c
Wed Oct 21 17:17, 71.6% 16.3c
Wed Oct 21 17:00, 71.1% 16.3c
Wed Oct 21 16:21, 70.3% 16.8c
Wed Oct 21 16:19, 70.3% 16.9c
Wed Oct 21 15:22, 68.7% 17.4c
Wed Oct 21 15:19, 68.3% 17.5c
Wed Oct 21 15:10, 67.3% 17.9c
Wed Oct 21 15:03, 65.8% 18.4c
Wed Oct 21 14:58, 64.5% 18.9c
Wed Oct 21 14:55, 63.3% 19.4c
Wed Oct 21 14:52, 62.4% 19.9c
Wed Oct 21 14:42, 62.6% 20.4c
Wed Oct 21 14:40, 63.8% 19.9c
Wed Oct 21 14:39, 65.1% 19.4c
Wed Oct 21 14:37, 66.1% 18.9c
Wed Oct 21 14:20, 67.7% 18.0c
Wed Oct 21 13:37, 66.1% 18.3c
Wed Oct 21 13:25, 65.4% 18.7c
Wed Oct 21 13:17, 64.7% 18.9c
Wed Oct 21 13:08, 63.8% 19.4c
Wed Oct 21 12:56, 62.8% 19.9c
Wed Oct 21 12:46, 62.4% 20.4c
Wed Oct 21 12:41, 63.8% 19.9c
Wed Oct 21 12:36, 65.1% 19.3c
Wed Oct 21 12:30, 66.2% 18.8c
Wed Oct 21 12:24, 66.9% 18.5c
Wed Oct 21 12:15, 67.2% 18.3c
Wed Oct 21 12:10, 68.4% 17.8c
Wed Oct 21 12:05, 69.4% 17.3c
Wed Oct 21 12:01, 70.4% 16.8c
Wed Oct 21 11:55, 71.4% 16.2c
Wed Oct 21 11:29, 72.3% 15.7c
Wed Oct 21 11:15, 73.2% 15.2c
Wed Oct 21 10:59, 73.9% 14.7c
Wed Oct 21 10:37, 74.1% 14.5c
Wed Oct 21 09:42, 74.5% 14.2c
Wed Oct 21 08:52, 74.1% 13.9c
Wed Oct 21 08:00, 73.9% 13.9c
Wed Oct 21 07:06, 73.6% 13.9c
Wed Oct 21 06:14, 73.5% 13.9c
Wed Oct 21 05:15, 73.4% 13.9c
Wed Oct 21 04:17, 73.5% 14.1c
Wed Oct 21 03:25, 73.3% 14.1c
Wed Oct 21 02:29, 73.1% 14.2c
Wed Oct 21 02:24, 73.1% 14.2c
Wed Oct 21 01:31, 73.1% 14.3c
Wed Oct 21 00:33, 73.0% 14.3c
Tue Oct 20 23:34, 73.3% 14.3c
Tue Oct 20 22:40, 73.5% 14.5c
Tue Oct 20 21:49, 73.5% 14.4c
Tue Oct 20 20:55, 74.1% 14.5c
Tue Oct 20 19:58, 74.7% 14.5c
Tue Oct 20 16:15, 75.1% 15.7c
Tue Oct 20 15:53, 75.2% 15.7c
Tue Oct 20 15:16, 74.8% 16.0c
Tue Oct 20 14:16, 75.6% 16.2c
Tue Oct 20 14:10, 75.6% 16.2c
Tue Oct 20 13:18, 75.6% 16.3c
Tue Oct 20 12:24, 74.9% 16.4c
Tue Oct 20 12:00, 74.3% 16.7c
Tue Oct 20 11:49, 74.1% 16.2c
Tue Oct 20 11:36, 74.0% 15.7c
Tue Oct 20 11:24, 73.7% 15.5c
Tue Oct 20 11:16, 73.3% 15.2c
Tue Oct 20 11:07, 74.0% 14.7c
Tue Oct 20 10:57, 74.5% 14.2c
Tue Oct 20 10:24, 72.9% 13.9c
Tue Oct 20 09:49, 73.3% 13.7c
Tue Oct 20 09:28, 72.8% 13.3c
Tue Oct 20 08:31, 72.8% 13.2c
Tue Oct 20 07:33, 72.8% 13.1c
Tue Oct 20 05:43, 72.6% 13.2c
Tue Oct 20 04:49, 72.5% 13.2c
Tue Oct 20 04:11, 72.7% 13.2c
Tue Oct 20 03:56, 72.7% 13.3c
Tue Oct 20 02:57, 72.9% 13.3c
Tue Oct 20 01:59, 73.2% 13.4c
Tue Oct 20 01:07, 73.2% 13.5c
Tue Oct 20 00:07, 73.4% 13.6c
Mon Oct 19 23:25, 73.6% 13.7c
Mon Oct 19 23:14, 73.6% 13.8c
Mon Oct 19 22:22, 74.1% 13.9c
Mon Oct 19 21:24, 75.2% 14.0c
Mon Oct 19 20:28, 73.7% 14.1c
Mon Oct 19 19:36, 75.2% 14.2c
Mon Oct 19 18:43, 75.0% 13.9c
Mon Oct 19 17:47, 76.4% 14.3c
Mon Oct 19 16:56, 72.4% 14.3c
Mon Oct 19 15:59, 72.9% 14.3c
Mon Oct 19 15:05, 72.6% 14.5c
Mon Oct 19 14:09, 73.1% 14.5c
Mon Oct 19 13:12, 72.8% 14.4c
Mon Oct 19 12:35, 72.9% 14.2c
Mon Oct 19 12:14, 72.6% 14.0c
Mon Oct 19 11:15, 72.1% 13.8c
Mon Oct 19 10:47, 72.3% 13.7c
Mon Oct 19 10:24, 72.5% 13.5c
Mon Oct 19 09:34, 72.9% 13.5c
Mon Oct 19 08:40, 71.2% 13.1c
Mon Oct 19 07:42, 70.6% 13.2c
Mon Oct 19 07:39, 70.5% 13.2c
Mon Oct 19 06:49, 70.2% 13.3c
Mon Oct 19 05:55, 70.0% 13.5c
Mon Oct 19 05:33, 70.0% 13.7c
Mon Oct 19 05:03, 70.3% 13.4c
Mon Oct 19 04:10, 70.0% 13.4c
Mon Oct 19 03:10, 70.0% 13.4c
Mon Oct 19 02:17, 70.3% 13.0c
Mon Oct 19 01:17, 70.7% 12.9c
Mon Oct 19 00:24, 70.5% 12.9c
Sun Oct 18 23:28, 70.3% 13.0c
Sun Oct 18 22:36, 70.4% 13.0c
Sun Oct 18 21:44, 70.9% 13.0c
Sun Oct 18 20:49, 71.3% 13.1c
Sun Oct 18 20:45, 71.3% 13.2c
Sun Oct 18 19:50, 72.1% 13.3c
Sun Oct 18 18:53, 73.2% 13.6c
Sun Oct 18 18:38, 73.5% 13.7c
Sun Oct 18 18:03, 74.3% 14.2c
Sun Oct 18 18:02, 74.2% 14.2c
Sun Oct 18 17:10, 73.9% 14.8c
Sun Oct 18 16:13, 70.2% 14.7c
Sun Oct 18 16:08, 71.1% 14.7c
Sun Oct 18 15:16, 67.6% 14.8c
Sun Oct 18 14:51, 64.6% 14.7c
Sun Oct 18 14:27, 68.7% 15.2c
Sun Oct 18 14:22, 67.2% 14.9c
Sun Oct 18 13:36, 68.2% 14.7c
Sun Oct 18 13:22, 68.6% 14.5c
Sun Oct 18 13:09, 71.5% 14.2c
Sun Oct 18 12:25, 71.0% 13.7c
Sun Oct 18 12:23, 70.9% 13.6c
Sun Oct 18 11:26, 71.1% 13.6c
Sun Oct 18 10:28, 71.9% 13.3c
Sun Oct 18 10:01, 72.8% 13.2c
Sun Oct 18 09:32, 69.3% 12.9c
Sun Oct 18 08:33, 69.6% 12.7c
Sun Oct 18 07:42, 69.6% 12.7c
Sun Oct 18 06:46, 69.7% 12.7c
Sun Oct 18 05:51, 69.8% 12.7c
Sun Oct 18 05:23, 70.0% 12.7c
Sun Oct 18 04:50, 70.2% 12.8c
Sun Oct 18 03:51, 69.9% 13.0c
Sun Oct 18 02:55, 70.4% 13.0c
Sun Oct 18 01:56, 70.2% 13.2c
Sun Oct 18 01:25, 70.3% 13.2c
Sun Oct 18 01:03, 70.4% 13.3c
Sun Oct 18 00:03, 70.7% 13.3c
Sat Oct 17 23:03, 70.8% 13.6c
Sat Oct 17 22:07, 71.0% 13.7c
Sat Oct 17 21:30, 71.2% 13.7c
Sat Oct 17 21:09, 71.3% 13.8c
Sat Oct 17 20:18, 71.6% 14.0c
Sat Oct 17 19:23, 72.1% 14.2c
Sat Oct 17 19:19, 72.2% 14.3c
Sat Oct 17 18:25, 72.4% 14.6c
Sat Oct 17 18:08, 72.5% 14.7c
Sat Oct 17 17:34, 73.0% 15.0c
Sat Oct 17 17:14, 73.3% 15.2c
Sat Oct 17 16:43, 73.9% 15.6c
Sat Oct 17 15:51, 73.7% 15.8c
Sat Oct 17 15:47, 73.6% 15.8c
Sat Oct 17 14:52, 73.8% 16.0c
Sat Oct 17 13:53, 70.9% 16.1c
Sat Oct 17 13:11, 73.6% 16.3c
Sat Oct 17 13:02, 73.5% 15.8c
Sat Oct 17 12:56, 73.1% 15.2c
Sat Oct 17 12:56, 73.0% 15.2c
Sat Oct 17 12:47, 73.2% 14.7c
Sat Oct 17 11:56, 73.7% 14.3c
Sat Oct 17 10:58, 74.3% 14.2c
Sat Oct 17 10:01, 75.6% 14.3c
Sat Oct 17 09:57, 75.5% 14.2c
Sat Oct 17 09:28, 75.3% 13.7c
Sat Oct 17 09:01, 69.6% 13.2c
Sat Oct 17 08:21, 70.6% 13.2c
Sat Oct 17 08:08, 70.4% 13.0c
Sat Oct 17 07:13, 71.4% 12.7c
Sat Oct 17 06:22, 68.7% 12.3c
Sat Oct 17 05:22, 68.1% 12.5c
Sat Oct 17 04:58, 68.0% 12.7c
Sat Oct 17 04:31, 68.2% 12.8c
Sat Oct 17 03:40, 68.2% 12.9c
Sat Oct 17 02:47, 68.3% 13.0c
Sat Oct 17 01:52, 68.6% 13.0c
Sat Oct 17 01:00, 68.8% 13.1c
Sat Oct 17 00:05, 69.1% 13.2c
Fri Oct 16 23:47, 69.3% 13.2c
Fri Oct 16 23:14, 69.8% 13.4c
Fri Oct 16 22:22, 71.2% 13.5c
Fri Oct 16 21:36, 74.2% 13.7c
Fri Oct 16 21:23, 68.1% 13.6c
Fri Oct 16 20:44, 68.0% 13.8c
Fri Oct 16 20:31, 67.9% 14.0c
Fri Oct 16 19:33, 70.1% 14.2c
Fri Oct 16 18:38, 69.1% 14.2c
Fri Oct 16 18:28, 69.2% 14.3c
Fri Oct 16 17:43, 68.1% 14.7c
Fri Oct 16 16:55, 67.5% 14.8c
Fri Oct 16 16:46, 67.5% 14.9c
Fri Oct 16 15:58, 67.6% 15.3c
Fri Oct 16 15:53, 68.1% 15.4c
Fri Oct 16 14:59, 67.9% 15.6c
Fri Oct 16 14:16, 66.9% 15.8c
Fri Oct 16 14:00, 66.7% 16.1c
Fri Oct 16 13:42, 65.6% 16.3c
Fri Oct 16 13:25, 64.2% 16.8c
Fri Oct 16 13:13, 63.5% 17.3c
Fri Oct 16 13:08, 63.2% 17.6c
Fri Oct 16 12:39, 66.6% 17.8c
Fri Oct 16 12:29, 65.1% 18.3c
Fri Oct 16 12:23, 63.0% 18.9c
Fri Oct 16 12:13, 61.8% 19.4c
Fri Oct 16 12:12, 62.0% 19.4c
Fri Oct 16 12:08, 62.7% 18.9c
Fri Oct 16 12:04, 63.1% 18.3c
Fri Oct 16 11:59, 63.6% 17.8c
Fri Oct 16 11:54, 67.1% 17.3c
Fri Oct 16 11:50, 67.7% 16.7c
Fri Oct 16 11:46, 68.7% 16.2c
Fri Oct 16 11:35, 68.4% 15.2c
Fri Oct 16 11:30, 68.2% 14.7c

s2 Liv-Room HT
Wed Oct 28 10:26, 59.2% 19.0c

Wed Oct 28 10:26, 59.2% 19.0c
Wed Oct 28 09:42, 62.5% 18.9c
Wed Oct 28 09:30, 62.9% 18.7c
Wed Oct 28 09:20, 60.4% 18.4c
Wed Oct 28 08:31, 56.9% 18.0c
Wed Oct 28 07:36, 55.9% 18.0c
Wed Oct 28 06:43, 55.5% 18.1c
Wed Oct 28 05:50, 54.4% 18.0c
Wed Oct 28 05:17, 54.4% 18.1c
Wed Oct 28 04:57, 54.3% 18.3c
Wed Oct 28 04:06, 54.3% 18.6c
Wed Oct 28 03:24, 54.1% 18.7c
Wed Oct 28 03:07, 54.1% 18.8c
Wed Oct 28 02:11, 54.0% 19.1c
Wed Oct 28 01:52, 53.9% 19.2c
Wed Oct 28 01:14, 53.9% 19.5c
Wed Oct 28 00:41, 53.9% 19.7c
Wed Oct 28 00:19, 53.8% 19.9c
Tue Oct 27 23:46, 53.9% 20.2c
Tue Oct 27 23:25, 53.8% 20.4c
Tue Oct 27 22:57, 53.8% 20.7c
Tue Oct 27 22:29, 53.8% 21.1c
Tue Oct 27 21:29, 55.7% 21.4c
Tue Oct 27 20:29, 54.9% 21.2c
Tue Oct 27 19:35, 55.8% 21.2c
Tue Oct 27 18:38, 55.2% 21.4c
Tue Oct 27 17:39, 52.7% 21.4c
Tue Oct 27 16:43, 54.5% 21.5c
Tue Oct 27 15:49, 56.5% 21.3c
Tue Oct 27 15:44, 56.6% 21.2c
Tue Oct 27 15:07, 57.4% 20.7c
Tue Oct 27 14:47, 57.7% 20.2c
Tue Oct 27 14:29, 58.2% 19.7c
Tue Oct 27 13:57, 58.2% 19.5c
Tue Oct 27 13:01, 60.2% 19.2c
Tue Oct 27 12:55, 59.1% 19.2c
Tue Oct 27 12:36, 59.8% 18.7c
Tue Oct 27 12:05, 56.7% 18.0c
Tue Oct 27 11:10, 56.8% 18.1c
Tue Oct 27 10:34, 56.9% 18.2c
Tue Oct 27 10:14, 57.0% 18.3c
Tue Oct 27 09:17, 57.2% 18.6c
Tue Oct 27 08:19, 58.0% 18.8c
Tue Oct 27 07:22, 56.7% 18.7c
Tue Oct 27 07:08, 56.9% 18.7c
Mon Oct 26 14:44, 58.5% 19.1c
Mon Oct 26 13:50, 59.8% 19.3c
Mon Oct 26 12:56, 58.4% 19.4c
Mon Oct 26 12:08, 57.4% 19.2c
Mon Oct 26 12:05, 57.4% 19.1c
Mon Oct 26 11:07, 58.0% 18.8c
Mon Oct 26 10:09, 59.0% 18.9c
Mon Oct 26 09:09, 58.9% 19.0c
Mon Oct 26 08:14, 58.6% 19.0c
Mon Oct 26 07:23, 57.5% 18.9c
Mon Oct 26 06:26, 57.0% 18.3c
Mon Oct 26 05:26, 57.2% 18.4c
Mon Oct 26 04:34, 57.1% 18.6c
Mon Oct 26 03:37, 57.1% 18.7c
Mon Oct 26 03:36, 57.1% 18.7c
Mon Oct 26 02:45, 57.1% 18.9c
Mon Oct 26 00:53, 57.3% 19.4c
Mon Oct 26 00:09, 57.2% 19.7c
Sun Oct 25 23:54, 57.2% 19.9c
Sun Oct 25 23:05, 57.3% 20.2c
Sun Oct 25 23:02, 57.3% 20.3c
Sun Oct 25 22:09, 57.5% 20.8c
Sun Oct 25 21:15, 58.4% 21.1c
Sun Oct 25 20:15, 59.1% 21.0c
Sun Oct 25 19:20, 57.8% 21.1c
Sun Oct 25 18:23, 58.8% 20.7c
Sun Oct 25 18:22, 58.8% 20.7c
Sun Oct 25 18:04, 60.1% 20.2c
Sun Oct 25 17:29, 58.8% 19.4c
Sun Oct 25 16:31, 55.5% 19.3c
Sun Oct 25 15:33, 55.9% 19.5c
Sun Oct 25 14:41, 57.3% 19.5c
Sun Oct 25 13:45, 58.7% 19.5c
Sun Oct 25 12:48, 56.0% 19.5c
Sun Oct 25 11:51, 56.2% 19.7c
Sun Oct 25 10:58, 57.0% 19.9c
Sun Oct 25 10:02, 58.9% 19.8c
Sun Oct 25 09:54, 59.2% 19.7c
Sun Oct 25 09:34, 60.2% 19.2c
Sun Oct 25 09:10, 58.6% 18.6c
Sun Oct 25 08:15, 59.2% 18.7c
Sun Oct 25 07:15, 59.7% 18.8c
Sun Oct 25 06:22, 58.5% 18.9c
Sun Oct 25 05:22, 57.3% 18.7c
Sun Oct 25 05:07, 57.3% 18.6c
Sun Oct 25 04:30, 57.4% 18.8c
Sun Oct 25 03:30, 57.5% 19.1c
Sun Oct 25 03:07, 57.6% 19.1c
Sun Oct 25 02:32, 57.7% 19.4c
Sun Oct 25 01:43, 57.7% 19.7c
Sun Oct 25 01:35, 57.6% 19.8c
Sun Oct 25 01:43, 57.8% 20.1c
Sun Oct 25 01:32, 57.7% 20.2c
Sun Oct 25 00:48, 57.8% 20.6c
Sun Oct 25 00:35, 57.7% 20.7c
Sat Oct 24 23:47, 57.9% 21.1c
Sat Oct 24 23:14, 57.8% 21.2c
Sat Oct 24 22:50, 57.8% 21.4c
Sat Oct 24 21:53, 59.7% 21.5c
Sat Oct 24 20:54, 60.0% 21.9c
Sat Oct 24 19:55, 61.3% 22.1c
Sat Oct 24 19:12, 62.1% 21.7c
Sat Oct 24 18:55, 61.6% 21.4c
Sat Oct 24 18:43, 60.7% 21.2c
Sat Oct 24 18:04, 61.7% 20.7c
Sat Oct 24 18:04, 61.7% 20.6c
Sat Oct 24 17:42, 62.2% 20.2c
Sat Oct 24 17:13, 62.9% 19.7c
Sat Oct 24 16:14, 62.2% 19.6c
Sat Oct 24 15:38, 59.0% 19.7c
Sat Oct 24 15:22, 58.8% 19.8c
Sat Oct 24 14:31, 60.1% 20.1c
Sat Oct 24 13:31, 60.7% 20.3c
Sat Oct 24 12:40, 61.7% 20.2c
Sat Oct 24 12:37, 61.3% 20.2c
Sat Oct 24 11:42, 57.9% 19.6c
Sat Oct 24 10:49, 58.0% 19.8c
Sat Oct 24 09:50, 58.0% 19.9c
Sat Oct 24 08:54, 58.0% 19.6c
Sat Oct 24 08:02, 56.6% 19.7c
Sat Oct 24 08:01, 56.5% 19.7c
Sat Oct 24 07:21, 56.8% 19.2c
Sat Oct 24 07:02, 57.0% 18.6c
Sat Oct 24 06:09, 56.5% 18.6c
Sat Oct 24 05:30, 56.6% 18.7c
Sat Oct 24 05:17, 56.7% 18.8c
Sat Oct 24 04:21, 56.7% 18.9c
Sat Oct 24 03:25, 56.7% 19.2c
Sat Oct 24 03:25, 56.8% 19.2c
Sat Oct 24 02:34, 56.8% 19.5c
Sat Oct 24 02:02, 56.8% 19.7c
Sat Oct 24 01:37, 56.9% 19.9c
Sat Oct 24 00:59, 56.6% 20.2c
Sat Oct 24 00:42, 56.6% 20.4c
Sat Oct 24 00:08, 56.5% 20.7c
Fri Oct 23 23:42, 56.6% 21.1c
Fri Oct 23 23:15, 56.7% 21.2c
Fri Oct 23 22:42, 56.2% 21.6c
Fri Oct 23 21:44, 57.3% 21.8c
Fri Oct 23 20:53, 57.8% 21.8c
Fri Oct 23 20:44, 57.8% 21.7c
Fri Oct 23 19:55, 57.6% 21.3c
Fri Oct 23 19:38, 58.1% 21.2c
Fri Oct 23 18:59, 59.2% 20.8c
Fri Oct 23 18:50, 59.8% 20.7c
Fri Oct 23 18:22, 58.9% 20.2c
Fri Oct 23 18:02, 58.1% 19.8c
Fri Oct 23 17:08, 57.0% 19.5c
Fri Oct 23 16:12, 57.3% 19.6c
Fri Oct 23 15:18, 57.0% 19.6c
Fri Oct 23 14:23, 58.3% 19.8c
Fri Oct 23 13:27, 60.9% 19.9c
Fri Oct 23 12:28, 58.1% 19.7c
Fri Oct 23 12:23, 58.2% 19.7c
Fri Oct 23 11:28, 59.2% 19.3c
Fri Oct 23 11:16, 59.6% 19.2c
Fri Oct 23 10:35, 59.9% 18.8c
Fri Oct 23 09:41, 59.8% 18.9c
Fri Oct 23 08:47, 59.8% 18.9c
Fri Oct 23 07:53, 58.4% 19.0c
Fri Oct 23 07:00, 57.8% 19.1c
Fri Oct 23 06:06, 58.7% 18.8c
Fri Oct 23 05:06, 58.3% 18.7c
Fri Oct 23 04:57, 58.3% 18.7c
Fri Oct 23 04:08, 58.4% 18.9c
Fri Oct 23 03:12, 58.5% 19.1c
Fri Oct 23 02:45, 58.6% 19.2c
Fri Oct 23 02:15, 58.6% 19.4c
Fri Oct 23 01:15, 58.6% 19.7c
Fri Oct 23 01:10, 58.6% 19.7c
Fri Oct 23 00:19, 58.7% 20.0c
Thu Oct 22 23:54, 58.7% 20.2c
Thu Oct 22 23:25, 58.7% 20.5c
Thu Oct 22 22:56, 58.7% 20.7c
Thu Oct 22 22:28, 58.7% 21.1c
Thu Oct 22 22:10, 58.5% 21.2c
Thu Oct 22 21:37, 58.4% 21.7c
Thu Oct 22 21:29, 58.4% 21.7c
Thu Oct 22 20:44, 58.8% 22.2c
Thu Oct 22 20:38, 59.0% 22.3c
Thu Oct 22 19:49, 59.6% 21.9c
Thu Oct 22 19:25, 59.6% 21.7c
Thu Oct 22 18:55, 57.9% 21.5c
Thu Oct 22 18:01, 58.0% 21.4c
Thu Oct 22 17:10, 58.0% 21.3c
Thu Oct 22 16:49, 58.4% 21.2c
Thu Oct 22 16:15, 59.2% 20.7c
Thu Oct 22 16:09, 59.5% 20.7c
Thu Oct 22 15:48, 60.2% 20.2c
Thu Oct 22 15:35, 60.4% 19.6c
Thu Oct 22 15:23, 60.9% 19.1c
Thu Oct 22 15:22, 60.9% 19.1c
Thu Oct 22 15:10, 61.1% 18.6c
Thu Oct 22 14:24, 59.8% 18.1c
Thu Oct 22 13:24, 59.7% 18.2c
Thu Oct 22 13:09, 59.7% 18.1c
Thu Oct 22 12:30, 59.8% 18.2c
Thu Oct 22 11:36, 59.9% 18.4c
Thu Oct 22 10:36, 59.9% 18.5c
Thu Oct 22 09:40, 60.0% 18.6c
Thu Oct 22 08:47, 60.2% 18.8c
Thu Oct 22 07:54, 60.3% 18.8c
Thu Oct 22 06:59, 60.8% 18.7c
Thu Oct 22 06:09, 60.7% 18.6c
Thu Oct 22 06:03, 60.8% 18.6c
Thu Oct 22 05:08, 60.3% 18.8c
Thu Oct 22 04:15, 60.3% 19.0c
Thu Oct 22 03:16, 60.3% 19.1c
Thu Oct 22 03:11, 60.3% 19.1c
Thu Oct 22 02:19, 60.4% 19.4c
Thu Oct 22 01:18, 60.4% 19.7c
Thu Oct 22 01:11, 60.4% 19.6c
Thu Oct 22 00:21, 60.5% 19.9c
Wed Oct 21 23:37, 60.7% 20.2c
Wed Oct 21 23:23, 60.8% 20.3c
Wed Oct 21 22:29, 61.2% 20.7c
Wed Oct 21 22:22, 61.2% 20.7c
Wed Oct 21 21:34, 61.6% 21.1c
Wed Oct 21 21:24, 61.8% 21.2c
Wed Oct 21 20:40, 63.5% 21.5c
Wed Oct 21 19:49, 62.5% 21.7c
Wed Oct 21 18:50, 63.1% 21.7c
Wed Oct 21 18:38, 62.1% 21.7c
Wed Oct 21 17:52, 59.0% 21.4c
Wed Oct 21 17:40, 59.3% 21.2c
Wed Oct 21 17:00, 60.2% 20.7c
Wed Oct 21 16:52, 60.3% 20.7c
Wed Oct 21 16:32, 60.7% 20.1c
Wed Oct 21 16:15, 60.6% 19.6c
Wed Oct 21 16:04, 61.0% 19.3c
Wed Oct 21 15:07, 61.0% 19.1c
Wed Oct 21 14:10, 61.4% 19.1c
Wed Oct 21 13:15, 59.8% 19.1c
Wed Oct 21 12:54, 59.7% 19.1c
Wed Oct 21 12:20, 59.6% 19.3c
Wed Oct 21 11:24, 59.6% 19.4c
Wed Oct 21 10:26, 60.6% 19.5c
Wed Oct 21 09:32, 60.6% 19.4c
Wed Oct 21 08:37, 60.4% 19.5c
Wed Oct 21 07:44, 59.7% 19.6c
Wed Oct 21 06:51, 59.9% 19.6c
Wed Oct 21 06:49, 59.9% 19.6c
Wed Oct 21 05:50, 59.2% 19.1c
Wed Oct 21 05:36, 59.1% 19.1c
Wed Oct 21 04:59, 59.1% 19.3c
Wed Oct 21 04:03, 59.2% 19.5c
Wed Oct 21 03:15, 59.2% 19.6c
Wed Oct 21 03:03, 59.2% 19.8c
Wed Oct 21 02:07, 59.1% 20.0c
Wed Oct 21 01:36, 59.2% 20.1c
Wed Oct 21 01:14, 59.2% 20.3c
Wed Oct 21 00:22, 59.1% 20.6c
Wed Oct 21 00:20, 59.1% 20.7c
Tue Oct 20 23:26, 59.2% 21.2c
Tue Oct 20 22:35, 59.4% 21.6c
Tue Oct 20 21:39, 60.5% 21.6c
Tue Oct 20 19:46, 60.2% 21.5c
Tue Oct 20 16:03, 61.0% 20.6c
Tue Oct 20 16:01, 61.1% 20.7c
Tue Oct 20 15:42, 62.0% 20.2c
Tue Oct 20 15:05, 60.4% 19.2c
Tue Oct 20 14:12, 60.6% 19.4c
Tue Oct 20 13:15, 61.0% 19.4c
Tue Oct 20 12:19, 61.0% 19.5c
Tue Oct 20 10:32, 63.0% 19.7c
Tue Oct 20 09:39, 65.7% 19.6c
Tue Oct 20 09:35, 62.8% 19.6c
Tue Oct 20 08:41, 59.2% 19.7c
Tue Oct 20 07:46, 59.1% 19.7c
Tue Oct 20 07:25, 59.6% 19.5c
Tue Oct 20 06:52, 58.6% 18.8c
Tue Oct 20 05:56, 57.7% 18.9c
Tue Oct 20 05:15, 57.8% 19.0c
Tue Oct 20 05:02, 57.8% 19.1c
Tue Oct 20 04:01, 58.0% 19.3c
Tue Oct 20 03:07, 58.5% 19.5c
Tue Oct 20 03:05, 58.5% 19.5c
Tue Oct 20 02:14, 59.0% 19.9c
Tue Oct 20 01:37, 59.2% 20.0c
Tue Oct 20 01:22, 59.2% 20.2c
Tue Oct 20 00:29, 59.7% 20.5c
Tue Oct 20 00:26, 59.7% 20.6c
Mon Oct 19 23:31, 60.2% 21.0c
Mon Oct 19 23:27, 60.4% 21.1c
Mon Oct 19 21:37, 62.4% 21.5c
Mon Oct 19 21:15, 62.7% 21.5c
Mon Oct 19 20:39, 62.6% 21.3c
Mon Oct 19 19:45, 61.1% 21.2c
Mon Oct 19 18:52, 60.8% 21.2c
Mon Oct 19 18:00, 59.6% 21.0c
Mon Oct 19 17:16, 57.6% 21.0c
Mon Oct 19 17:02, 57.8% 21.0c
Mon Oct 19 16:06, 58.3% 20.7c
Mon Oct 19 15:36, 59.0% 20.5c
Mon Oct 19 15:09, 60.2% 20.0c
Mon Oct 19 15:06, 60.2% 19.9c
Mon Oct 19 14:13, 60.8% 19.7c
Mon Oct 19 13:21, 61.4% 19.6c
Mon Oct 19 13:13, 61.4% 19.5c
Mon Oct 19 12:53, 61.4% 19.0c
Mon Oct 19 12:29, 59.7% 18.2c
Mon Oct 19 11:32, 59.8% 18.2c
Mon Oct 19 10:40, 60.1% 18.3c
Mon Oct 19 09:42, 60.8% 18.5c
Mon Oct 19 08:48, 61.8% 18.5c
Mon Oct 19 07:54, 60.5% 18.4c
Mon Oct 19 06:59, 59.1% 18.3c
Mon Oct 19 06:03, 57.3% 18.4c
Mon Oct 19 05:34, 57.3% 18.4c
Mon Oct 19 05:11, 57.2% 18.6c
Mon Oct 19 04:16, 57.2% 18.7c
Mon Oct 19 03:25, 57.2% 18.9c
Mon Oct 19 03:07, 57.2% 18.9c
Mon Oct 19 02:27, 57.1% 19.1c
Mon Oct 19 01:24, 57.1% 19.4c
Mon Oct 19 00:40, 57.1% 19.8c
Mon Oct 19 00:05, 57.1% 19.9c
Sun Oct 18 23:45, 57.1% 20.2c
Sun Oct 18 23:05, 57.3% 20.5c
Sun Oct 18 22:49, 57.4% 20.7c
Sun Oct 18 21:57, 57.8% 20.9c
Sun Oct 18 20:57, 58.0% 21.0c
Sun Oct 18 19:57, 58.1% 21.0c
Sun Oct 18 18:59, 56.7% 21.1c
Sun Oct 18 18:08, 54.6% 21.3c
Sun Oct 18 17:11, 54.6% 21.0c
Sun Oct 18 17:04, 54.6% 21.0c
Sun Oct 18 16:27, 53.6% 20.5c
Sun Oct 18 16:17, 53.2% 20.2c
Sun Oct 18 16:04, 53.2% 20.0c
Sun Oct 18 15:45, 53.9% 19.4c
Sun Oct 18 15:22, 53.9% 19.0c
Sun Oct 18 14:30, 54.1% 19.2c
Sun Oct 18 13:35, 55.1% 19.1c
Sun Oct 18 13:26, 55.4% 18.9c
Sun Oct 18 12:37, 57.9% 18.3c
Sun Oct 18 12:08, 58.0% 18.4c
Sun Oct 18 11:36, 58.2% 18.6c
Sun Oct 18 10:41, 58.7% 18.8c
Sun Oct 18 09:44, 59.6% 18.9c
Sun Oct 18 08:53, 58.5% 18.9c
Sun Oct 18 07:55, 56.8% 19.0c
Sun Oct 18 07:00, 57.6% 18.8c
Sun Oct 18 06:01, 57.3% 18.7c
Sun Oct 18 05:11, 57.5% 18.9c
Sun Oct 18 05:05, 57.5% 19.0c
Sun Oct 18 04:08, 57.7% 19.2c
Sun Oct 18 03:24, 57.9% 19.4c
Sun Oct 18 03:13, 58.0% 19.5c
Sun Oct 18 02:15, 58.2% 19.9c
Sun Oct 18 02:07, 58.1% 19.9c
Sun Oct 18 01:17, 58.4% 20.4c
Sun Oct 18 01:07, 58.4% 20.4c
Sun Oct 18 00:17, 58.8% 21.0c
Sun Oct 18 00:15, 58.8% 21.0c
Sat Oct 17 23:26, 60.0% 21.3c
Sat Oct 17 22:33, 60.2% 21.3c
Sat Oct 17 21:37, 60.4% 21.5c
Sat Oct 17 20:38, 61.2% 21.4c
Sat Oct 17 19:47, 63.0% 21.4c
Sat Oct 17 18:53, 67.1% 21.3c
Sat Oct 17 18:40, 64.8% 21.1c
Sat Oct 17 17:53, 58.2% 20.8c
Sat Oct 17 17:35, 58.8% 20.8c
Sat Oct 17 16:57, 55.6% 20.6c
Sat Oct 17 15:57, 55.7% 20.6c
Sat Oct 17 15:07, 56.1% 20.6c
Sat Oct 17 14:10, 57.3% 20.3c
Sat Oct 17 14:02, 57.7% 20.3c
Sat Oct 17 13:18, 58.2% 19.8c
Sat Oct 17 12:21, 56.2% 19.8c
Sat Oct 17 11:27, 56.2% 19.8c
Sat Oct 17 10:40, 56.5% 19.8c
Sat Oct 17 10:26, 56.7% 19.6c
Sat Oct 17 09:47, 57.3% 19.3c
Sat Oct 17 09:32, 57.7% 18.9c
Sat Oct 17 08:35, 57.7% 18.7c
Sat Oct 17 07:42, 57.5% 18.9c
Sat Oct 17 06:42, 58.0% 18.9c
Sat Oct 17 06:28, 58.3% 18.8c
Sat Oct 17 05:43, 57.8% 17.9c
Sat Oct 17 04:50, 57.9% 18.0c
Sat Oct 17 03:50, 58.0% 18.3c
Sat Oct 17 03:43, 58.1% 18.3c
Sat Oct 17 02:57, 58.1% 18.5c
Sat Oct 17 02:02, 58.3% 18.8c
Sat Oct 17 02:00, 58.3% 18.8c
Sat Oct 17 01:06, 58.4% 19.1c
Sat Oct 17 00:38, 58.5% 19.3c
Sat Oct 17 00:09, 58.5% 19.6c
Fri Oct 16 23:33, 58.5% 19.8c
Fri Oct 16 23:14, 58.5% 20.0c
Fri Oct 16 22:18, 58.6% 20.3c
Fri Oct 16 22:14, 58.9% 20.4c
Fri Oct 16 21:14, 61.2% 20.6c
Fri Oct 16 20:23, 62.3% 20.8c
Fri Oct 16 19:50, 62.4% 20.8c
Fri Oct 16 19:27, 60.4% 20.5c
Fri Oct 16 19:17, 59.1% 20.3c
Fri Oct 16 18:58, 58.9% 19.8c
Fri Oct 16 18:39, 59.9% 19.3c
Fri Oct 16 18:36, 60.0% 19.2c
Fri Oct 16 17:41, 58.5% 18.8c
Fri Oct 16 17:35, 57.4% 18.8c
Fri Oct 16 16:43, 57.1% 17.8c
Fri Oct 16 15:45, 57.5% 18.0c
Fri Oct 16 14:48, 56.9% 18.1c
Fri Oct 16 13:56, 57.6% 18.2c
Fri Oct 16 12:59, 57.2% 18.1c
Fri Oct 16 12:07, 56.5% 18.1c
Fri Oct 16 11:08, 56.5% 18.1c
Fri Oct 16 10:12, 56.8% 18.3c
Fri Oct 16 09:19, 57.2% 18.6c
Fri Oct 16 08:20, 58.6% 18.7c
Fri Oct 16 07:23, 56.8% 18.4c
Fri Oct 16 06:25, 55.9% 17.9c
Fri Oct 16 05:32, 55.7% 18.1c
Fri Oct 16 04:35, 55.8% 18.3c
Fri Oct 16 04:32, 55.8% 18.3c
Fri Oct 16 03:36, 56.0% 18.6c
Fri Oct 16 02:50, 56.0% 18.8c
Fri Oct 16 02:39, 56.0% 18.9c
Fri Oct 16 01:42, 56.2% 19.1c
Fri Oct 16 01:15, 56.3% 19.3c
Fri Oct 16 00:43, 56.3% 19.6c
Thu Oct 15 23:59, 56.4% 19.8c
Thu Oct 15 23:50, 56.4% 19.9c
Thu Oct 15 22:58, 56.5% 20.3c
Thu Oct 15 22:54, 56.4% 20.3c
Thu Oct 15 22:02, 56.7% 20.9c
Thu Oct 15 21:58, 56.6% 21.0c
Thu Oct 15 21:01, 57.9% 21.4c
Thu Oct 15 20:51, 57.9% 21.4c
Thu Oct 15 20:05, 57.0% 21.7c
Thu Oct 15 19:39, 56.8% 21.9c
Thu Oct 15 19:10, 56.2% 22.2c
Thu Oct 15 18:17, 54.9% 22.6c
Thu Oct 15 17:24, 54.0% 22.8c
Thu Oct 15 17:12, 54.5% 22.4c
Thu Oct 15 16:59, 55.4% 21.9c
Thu Oct 15 16:47, 55.9% 21.4c
Thu Oct 15 16:38, 56.4% 20.8c
Thu Oct 15 16:31, 56.4% 20.6c
Thu Oct 15 16:13, 57.2% 20.3c
Thu Oct 15 15:52, 58.5% 19.8c
Thu Oct 15 15:35, 59.1% 19.3c
Thu Oct 15 15:32, 59.2% 19.2c
Thu Oct 15 15:20, 59.5% 18.8c
Thu Oct 15 14:38, 57.9% 18.4c
Thu Oct 15 14:25, 58.0% 18.3c
Thu Oct 15 13:43, 58.0% 18.4c
Thu Oct 15 12:51, 58.2% 18.5c
Thu Oct 15 11:51, 59.0% 18.7c
Thu Oct 15 10:54, 59.7% 18.8c
Thu Oct 15 09:59, 59.2% 19.0c
Thu Oct 15 09:07, 61.1% 19.1c
Thu Oct 15 08:08, 57.6% 19.0c
Thu Oct 15 07:21, 57.0% 18.8c
Thu Oct 15 07:12, 57.2% 18.6c
Thu Oct 15 06:12, 57.2% 18.1c
Thu Oct 15 05:20, 57.0% 18.3c
Thu Oct 15 05:16, 57.0% 18.3c
Thu Oct 15 04:20, 57.2% 18.6c
Thu Oct 15 03:26, 57.3% 18.8c
Thu Oct 15 03:17, 57.3% 18.8c
Thu Oct 15 02:28, 57.4% 19.1c
Thu Oct 15 01:40, 57.5% 19.3c
Thu Oct 15 01:33, 57.5% 19.4c
Thu Oct 15 00:33, 57.7% 19.7c
Thu Oct 15 00:15, 57.7% 19.8c
Wed Oct 14 23:34, 58.0% 20.2c
Wed Oct 14 23:08, 58.1% 20.3c
Wed Oct 14 22:34, 58.4% 20.7c
Wed Oct 14 21:53, 59.2% 20.9c
Wed Oct 14 21:37, 59.2% 21.0c
Wed Oct 14 20:42, 60.0% 21.1c
Wed Oct 14 19:46, 57.9% 21.2c
Wed Oct 14 18:52, 56.5% 21.4c
Wed Oct 14 17:57, 57.8% 21.4c
Wed Oct 14 17:51, 58.0% 21.4c
Wed Oct 14 17:31, 58.8% 20.9c
Wed Oct 14 17:00, 60.7% 20.3c
Wed Oct 14 16:04, 61.2% 20.3c
Wed Oct 14 15:05, 60.9% 20.2c
Wed Oct 14 14:08, 59.5% 20.4c
Wed Oct 14 13:31, 60.5% 20.3c
Wed Oct 14 12:59, 60.7% 19.8c
Wed Oct 14 12:13, 58.0% 19.3c
Wed Oct 14 11:19, 58.1% 19.2c
Wed Oct 14 10:19, 58.0% 19.3c
Wed Oct 14 09:25, 58.1% 19.4c
Wed Oct 14 08:25, 59.3% 19.3c
Wed Oct 14 08:23, 59.3% 19.3c
Wed Oct 14 07:33, 57.7% 18.7c
Wed Oct 14 06:34, 56.5% 18.6c
Wed Oct 14 05:40, 56.3% 18.5c
Wed Oct 14 04:47, 54.9% 18.6c
Wed Oct 14 03:54, 54.8% 18.8c
Wed Oct 14 03:34, 54.8% 18.8c
Wed Oct 14 03:01, 54.7% 19.0c
Wed Oct 14 02:06, 54.6% 19.2c
Wed Oct 14 01:37, 54.4% 19.3c
Wed Oct 14 01:11, 54.4% 19.5c
Wed Oct 14 00:19, 54.2% 19.8c
Wed Oct 14 00:14, 54.3% 19.9c
Tue Oct 13 23:19, 54.3% 20.3c
Tue Oct 13 23:06, 54.2% 20.4c
Tue Oct 13 22:22, 53.9% 20.9c
Tue Oct 13 22:18, 54.0% 20.9c
Tue Oct 13 21:22, 53.7% 21.6c
Tue Oct 13 20:22, 55.2% 21.6c
Tue Oct 13 19:31, 53.6% 21.4c
Tue Oct 13 18:42, 51.1% 21.4c

s3 Loft HTP
Wed Oct 28 10:45, 81.7% 10.2c

Wed Oct 28 10:45, 81.7% 10.2c
991.7 mb
Wed Oct 28 10:06, 81.6% 9.9c
991.6 mb
Wed Oct 28 09:46, 81.5% 9.8c
991.3 mb
Wed Oct 28 09:41, 81.5% 9.8c
991.3 mb
Wed Oct 28 09:24, 81.4% 9.6c
991.0 mb
Wed Oct 28 08:48, 81.3% 9.2c
990.8 mb
Wed Oct 28 08:33, 81.3% 9.2c
990.8 mb
Wed Oct 28 08:12, 81.3% 9.1c
990.5 mb
Wed Oct 28 08:10, 81.3% 9.2c
990.8 mb
Wed Oct 28 07:53, 68.5% 9.1c
990.5 mb
Wed Oct 28 07:40, 81.3% 9.1c
990.5 mb
Wed Oct 28 07:13, 81.3% 9.1c
990.1 mb
Wed Oct 28 06:59, 81.3% 9.1c
990.0 mb
Wed Oct 28 06:51, 81.3% 9.1c
989.9 mb
Wed Oct 28 06:08, 81.3% 9.2c
989.6 mb
Wed Oct 28 06:02, 81.3% 9.1c
989.5 mb
Wed Oct 28 05:09, 81.3% 9.2c
989.4 mb
Wed Oct 28 04:27, 81.3% 9.4c
989.3 mb
Wed Oct 28 04:16, 81.3% 9.4c
989.2 mb
Wed Oct 28 04:01, 81.4% 9.4c
989.1 mb
Wed Oct 28 03:24, 81.3% 9.4c
988.9 mb
Wed Oct 28 03:21, 81.4% 9.4c
988.8 mb
Wed Oct 28 02:24, 81.4% 9.5c
989.2 mb
Wed Oct 28 01:38, 81.4% 9.5c
989.1 mb
Wed Oct 28 01:27, 81.4% 9.5c
989.0 mb
Wed Oct 28 00:31, 81.3% 9.4c
988.8 mb
Wed Oct 28 00:27, 81.3% 9.4c
988.8 mb
Tue Oct 27 23:40, 81.2% 9.2c
988.5 mb
Tue Oct 27 23:22, 81.2% 9.2c
988.6 mb
Tue Oct 27 23:21, 81.2% 9.2c
988.8 mb
Tue Oct 27 23:20, 81.2% 9.2c
988.5 mb
Tue Oct 27 22:52, 81.1% 9.1c
988.2 mb
Tue Oct 27 22:41, 81.1% 9.0c
988.4 mb
Tue Oct 27 22:28, 81.1% 8.9c
988.4 mb
Tue Oct 27 22:13, 81.1% 8.9c
988.2 mb
Tue Oct 27 21:45, 81.0% 8.9c
988.5 mb
Tue Oct 27 21:37, 81.0% 8.9c
988.4 mb
Tue Oct 27 20:50, 81.0% 9.1c
988.4 mb
Tue Oct 27 20:32, 81.0% 9.2c
988.2 mb
Tue Oct 27 20:02, 81.1% 9.4c
987.9 mb
Tue Oct 27 19:58, 81.0% 9.4c
987.9 mb
Tue Oct 27 19:20, 81.2% 9.6c
987.7 mb
Tue Oct 27 19:02, 81.3% 9.9c
987.6 mb
Tue Oct 27 18:33, 81.4% 10.1c
987.5 mb
Tue Oct 27 18:13, 81.3% 10.4c
987.3 mb
Tue Oct 27 18:10, 81.4% 10.4c
987.2 mb
Tue Oct 27 17:57, 81.5% 10.6c
987.0 mb
Tue Oct 27 17:42, 81.4% 10.7c
986.7 mb
Tue Oct 27 17:29, 81.5% 10.8c
986.5 mb
Tue Oct 27 16:39, 81.6% 11.2c
986.2 mb
Tue Oct 27 16:30, 81.7% 11.3c
986.0 mb
Tue Oct 27 16:19, 81.7% 11.3c
985.7 mb
Tue Oct 27 16:10, 81.7% 11.3c
985.5 mb
Tue Oct 27 16:05, 81.7% 11.4c
985.2 mb
Tue Oct 27 16:04, 81.7% 11.3c
985.0 mb
Tue Oct 27 16:03, 81.6% 11.4c
984.7 mb
Tue Oct 27 16:01, 81.7% 11.3c
984.4 mb
Tue Oct 27 15:51, 81.6% 11.4c
984.1 mb
Tue Oct 27 15:44, 81.7% 11.4c
983.8 mb
Tue Oct 27 15:29, 81.7% 11.4c
983.6 mb
Tue Oct 27 15:23, 81.6% 11.3c
983.6 mb
Tue Oct 27 15:17, 81.6% 11.3c
983.3 mb
Tue Oct 27 15:04, 81.6% 11.2c
983.1 mb
Tue Oct 27 15:00, 81.6% 11.2c
983.4 mb
Tue Oct 27 14:51, 81.6% 11.3c
983.6 mb
Tue Oct 27 14:43, 81.5% 11.2c
983.9 mb
Tue Oct 27 14:31, 81.6% 11.2c
984.2 mb
Tue Oct 27 14:26, 81.6% 11.1c
984.2 mb
Tue Oct 27 14:00, 81.5% 11.1c
984.5 mb
Tue Oct 27 13:40, 81.5% 11.1c
984.7 mb
Tue Oct 27 13:32, 81.5% 11.0c
985.0 mb
Tue Oct 27 13:30, 81.5% 11.0c
985.0 mb
Tue Oct 27 13:23, 81.5% 11.0c
985.3 mb
Tue Oct 27 13:09, 81.5% 11.0c
985.5 mb
Tue Oct 27 12:50, 81.4% 10.8c
985.8 mb
Tue Oct 27 12:38, 81.4% 10.7c
986.1 mb
Tue Oct 27 12:35, 81.3% 10.7c
986.2 mb
Tue Oct 27 12:26, 81.3% 10.6c
986.3 mb
Tue Oct 27 12:04, 81.2% 10.4c
986.8 mb
Tue Oct 27 11:54, 81.2% 10.2c
987.1 mb
Tue Oct 27 11:41, 81.2% 10.2c
987.4 mb
Tue Oct 27 11:35, 81.2% 10.1c
987.7 mb
Tue Oct 27 11:35, 81.1% 10.1c
987.6 mb
Tue Oct 27 11:23, 81.1% 10.0c
987.9 mb
Tue Oct 27 11:09, 81.0% 9.8c
988.2 mb
Tue Oct 27 11:00, 81.0% 9.7c
988.4 mb
Tue Oct 27 10:49, 80.9% 9.7c
988.7 mb
Tue Oct 27 10:36, 80.9% 9.5c
989.0 mb
Tue Oct 27 10:35, 80.8% 9.5c
989.1 mb
Tue Oct 27 10:20, 80.8% 9.3c
989.2 mb
Tue Oct 27 10:06, 80.8% 9.2c
989.5 mb
Tue Oct 27 09:57, 80.7% 9.1c
989.8 mb
Tue Oct 27 09:42, 80.7% 9.0c
990.0 mb
Tue Oct 27 09:36, 80.7% 8.9c
990.2 mb
Tue Oct 27 09:12, 80.6% 8.8c
990.3 mb
Tue Oct 27 08:48, 80.5% 8.6c
990.6 mb
Tue Oct 27 08:41, 80.6% 8.6c
990.8 mb
Tue Oct 27 08:24, 80.5% 8.5c
990.8 mb
Tue Oct 27 08:07, 80.4% 8.4c
991.1 mb
Tue Oct 27 07:53, 80.4% 8.3c
991.4 mb
Tue Oct 27 07:43, 80.4% 8.2c
991.4 mb
Tue Oct 27 07:22, 80.3% 8.2c
991.6 mb
Mon Oct 26 14:57, 80.5% 11.3c
989.9 mb
Mon Oct 26 14:21, 80.6% 11.4c
989.6 mb
Mon Oct 26 14:17, 80.6% 11.4c
989.6 mb
Mon Oct 26 14:02, 80.7% 11.5c
989.4 mb
Mon Oct 26 13:34, 80.8% 11.7c
989.1 mb
Mon Oct 26 13:24, 80.8% 11.7c
988.9 mb
Mon Oct 26 13:02, 80.7% 11.6c
988.9 mb
Mon Oct 26 12:33, 80.8% 11.6c
988.8 mb
Mon Oct 26 12:07, 80.9% 11.7c
988.6 mb
Mon Oct 26 11:42, 80.8% 11.6c
988.5 mb
Mon Oct 26 11:31, 80.8% 11.5c
988.4 mb
Mon Oct 26 10:56, 80.7% 11.2c
988.1 mb
Mon Oct 26 10:47, 80.7% 11.1c
987.8 mb
Mon Oct 26 10:47, 80.7% 11.1c
987.9 mb
Mon Oct 26 10:28, 80.6% 10.8c
987.6 mb
Mon Oct 26 09:56, 80.5% 10.6c
987.3 mb
Mon Oct 26 09:56, 80.6% 10.6c
987.3 mb
Mon Oct 26 09:36, 80.5% 10.5c
987.1 mb
Mon Oct 26 09:14, 80.5% 10.4c
986.8 mb
Mon Oct 26 08:59, 80.4% 10.3c
986.7 mb
Mon Oct 26 08:46, 80.4% 10.3c
986.5 mb
Mon Oct 26 08:20, 80.4% 10.2c
986.3 mb
Mon Oct 26 08:06, 80.4% 10.1c
986.1 mb
Mon Oct 26 08:01, 80.4% 10.1c
986.0 mb
Mon Oct 26 07:42, 80.4% 10.2c
985.8 mb
Mon Oct 26 07:06, 80.4% 10.3c
985.5 mb
Mon Oct 26 07:00, 80.4% 10.2c
985.5 mb
Mon Oct 26 06:35, 80.4% 10.3c
985.3 mb
Mon Oct 26 06:26, 66.7% 10.3c
985.0 mb
Mon Oct 26 06:14, 80.4% 10.3c
984.9 mb
Mon Oct 26 05:54, 80.4% 10.4c
984.8 mb
Mon Oct 26 05:21, 80.3% 10.3c
984.5 mb
Mon Oct 26 04:35, 80.3% 10.2c
984.5 mb
Mon Oct 26 03:28, 80.2% 10.1c
984.8 mb
Mon Oct 26 03:12, 80.2% 10.1c
984.8 mb
Mon Oct 26 02:49, 80.1% 10.2c
985.1 mb
Mon Oct 26 02:28, 80.2% 10.2c
985.3 mb
Mon Oct 26 02:02, 80.2% 10.2c
985.6 mb
Mon Oct 26 01:34, 80.1% 10.2c
985.9 mb
Mon Oct 26 01:19, 80.1% 10.1c
985.8 mb
Mon Oct 26 00:23, 80.1% 10.1c
986.1 mb
Sun Oct 25 23:51, 80.0% 10.1c
986.3 mb
Sun Oct 25 23:05, 80.0% 10.2c
986.4 mb
Sun Oct 25 22:52, 80.0% 10.3c
986.6 mb
Sun Oct 25 22:51, 80.1% 10.3c
986.7 mb
Sun Oct 25 21:53, 80.1% 10.6c
986.8 mb
Sun Oct 25 21:08, 80.1% 10.8c
986.8 mb
Sun Oct 25 21:00, 80.1% 10.8c
987.0 mb
Sun Oct 25 20:27, 80.2% 11.0c
987.1 mb
Sun Oct 25 20:21, 80.2% 11.0c
987.3 mb
Sun Oct 25 20:08, 80.2% 11.1c
987.0 mb
Sun Oct 25 20:03, 80.2% 11.2c
987.1 mb
Sun Oct 25 19:54, 80.2% 11.2c
986.8 mb
Sun Oct 25 19:26, 80.2% 11.5c
987.1 mb
Sun Oct 25 19:15, 80.3% 11.6c
986.8 mb
Sun Oct 25 19:14, 80.3% 11.6c
986.9 mb
Sun Oct 25 18:59, 80.4% 11.8c
987.1 mb
Sun Oct 25 18:47, 80.4% 11.9c
987.3 mb
Sun Oct 25 18:18, 80.6% 12.3c
987.3 mb
Sun Oct 25 18:12, 80.5% 12.4c
987.3 mb
Sun Oct 25 17:47, 80.6% 12.7c
987.5 mb
Sun Oct 25 17:19, 80.8% 13.2c
987.5 mb
Sun Oct 25 17:14, 80.8% 13.2c
987.4 mb
Sun Oct 25 16:39, 80.9% 13.7c
987.3 mb
Sun Oct 25 16:21, 81.0% 14.0c
987.2 mb
Sun Oct 25 16:01, 81.0% 14.2c
987.0 mb
Sun Oct 25 15:13, 81.2% 14.7c
986.9 mb
Sun Oct 25 14:25, 56.9% 14.8c
986.8 mb
Sun Oct 25 13:50, 81.5% 14.7c
986.6 mb
Sun Oct 25 13:26, 81.4% 14.6c
986.8 mb
Sun Oct 25 12:31, 81.8% 14.2c
986.8 mb
Sun Oct 25 12:26, 81.8% 14.2c
986.8 mb
Sun Oct 25 12:06, 81.9% 13.7c
986.8 mb
Sun Oct 25 11:46, 81.8% 13.3c
986.5 mb
Sun Oct 25 11:33, 81.7% 12.9c
986.6 mb
Sun Oct 25 11:24, 81.8% 12.8c
986.6 mb
Sun Oct 25 11:10, 81.7% 12.3c
986.4 mb
Sun Oct 25 10:55, 81.5% 11.8c
986.3 mb
Sun Oct 25 10:45, 81.4% 11.5c
986.0 mb
Sun Oct 25 10:38, 81.4% 11.2c
986.0 mb
Sun Oct 25 10:28, 81.3% 11.0c
986.0 mb
Sun Oct 25 10:09, 81.2% 10.4c
986.0 mb
Sun Oct 25 09:50, 81.0% 9.9c
986.0 mb
Sun Oct 25 09:43, 81.0% 9.7c
986.0 mb
Sun Oct 25 09:25, 80.9% 9.4c
985.9 mb
Sun Oct 25 09:23, 80.9% 9.4c
986.1 mb
Sun Oct 25 08:58, 81.0% 9.3c
985.8 mb
Sun Oct 25 08:50, 81.0% 9.3c
985.6 mb
Sun Oct 25 08:47, 80.9% 9.3c
985.6 mb
Sun Oct 25 08:35, 80.9% 9.3c
985.3 mb
Sun Oct 25 08:20, 73.4% 9.3c
985.1 mb
Sun Oct 25 07:52, 80.9% 9.2c
984.9 mb
Sun Oct 25 07:28, 80.8% 9.2c
984.8 mb
Sun Oct 25 07:17, 80.8% 9.2c
984.5 mb
Sun Oct 25 06:52, 80.8% 9.2c
984.3 mb
Sun Oct 25 06:49, 80.8% 9.2c
984.3 mb
Sun Oct 25 06:08, 80.6% 9.2c
984.6 mb
Sun Oct 25 05:57, 80.7% 9.1c
984.1 mb
Sun Oct 25 05:41, 80.6% 9.1c
984.2 mb
Sun Oct 25 05:31, 80.6% 9.1c
984.5 mb
Sun Oct 25 05:01, 80.5% 8.9c
984.9 mb
Sun Oct 25 04:24, 80.5% 8.9c
984.8 mb
Sun Oct 25 04:09, 80.4% 8.8c
985.1 mb
Sun Oct 25 04:08, 80.4% 8.8c
985.0 mb
Sun Oct 25 03:39, 80.4% 8.8c
984.8 mb
Sun Oct 25 03:27, 80.4% 8.8c
985.1 mb
Sun Oct 25 03:10, 80.3% 8.8c
985.2 mb
Sun Oct 25 03:00, 80.3% 8.8c
985.3 mb
Sun Oct 25 02:19, 80.4% 8.9c
985.6 mb
Sun Oct 25 02:09, 80.3% 8.9c
985.6 mb
Sun Oct 25 01:51, 80.4% 9.0c
985.8 mb
Sun Oct 25 01:24, 80.4% 9.2c
986.1 mb
Sun Oct 25 01:21, 80.4% 9.2c
986.1 mb
Sun Oct 25 01:01, 80.4% 9.2c
986.4 mb
Sun Oct 25 01:31, 80.5% 9.5c
986.5 mb
Sun Oct 25 00:37, 80.5% 9.7c
986.5 mb
Sun Oct 25 00:35, 80.6% 9.8c
986.5 mb
Sat Oct 24 23:37, 80.6% 10.0c
986.8 mb
Sat Oct 24 23:09, 80.6% 10.0c
986.7 mb
Sat Oct 24 22:42, 80.6% 10.1c
986.6 mb
Sat Oct 24 21:48, 80.8% 10.4c
986.7 mb
Sat Oct 24 21:35, 80.7% 10.5c
986.5 mb
Sat Oct 24 21:20, 80.8% 10.6c
986.8 mb
Sat Oct 24 21:05, 80.8% 10.6c
986.6 mb
Sat Oct 24 20:49, 80.9% 10.8c
986.9 mb
Sat Oct 24 20:37, 80.9% 10.8c
986.8 mb
Sat Oct 24 19:50, 81.0% 11.3c
986.8 mb
Sat Oct 24 19:40, 80.9% 11.3c
986.9 mb
Sat Oct 24 19:35, 81.0% 11.3c
986.6 mb
Sat Oct 24 19:21, 81.0% 11.5c
986.9 mb
Sat Oct 24 19:10, 81.0% 11.6c
987.2 mb
Sat Oct 24 19:05, 81.0% 11.6c
986.9 mb
Sat Oct 24 19:03, 81.0% 11.6c
987.2 mb
Sat Oct 24 19:01, 81.0% 11.5c
987.5 mb
Sat Oct 24 18:55, 81.1% 11.6c
987.8 mb
Sat Oct 24 18:20, 81.1% 11.8c
987.8 mb
Sat Oct 24 17:58, 81.1% 11.9c
987.5 mb
Sat Oct 24 17:33, 81.1% 11.9c
987.5 mb
Sat Oct 24 17:21, 81.1% 12.0c
987.8 mb
Sat Oct 24 17:07, 81.1% 12.0c
988.0 mb
Sat Oct 24 17:01, 81.1% 12.0c
988.2 mb
Sat Oct 24 16:42, 81.1% 11.9c
988.3 mb
Sat Oct 24 16:22, 81.1% 11.9c
988.6 mb
Sat Oct 24 16:12, 81.1% 11.9c
988.8 mb
Sat Oct 24 16:09, 81.1% 11.8c
989.0 mb
Sat Oct 24 15:50, 81.0% 11.7c
989.1 mb
Sat Oct 24 15:25, 81.0% 11.7c
989.4 mb
Sat Oct 24 15:15, 81.0% 11.6c
989.6 mb
Sat Oct 24 15:11, 81.0% 11.6c
989.8 mb
Sat Oct 24 14:48, 81.0% 11.6c
989.9 mb
Sat Oct 24 14:17, 80.9% 11.4c
990.2 mb
Sat Oct 24 14:15, 80.9% 11.4c
990.1 mb
Sat Oct 24 14:10, 80.9% 11.4c
990.4 mb
Sat Oct 24 13:41, 80.9% 11.4c
990.7 mb
Sat Oct 24 13:22, 80.9% 11.3c
991.0 mb
Sat Oct 24 13:20, 80.8% 11.3c
991.0 mb
Sat Oct 24 12:23, 80.8% 11.3c
990.8 mb
Sat Oct 24 11:57, 80.8% 11.2c
990.7 mb
Sat Oct 24 11:31, 80.8% 11.2c
991.1 mb
Sat Oct 24 11:30, 80.9% 11.2c
991.0 mb
Sat Oct 24 11:09, 80.8% 11.2c
990.7 mb
Sat Oct 24 11:00, 80.8% 11.2c
991.0 mb
Sat Oct 24 10:51, 80.7% 11.3c
991.2 mb
Sat Oct 24 10:45, 80.8% 11.3c
991.0 mb
Sat Oct 24 07:31, 80.2% 10.6c
989.8 mb
Sat Oct 24 07:27, 80.2% 10.5c
990.1 mb
Sat Oct 24 07:14, 80.2% 10.4c
990.3 mb
Sat Oct 24 07:10, 80.2% 10.4c
990.6 mb
Sat Oct 24 07:06, 80.2% 10.4c
990.6 mb
Sat Oct 24 06:49, 80.1% 10.4c
990.9 mb
Sat Oct 24 06:42, 80.1% 10.4c
991.2 mb
Sat Oct 24 06:34, 80.1% 10.3c
991.5 mb
Sat Oct 24 06:22, 80.0% 10.3c
991.8 mb
Sat Oct 24 06:17, 80.0% 10.3c
992.1 mb
Sat Oct 24 06:16, 80.0% 10.3c
992.3 mb
Sat Oct 24 06:00, 80.0% 10.2c
992.4 mb
Sat Oct 24 05:52, 79.9% 10.2c
992.6 mb
Sat Oct 24 05:43, 79.9% 10.2c
992.9 mb
Sat Oct 24 05:38, 79.9% 10.2c
993.2 mb
Sat Oct 24 05:23, 79.9% 10.1c
993.4 mb
Sat Oct 24 05:21, 79.8% 10.1c
993.6 mb
Sat Oct 24 05:11, 79.8% 10.0c
993.7 mb
Sat Oct 24 05:06, 79.8% 10.1c
994.0 mb
Sat Oct 24 04:56, 79.8% 10.1c
994.2 mb
Sat Oct 24 04:48, 79.8% 10.0c
994.5 mb
Sat Oct 24 04:30, 79.7% 10.0c
994.8 mb
Sat Oct 24 04:30, 79.8% 9.9c
994.9 mb
Sat Oct 24 04:21, 79.7% 9.9c
995.1 mb
Sat Oct 24 04:07, 79.7% 9.8c
995.4 mb
Sat Oct 24 03:58, 79.7% 9.8c
995.6 mb
Sat Oct 24 03:49, 79.7% 9.8c
995.9 mb
Sat Oct 24 03:36, 79.6% 9.7c
996.2 mb
Sat Oct 24 03:33, 79.6% 9.6c
996.2 mb
Sat Oct 24 03:22, 79.6% 9.6c
996.5 mb
Sat Oct 24 03:07, 79.5% 9.5c
996.7 mb
Sat Oct 24 02:53, 79.5% 9.5c
997.0 mb
Sat Oct 24 02:42, 79.5% 9.4c
997.3 mb
Sat Oct 24 02:39, 79.5% 9.4c
997.6 mb
Sat Oct 24 02:37, 79.5% 9.4c
997.6 mb
Sat Oct 24 02:19, 79.4% 9.3c
997.8 mb
Sat Oct 24 02:10, 79.4% 9.3c
998.1 mb
Sat Oct 24 02:00, 79.3% 9.3c
998.4 mb
Sat Oct 24 01:54, 79.4% 9.2c
998.7 mb
Sat Oct 24 01:43, 79.3% 9.3c
999.0 mb
Sat Oct 24 01:40, 79.3% 9.3c
998.9 mb
Sat Oct 24 01:28, 79.4% 9.3c
999.2 mb
Sat Oct 24 01:18, 79.3% 9.3c
999.5 mb
Sat Oct 24 00:56, 79.2% 9.4c
999.7 mb
Sat Oct 24 00:51, 79.3% 9.4c
999.9 mb
Sat Oct 24 00:42, 79.3% 9.4c
1000.0 mb
Sat Oct 24 00:34, 79.4% 9.4c
1000.2 mb
Sat Oct 24 00:15, 79.2% 9.4c
1000.5 mb
Sat Oct 24 00:01, 79.2% 9.4c
1000.8 mb
Sat Oct 24 00:00, 79.3% 9.5c
1001.0 mb
Fri Oct 23 23:29, 79.2% 9.5c
1001.0 mb
Fri Oct 23 23:21, 79.2% 9.6c
1001.3 mb
Fri Oct 23 23:04, 79.2% 9.6c
1001.6 mb
Fri Oct 23 22:41, 79.2% 9.7c
1001.6 mb
Fri Oct 23 22:12, 79.2% 9.9c
1002.0 mb
Fri Oct 23 21:39, 79.2% 10.1c
1001.8 mb
Fri Oct 23 21:21, 79.2% 10.2c
1002.1 mb
Fri Oct 23 21:15, 79.2% 10.2c
1002.3 mb
Fri Oct 23 21:02, 79.3% 10.4c
1002.4 mb
Fri Oct 23 20:18, 79.2% 10.8c
1002.6 mb
Fri Oct 23 20:17, 79.3% 10.8c
1002.7 mb
Fri Oct 23 19:36, 79.4% 11.3c
1002.8 mb
Fri Oct 23 19:20, 79.5% 11.6c
1002.9 mb
Fri Oct 23 19:06, 79.6% 11.8c
1002.9 mb
Fri Oct 23 18:52, 79.6% 11.9c
1002.6 mb
Fri Oct 23 18:22, 79.8% 12.3c
1002.4 mb
Fri Oct 23 18:21, 79.8% 12.4c
1002.4 mb
Fri Oct 23 17:43, 80.0% 12.8c
1002.5 mb
Fri Oct 23 17:34, 80.1% 12.9c
1002.2 mb
Fri Oct 23 17:27, 80.0% 13.0c
1002.1 mb
Fri Oct 23 16:50, 80.1% 13.4c
1002.0 mb
Fri Oct 23 16:33, 80.1% 13.4c
1001.6 mb
Fri Oct 23 16:15, 80.1% 13.5c
1001.7 mb
Fri Oct 23 15:39, 80.1% 13.3c
1001.5 mb
Fri Oct 23 15:36, 80.1% 13.4c
1001.4 mb
Fri Oct 23 14:58, 80.1% 13.2c
1001.2 mb
Fri Oct 23 14:40, 80.0% 12.9c
1001.0 mb
Fri Oct 23 14:30, 80.0% 12.7c
1001.0 mb
Fri Oct 23 14:19, 80.1% 12.4c
1000.8 mb
Fri Oct 23 14:00, 80.0% 12.0c
1000.5 mb
Fri Oct 23 13:43, 80.1% 11.7c
1000.5 mb
Fri Oct 23 13:09, 80.0% 11.5c
1000.4 mb
Fri Oct 23 12:45, 80.0% 11.2c
1000.5 mb
Fri Oct 23 12:11, 79.9% 11.0c
1000.4 mb
Fri Oct 23 12:04, 79.8% 10.9c
1000.1 mb
Fri Oct 23 11:50, 79.8% 10.8c
999.7 mb
Fri Oct 23 11:16, 79.7% 10.6c
999.6 mb
Fri Oct 23 10:51, 79.7% 10.5c
999.6 mb
Fri Oct 23 10:36, 79.7% 10.4c
999.4 mb
Fri Oct 23 09:57, 79.6% 10.3c
999.7 mb
Fri Oct 23 09:53, 79.6% 10.3c
999.6 mb
Fri Oct 23 09:08, 79.6% 10.1c
999.9 mb
Fri Oct 23 09:01, 79.5% 10.2c
1000.1 mb
Fri Oct 23 08:26, 79.4% 10.1c
1000.2 mb
Fri Oct 23 08:04, 79.4% 10.0c
1000.4 mb
Fri Oct 23 07:56, 79.4% 10.0c
1000.5 mb
Fri Oct 23 07:21, 79.3% 9.9c
1000.7 mb
Fri Oct 23 07:07, 79.3% 9.9c
1001.0 mb
Fri Oct 23 06:44, 79.3% 9.8c
1001.0 mb
Fri Oct 23 06:23, 79.2% 9.9c
1001.3 mb
Fri Oct 23 06:11, 79.3% 9.9c
1001.5 mb
Fri Oct 23 05:41, 79.2% 9.9c
1001.5 mb
Fri Oct 23 05:18, 79.2% 10.0c
1001.9 mb
Fri Oct 23 04:28, 70.2% 10.0c
1002.1 mb
Fri Oct 23 04:19, 79.2% 10.0c
1002.3 mb
Fri Oct 23 03:52, 79.2% 10.1c
1002.4 mb
Fri Oct 23 03:32, 79.2% 10.1c
1002.6 mb
Fri Oct 23 03:20, 79.2% 10.2c
1002.9 mb
Fri Oct 23 03:12, 79.2% 10.1c
1002.9 mb
Fri Oct 23 02:46, 79.2% 10.2c
1003.1 mb
Fri Oct 23 02:27, 79.3% 10.2c
1003.4 mb
Fri Oct 23 02:19, 79.2% 10.3c
1003.5 mb
Fri Oct 23 01:49, 79.2% 10.4c
1003.7 mb
Fri Oct 23 01:21, 79.2% 10.5c
1004.1 mb
Fri Oct 23 00:48, 79.2% 10.7c
1004.2 mb
Fri Oct 23 00:30, 79.2% 10.7c
1004.5 mb
Thu Oct 22 23:51, 79.3% 10.8c
1004.5 mb
Thu Oct 22 23:34, 79.2% 10.9c
1004.7 mb
Thu Oct 22 22:55, 79.2% 11.1c
1004.8 mb
Thu Oct 22 22:37, 79.2% 11.2c

s4 Hallway PiR
Wed Oct 28 10:36, no_motion 30m

Wed Oct 28 10:36, no_motion 30m
Wed Oct 28 10:26, no_motion 20m
Wed Oct 28 10:16, no_motion 10m
Wed Oct 28 10:06, status motion
Wed Oct 28 10:03, status motion
Wed Oct 28 10:01, status motion
Wed Oct 28 09:59, status motion
Wed Oct 28 09:53, status motion
Wed Oct 28 09:49, status motion
Wed Oct 28 09:46, status motion
Wed Oct 28 09:43, no_motion 10m
Wed Oct 28 09:33, status motion
Wed Oct 28 09:31, status motion
Wed Oct 28 09:22, no_motion 10m
Wed Oct 28 09:12, status motion
Wed Oct 28 09:11, status motion
Wed Oct 28 09:06, status motion
Wed Oct 28 08:59, status motion
Wed Oct 28 08:58, status motion
Wed Oct 28 08:55, status motion
Wed Oct 28 08:53, status motion
Wed Oct 28 08:52, status motion
Wed Oct 28 08:51, status motion
Wed Oct 28 08:44, status motion
Wed Oct 28 08:42, status motion
Wed Oct 28 08:40, status motion
Wed Oct 28 08:39, no_motion 10m
Wed Oct 28 08:30, status motion
Wed Oct 28 08:26, status motion
Wed Oct 28 08:25, status motion
Wed Oct 28 08:23, status motion
Wed Oct 28 08:23, no_motion 20m
Wed Oct 28 08:13, no_motion 10m
Wed Oct 28 08:03, status motion
Wed Oct 28 08:02, no_motion 10m
Wed Oct 28 07:52, status motion
Wed Oct 28 07:49, status motion
Wed Oct 28 07:40, no_motion 10m
Wed Oct 28 07:30, status motion
Wed Oct 28 07:24, no_motion 20m
Wed Oct 28 07:14, no_motion 10m
Wed Oct 28 07:04, status motion
Wed Oct 28 07:00, status motion
Wed Oct 28 06:57, status motion
Wed Oct 28 06:11, no_motion 30m
Wed Oct 28 06:01, no_motion 20m
Wed Oct 28 05:51, no_motion 10m
Wed Oct 28 05:41, status motion
Wed Oct 28 05:38, status motion
Wed Oct 28 02:22, no_motion 30m
Wed Oct 28 02:12, no_motion 20m
Wed Oct 28 02:02, no_motion 10m
Wed Oct 28 01:52, status motion
Wed Oct 28 01:50, status motion
Tue Oct 27 22:38, no_motion 30m
Tue Oct 27 22:28, no_motion 20m
Tue Oct 27 22:18, no_motion 10m
Tue Oct 27 22:08, status motion
Tue Oct 27 22:02, status motion
Tue Oct 27 22:00, status motion
Tue Oct 27 21:54, no_motion 20m
Tue Oct 27 21:44, no_motion 10m
Tue Oct 27 21:34, status motion
Tue Oct 27 20:50, no_motion 30m
Tue Oct 27 20:40, no_motion 20m
Tue Oct 27 20:30, no_motion 10m
Tue Oct 27 20:20, status motion
Tue Oct 27 20:17, status motion
Tue Oct 27 20:16, status motion
Tue Oct 27 19:52, no_motion 30m
Tue Oct 27 19:42, no_motion 20m
Tue Oct 27 19:32, no_motion 10m
Tue Oct 27 19:22, status motion
Tue Oct 27 19:20, status motion
Tue Oct 27 19:13, no_motion 10m
Tue Oct 27 19:03, status motion
Tue Oct 27 19:02, status motion
Tue Oct 27 19:01, status motion
Tue Oct 27 18:55, no_motion 30m
Tue Oct 27 18:45, no_motion 20m
Tue Oct 27 18:35, no_motion 10m
Tue Oct 27 18:25, status motion
Tue Oct 27 18:16, no_motion 30m
Tue Oct 27 18:06, no_motion 20m
Tue Oct 27 17:56, no_motion 10m
Tue Oct 27 17:46, status motion
Tue Oct 27 17:42, no_motion 10m
Tue Oct 27 17:32, status motion
Tue Oct 27 17:30, status motion
Tue Oct 27 17:08, no_motion 30m
Tue Oct 27 16:58, no_motion 20m
Tue Oct 27 16:48, no_motion 10m
Tue Oct 27 16:38, status motion
Tue Oct 27 16:36, no_motion 10m
Tue Oct 27 16:26, status motion
Tue Oct 27 16:24, status motion
Tue Oct 27 14:48, no_motion 30m
Tue Oct 27 14:38, no_motion 20m
Tue Oct 27 14:28, no_motion 10m
Tue Oct 27 14:18, status motion
Tue Oct 27 14:17, status motion
Tue Oct 27 14:11, status motion
Tue Oct 27 14:04, no_motion 20m
Tue Oct 27 13:54, no_motion 10m
Tue Oct 27 13:44, status motion
Tue Oct 27 13:33, no_motion 30m
Tue Oct 27 13:23, no_motion 20m
Tue Oct 27 13:13, no_motion 10m
Tue Oct 27 13:03, status motion
Tue Oct 27 12:53, no_motion 30m
Tue Oct 27 12:43, no_motion 20m
Tue Oct 27 12:33, no_motion 10m
Tue Oct 27 12:23, status motion
Tue Oct 27 12:16, status motion
Tue Oct 27 12:15, status motion
Tue Oct 27 12:14, status motion
Tue Oct 27 12:12, status motion
Tue Oct 27 12:11, status motion
Tue Oct 27 12:08, status motion
Tue Oct 27 12:06, status motion
Tue Oct 27 12:05, status motion
Tue Oct 27 12:04, status motion
Tue Oct 27 10:47, no_motion 30m
Tue Oct 27 10:37, no_motion 20m
Tue Oct 27 10:27, no_motion 10m
Tue Oct 27 10:17, status motion
Tue Oct 27 08:42, no_motion 30m
Tue Oct 27 08:32, no_motion 20m
Tue Oct 27 08:22, no_motion 10m
Tue Oct 27 08:12, status motion
Tue Oct 27 08:10, status motion
Tue Oct 27 08:08, status motion
Tue Oct 27 08:06, status motion
Tue Oct 27 08:05, status motion
Tue Oct 27 08:03, status motion
Tue Oct 27 08:01, status motion
Tue Oct 27 08:00, status motion
Tue Oct 27 07:57, status motion
Tue Oct 27 07:54, status motion
Tue Oct 27 07:49, status motion
Tue Oct 27 07:46, status motion
Tue Oct 27 07:42, status motion
Tue Oct 27 07:39, status motion
Tue Oct 27 07:36, no_motion 10m
Tue Oct 27 07:26, status motion
Tue Oct 27 07:24, status motion
Tue Oct 27 07:23, status motion
Tue Oct 27 07:17, no_motion 10m
Tue Oct 27 07:07, status motion
Tue Oct 27 07:00, status motion
Tue Oct 27 06:58, status motion
Mon Oct 26 15:03, no_motion 30m
Mon Oct 26 14:53, no_motion 20m
Mon Oct 26 14:43, no_motion 10m
Mon Oct 26 14:33, status motion
Mon Oct 26 14:05, no_motion 30m
Mon Oct 26 13:55, no_motion 20m
Mon Oct 26 13:45, no_motion 10m
Mon Oct 26 13:35, status motion
Mon Oct 26 13:34, status motion
Mon Oct 26 13:20, no_motion 30m
Mon Oct 26 13:10, no_motion 20m
Mon Oct 26 13:00, no_motion 10m
Mon Oct 26 12:50, status motion
Mon Oct 26 12:44, status motion
Mon Oct 26 12:35, status motion
Mon Oct 26 12:31, status motion
Mon Oct 26 12:19, no_motion 30m
Mon Oct 26 12:09, no_motion 20m
Mon Oct 26 11:59, no_motion 10m
Mon Oct 26 11:49, status motion
Mon Oct 26 11:41, no_motion 10m
Mon Oct 26 11:31, status motion
Mon Oct 26 10:51, no_motion 30m
Mon Oct 26 10:41, no_motion 20m
Mon Oct 26 10:31, no_motion 10m
Mon Oct 26 10:21, status motion
Mon Oct 26 10:20, status motion
Mon Oct 26 10:18, status motion
Mon Oct 26 10:15, status motion
Mon Oct 26 09:51, no_motion 30m
Mon Oct 26 09:41, no_motion 20m
Mon Oct 26 09:31, no_motion 10m
Mon Oct 26 09:21, status motion
Mon Oct 26 09:18, status motion
Mon Oct 26 09:13, no_motion 20m
Mon Oct 26 09:03, no_motion 10m
Mon Oct 26 08:53, status motion
Mon Oct 26 08:49, no_motion 10m
Mon Oct 26 08:39, status motion
Mon Oct 26 08:36, status motion
Mon Oct 26 08:33, status motion
Mon Oct 26 08:32, status motion
Mon Oct 26 08:30, status motion
Mon Oct 26 08:23, status motion
Mon Oct 26 08:15, status motion
Mon Oct 26 08:10, no_motion 10m
Mon Oct 26 08:01, status motion
Mon Oct 26 07:55, status motion
Mon Oct 26 07:52, status motion
Mon Oct 26 07:51, status motion
Mon Oct 26 07:43, status motion
Mon Oct 26 07:41, status motion
Mon Oct 26 07:34, status motion
Mon Oct 26 07:26, status motion
Mon Oct 26 07:16, status motion
Mon Oct 26 07:16, no_motion 10m
Mon Oct 26 07:06, status motion
Mon Oct 26 07:03, status motion
Mon Oct 26 07:01, status motion
Mon Oct 26 05:52, no_motion 30m
Mon Oct 26 05:42, no_motion 20m
Mon Oct 26 05:32, no_motion 10m
Mon Oct 26 05:23, status motion
Mon Oct 26 05:21, status motion
Mon Oct 26 05:17, no_motion 30m
Mon Oct 26 05:07, no_motion 20m
Mon Oct 26 04:57, no_motion 10m
Mon Oct 26 04:47, status motion
Mon Oct 26 04:45, no_motion 10m
Mon Oct 26 04:35, status motion
Mon Oct 26 04:32, no_motion 20m
Mon Oct 26 04:22, no_motion 10m
Mon Oct 26 04:12, status motion
Mon Oct 26 04:11, status motion
Sun Oct 25 22:00, no_motion 30m
Sun Oct 25 21:50, no_motion 20m
Sun Oct 25 21:40, no_motion 10m
Sun Oct 25 21:30, status motion
Sun Oct 25 21:24, status motion
Sun Oct 25 21:22, status motion
Sun Oct 25 21:19, status motion
Sun Oct 25 21:14, no_motion 10m
Sun Oct 25 21:04, status motion
Sun Oct 25 21:02, status motion
Sun Oct 25 20:04, no_motion 30m
Sun Oct 25 19:54, no_motion 20m
Sun Oct 25 19:44, no_motion 10m
Sun Oct 25 19:34, status motion
Sun Oct 25 19:33, status motion
Sun Oct 25 19:26, no_motion 10m
Sun Oct 25 19:16, status motion
Sun Oct 25 19:14, status motion
Sun Oct 25 19:07, status motion
Sun Oct 25 18:59, status motion
Sun Oct 25 18:46, no_motion 30m
Sun Oct 25 18:36, no_motion 20m
Sun Oct 25 18:26, no_motion 10m
Sun Oct 25 18:16, status motion
Sun Oct 25 18:13, no_motion 10m
Sun Oct 25 18:03, status motion
Sun Oct 25 17:53, no_motion 10m
Sun Oct 25 17:43, status motion
Sun Oct 25 17:35, no_motion 30m
Sun Oct 25 17:25, no_motion 20m
Sun Oct 25 17:15, no_motion 10m
Sun Oct 25 17:05, status motion
Sun Oct 25 17:04, status motion
Sun Oct 25 16:59, status motion
Sun Oct 25 16:54, no_motion 20m
Sun Oct 25 16:44, no_motion 10m
Sun Oct 25 16:34, status motion
Sun Oct 25 16:33, status motion
Sun Oct 25 15:58, no_motion 30m
Sun Oct 25 15:48, no_motion 20m
Sun Oct 25 15:38, no_motion 10m
Sun Oct 25 15:28, status motion
Sun Oct 25 15:27, status motion
Sun Oct 25 15:26, status motion
Sun Oct 25 15:25, status motion
Sun Oct 25 15:24, status motion
Sun Oct 25 15:22, status motion
Sun Oct 25 15:21, status motion
Sun Oct 25 15:20, status motion
Sun Oct 25 15:17, status motion
Sun Oct 25 15:16, status motion
Sun Oct 25 15:15, status motion
Sun Oct 25 15:14, status motion
Sun Oct 25 15:12, status motion
Sun Oct 25 15:10, status motion
Sun Oct 25 15:08, status motion
Sun Oct 25 15:06, status motion
Sun Oct 25 15:02, status motion
Sun Oct 25 14:32, no_motion 30m
Sun Oct 25 14:22, no_motion 20m
Sun Oct 25 14:12, no_motion 10m
Sun Oct 25 14:02, status motion
Sun Oct 25 13:53, no_motion 20m
Sun Oct 25 13:43, no_motion 10m
Sun Oct 25 13:33, status motion
Sun Oct 25 13:32, status motion
Sun Oct 25 13:31, status motion
Sun Oct 25 13:29, status motion
Sun Oct 25 13:22, no_motion 10m
Sun Oct 25 13:12, status motion
Sun Oct 25 13:09, no_motion 30m
Sun Oct 25 12:59, no_motion 20m
Sun Oct 25 12:49, no_motion 10m
Sun Oct 25 12:39, status motion
Sun Oct 25 12:38, status motion
Sun Oct 25 12:33, status motion
Sun Oct 25 12:32, status motion
Sun Oct 25 12:31, status motion
Sun Oct 25 12:30, status motion
Sun Oct 25 12:29, status motion
Sun Oct 25 10:08, no_motion 30m
Sun Oct 25 09:58, no_motion 20m
Sun Oct 25 09:48, no_motion 10m
Sun Oct 25 09:38, status motion
Sun Oct 25 09:37, status motion
Sun Oct 25 09:36, status motion
Sun Oct 25 09:34, status motion
Sun Oct 25 09:31, status motion
Sun Oct 25 09:29, no_motion 30m
Sun Oct 25 09:19, no_motion 20m
Sun Oct 25 09:09, no_motion 10m
Sun Oct 25 08:59, status motion
Sun Oct 25 08:58, status motion
Sun Oct 25 08:51, status motion
Sun Oct 25 08:48, status motion
Sun Oct 25 08:46, no_motion 10m
Sun Oct 25 08:36, status motion
Sun Oct 25 08:35, status motion
Sun Oct 25 08:33, status motion
Sun Oct 25 08:30, status motion
Sun Oct 25 08:27, status motion
Sun Oct 25 08:25, status motion
Sun Oct 25 08:24, no_motion 10m
Sun Oct 25 08:14, status motion
Sun Oct 25 08:13, no_motion 10m
Sun Oct 25 08:03, status motion
Sun Oct 25 07:59, status motion
Sun Oct 25 07:56, status motion
Sun Oct 25 07:49, no_motion 10m
Sun Oct 25 07:39, status motion
Sun Oct 25 07:34, status motion
Sun Oct 25 07:31, status motion
Sun Oct 25 07:27, status motion
Sun Oct 25 07:25, status motion
Sun Oct 25 07:20, no_motion 30m
Sun Oct 25 07:10, no_motion 20m
Sun Oct 25 07:00, no_motion 10m
Sun Oct 25 06:50, status motion
Sun Oct 25 06:48, status motion
Sun Oct 25 06:47, status motion
Sun Oct 25 06:40, no_motion 30m
Sun Oct 25 06:30, no_motion 20m
Sun Oct 25 06:20, no_motion 10m
Sun Oct 25 06:10, status motion
Sun Oct 25 06:04, status motion
Sun Oct 25 06:02, status motion
Sun Oct 25 05:59, no_motion 30m
Sun Oct 25 05:49, no_motion 20m
Sun Oct 25 05:39, no_motion 10m
Sun Oct 25 05:29, status motion
Sun Oct 25 05:27, status motion
Sun Oct 25 00:32, no_motion 30m
Sun Oct 25 00:23, no_motion 20m
Sun Oct 25 00:13, no_motion 10m
Sun Oct 25 00:03, status motion
Sun Oct 25 00:00, status motion
Sat Oct 24 23:09, no_motion 30m
Sat Oct 24 22:59, no_motion 20m
Sat Oct 24 22:49, no_motion 10m
Sat Oct 24 22:39, status motion
Sat Oct 24 22:36, status motion
Sat Oct 24 22:35, status motion
Sat Oct 24 22:32, no_motion 10m
Sat Oct 24 22:22, status motion
Sat Oct 24 22:21, status motion
Sat Oct 24 20:15, no_motion 30m
Sat Oct 24 20:05, no_motion 20m
Sat Oct 24 19:55, no_motion 10m
Sat Oct 24 19:45, status motion
Sat Oct 24 19:43, status motion
Sat Oct 24 18:52, no_motion 30m
Sat Oct 24 18:42, no_motion 20m
Sat Oct 24 18:32, no_motion 10m
Sat Oct 24 18:22, status motion
Sat Oct 24 18:19, status motion
Sat Oct 24 18:10, no_motion 10m
Sat Oct 24 18:00, status motion
Sat Oct 24 17:59, status motion
Sat Oct 24 17:46, no_motion 30m
Sat Oct 24 17:36, no_motion 20m
Sat Oct 24 17:26, no_motion 10m
Sat Oct 24 17:16, status motion
Sat Oct 24 17:15, status motion
Sat Oct 24 16:15, no_motion 30m
Sat Oct 24 16:04, no_motion 20m
Sat Oct 24 15:54, no_motion 10m
Sat Oct 24 15:44, status motion
Sat Oct 24 15:42, status motion
Sat Oct 24 15:41, status motion
Sat Oct 24 15:36, no_motion 10m
Sat Oct 24 15:26, status motion
Sat Oct 24 15:24, status motion
Sat Oct 24 14:43, no_motion 30m
Sat Oct 24 14:33, no_motion 20m
Sat Oct 24 14:23, no_motion 10m
Sat Oct 24 14:13, status motion
Sat Oct 24 14:11, status motion
Sat Oct 24 14:08, status motion
Sat Oct 24 14:07, status motion
Sat Oct 24 14:03, status motion
Sat Oct 24 14:00, no_motion 20m
Sat Oct 24 13:50, no_motion 10m
Sat Oct 24 13:40, status motion
Sat Oct 24 13:08, no_motion 30m
Sat Oct 24 12:58, no_motion 20m
Sat Oct 24 12:48, no_motion 10m
Sat Oct 24 12:38, status motion
Sat Oct 24 12:37, no_motion 10m
Sat Oct 24 12:27, status motion
Sat Oct 24 12:20, status motion
Sat Oct 24 12:14, status motion
Sat Oct 24 12:08, no_motion 10m
Sat Oct 24 11:58, status motion
Sat Oct 24 11:57, status motion
Sat Oct 24 11:52, no_motion 10m
Sat Oct 24 11:42, status motion
Sat Oct 24 11:08, no_motion 30m
Sat Oct 24 10:58, no_motion 20m
Sat Oct 24 10:49, no_motion 10m
Sat Oct 24 10:39, status motion
Sat Oct 24 10:37, status motion
Sat Oct 24 10:28, no_motion 30m
Sat Oct 24 10:18, no_motion 20m
Sat Oct 24 10:08, no_motion 10m
Sat Oct 24 09:58, status motion
Sat Oct 24 09:34, no_motion 30m
Sat Oct 24 09:24, no_motion 20m
Sat Oct 24 09:14, no_motion 10m
Sat Oct 24 09:04, status motion
Sat Oct 24 09:03, status motion
Sat Oct 24 08:59, no_motion 10m
Sat Oct 24 08:49, status motion
Sat Oct 24 08:48, status motion
Sat Oct 24 08:45, status motion
Sat Oct 24 08:39, no_motion 10m
Sat Oct 24 08:29, status motion
Sat Oct 24 08:28, status motion
Sat Oct 24 08:25, status motion
Sat Oct 24 08:20, status motion
Sat Oct 24 08:16, no_motion 30m
Sat Oct 24 08:06, no_motion 20m
Sat Oct 24 07:56, no_motion 10m
Sat Oct 24 07:46, status motion
Sat Oct 24 07:43, status motion
Sat Oct 24 07:40, status motion
Sat Oct 24 07:39, status motion
Sat Oct 24 07:37, status motion
Sat Oct 24 07:32, no_motion 30m
Sat Oct 24 07:22, no_motion 20m
Sat Oct 24 07:12, no_motion 10m
Sat Oct 24 07:02, status motion
Sat Oct 24 06:59, status motion
Sat Oct 24 06:51, no_motion 30m
Sat Oct 24 06:41, no_motion 20m
Sat Oct 24 06:31, no_motion 10m
Sat Oct 24 06:21, status motion
Sat Oct 24 06:16, status motion
Sat Oct 24 06:14, status motion
Sat Oct 24 05:10, no_motion 30m
Sat Oct 24 05:00, no_motion 20m
Sat Oct 24 04:50, no_motion 10m
Sat Oct 24 04:40, status motion
Sat Oct 24 04:39, status motion
Fri Oct 23 23:56, no_motion 30m
Fri Oct 23 23:46, no_motion 20m
Fri Oct 23 23:36, no_motion 10m
Fri Oct 23 23:26, status motion
Fri Oct 23 23:23, status motion
Fri Oct 23 22:13, no_motion 30m
Fri Oct 23 22:03, no_motion 20m
Fri Oct 23 21:53, no_motion 10m
Fri Oct 23 21:43, status motion
Fri Oct 23 21:32, no_motion 30m
Fri Oct 23 21:22, no_motion 20m
Fri Oct 23 21:12, no_motion 10m
Fri Oct 23 21:02, status motion
Fri Oct 23 21:00, status motion
Fri Oct 23 20:29, no_motion 30m
Fri Oct 23 20:20, no_motion 20m
Fri Oct 23 20:10, no_motion 10m
Fri Oct 23 20:00, status motion
Fri Oct 23 19:51, no_motion 10m
Fri Oct 23 19:41, status motion
Fri Oct 23 19:40, status motion
Fri Oct 23 19:36, no_motion 30m
Fri Oct 23 19:26, no_motion 20m
Fri Oct 23 19:17, no_motion 10m
Fri Oct 23 19:07, status motion
Fri Oct 23 19:04, status motion
Fri Oct 23 19:02, status motion
Fri Oct 23 18:54, no_motion 20m
Fri Oct 23 18:44, no_motion 10m
Fri Oct 23 18:34, status motion
Fri Oct 23 18:24, status motion
Fri Oct 23 18:21, no_motion 10m
Fri Oct 23 18:12, status motion
Fri Oct 23 18:09, status motion
Fri Oct 23 18:09, no_motion 10m
Fri Oct 23 17:59, status motion
Fri Oct 23 17:44, no_motion 30m
Fri Oct 23 17:34, no_motion 20m
Fri Oct 23 17:24, no_motion 10m
Fri Oct 23 17:14, status motion
Fri Oct 23 13:57, no_motion 30m
Fri Oct 23 13:47, no_motion 20m
Fri Oct 23 13:37, no_motion 10m
Fri Oct 23 13:27, status motion
Fri Oct 23 13:24, status motion
Fri Oct 23 13:23, status motion
Fri Oct 23 13:21, status motion
Fri Oct 23 12:27, no_motion 30m
Fri Oct 23 12:17, no_motion 20m
Fri Oct 23 12:07, no_motion 10m
Fri Oct 23 11:57, status motion
Fri Oct 23 11:15, no_motion 30m
Fri Oct 23 11:05, no_motion 20m
Fri Oct 23 10:55, no_motion 10m
Fri Oct 23 10:45, status motion
Fri Oct 23 10:44, status motion
Fri Oct 23 10:04, no_motion 30m
Fri Oct 23 09:54, no_motion 20m
Fri Oct 23 09:44, no_motion 10m
Fri Oct 23 09:34, status motion
Fri Oct 23 09:02, no_motion 30m
Fri Oct 23 08:52, no_motion 20m
Fri Oct 23 08:42, no_motion 10m
Fri Oct 23 08:32, status motion
Fri Oct 23 08:28, status motion
Fri Oct 23 08:22, status motion
Fri Oct 23 08:15, status motion
Fri Oct 23 08:11, status motion
Fri Oct 23 08:04, status motion
Fri Oct 23 07:58, status motion
Fri Oct 23 07:51, status motion
Fri Oct 23 07:50, status motion
Fri Oct 23 07:49, status motion
Fri Oct 23 07:47, status motion
Fri Oct 23 07:42, status motion
Fri Oct 23 07:39, status motion
Fri Oct 23 07:35, status motion
Fri Oct 23 07:34, no_motion 20m
Fri Oct 23 07:24, no_motion 10m
Fri Oct 23 07:14, status motion
Fri Oct 23 07:13, status motion
Fri Oct 23 07:11, no_motion 20m
Fri Oct 23 07:01, no_motion 10m
Fri Oct 23 06:51, status motion
Fri Oct 23 06:44, status motion
Fri Oct 23 06:07, no_motion 30m

s5 Liv-Room PiR
Wed Oct 28 11:06, status motion

Wed Oct 28 11:06, status motion
Wed Oct 28 11:03, status motion
Wed Oct 28 11:00, status motion
Wed Oct 28 10:58, status motion
Wed Oct 28 10:57, status motion
Wed Oct 28 10:56, status motion
Wed Oct 28 10:54, status motion
Wed Oct 28 10:53, status motion
Wed Oct 28 10:52, status motion
Wed Oct 28 10:51, status motion
Wed Oct 28 10:50, status motion
Wed Oct 28 10:49, status motion
Wed Oct 28 10:48, status motion
Wed Oct 28 10:47, status motion
Wed Oct 28 10:46, status motion
Wed Oct 28 10:45, status motion
Wed Oct 28 10:44, status motion
Wed Oct 28 10:43, status motion
Wed Oct 28 10:41, status motion
Wed Oct 28 10:39, status motion
Wed Oct 28 10:38, status motion
Wed Oct 28 10:37, status motion
Wed Oct 28 10:36, status motion
Wed Oct 28 10:35, status motion
Wed Oct 28 10:31, status motion
Wed Oct 28 10:29, status motion
Wed Oct 28 10:28, status motion
Wed Oct 28 10:27, status motion
Wed Oct 28 10:26, status motion
Wed Oct 28 10:20, no_motion 10m
Wed Oct 28 10:10, status motion
Wed Oct 28 10:06, status motion
Wed Oct 28 10:01, status motion
Wed Oct 28 10:00, status motion
Wed Oct 28 09:59, no_motion 10m
Wed Oct 28 09:49, status motion
Wed Oct 28 09:46, status motion
Wed Oct 28 09:28, no_motion 30m
Wed Oct 28 09:18, no_motion 20m
Wed Oct 28 09:08, no_motion 10m
Wed Oct 28 08:58, status motion
Wed Oct 28 08:56, status motion
Wed Oct 28 08:54, status motion
Wed Oct 28 08:53, status motion
Wed Oct 28 08:53, no_motion 10m
Wed Oct 28 08:43, status motion
Wed Oct 28 08:22, no_motion 30m
Wed Oct 28 08:12, no_motion 20m
Wed Oct 28 08:02, no_motion 10m
Wed Oct 28 07:52, status motion
Wed Oct 28 07:49, status motion
Wed Oct 28 07:33, no_motion 30m
Wed Oct 28 07:23, no_motion 20m
Wed Oct 28 07:13, no_motion 10m
Wed Oct 28 07:03, status motion
Wed Oct 28 06:16, no_motion 30m
Wed Oct 28 06:06, no_motion 20m
Wed Oct 28 05:56, no_motion 10m
Wed Oct 28 05:46, status motion
Tue Oct 27 22:38, no_motion 30m
Tue Oct 27 22:28, no_motion 20m
Tue Oct 27 22:18, no_motion 10m
Tue Oct 27 22:08, status motion
Tue Oct 27 22:02, status motion
Tue Oct 27 22:00, status motion
Tue Oct 27 21:52, no_motion 20m
Tue Oct 27 21:42, no_motion 10m
Tue Oct 27 21:32, status motion
Tue Oct 27 21:25, status motion
Tue Oct 27 21:24, status motion
Tue Oct 27 21:23, status motion
Tue Oct 27 21:19, status motion
Tue Oct 27 21:15, status motion
Tue Oct 27 21:13, status motion
Tue Oct 27 21:09, status motion
Tue Oct 27 21:06, status motion
Tue Oct 27 21:05, status motion
Tue Oct 27 21:03, status motion
Tue Oct 27 21:00, status motion
Tue Oct 27 20:59, status motion
Tue Oct 27 20:57, status motion
Tue Oct 27 20:56, status motion
Tue Oct 27 20:54, status motion
Tue Oct 27 20:53, status motion
Tue Oct 27 20:52, status motion
Tue Oct 27 20:50, status motion
Tue Oct 27 20:49, status motion
Tue Oct 27 20:45, status motion
Tue Oct 27 20:44, status motion
Tue Oct 27 20:43, status motion
Tue Oct 27 20:42, status motion
Tue Oct 27 20:40, status motion
Tue Oct 27 20:39, status motion
Tue Oct 27 20:38, status motion
Tue Oct 27 20:37, status motion
Tue Oct 27 20:36, status motion
Tue Oct 27 20:32, status motion
Tue Oct 27 20:29, status motion
Tue Oct 27 20:27, status motion
Tue Oct 27 20:25, status motion
Tue Oct 27 20:24, status motion
Tue Oct 27 20:23, status motion
Tue Oct 27 20:22, status motion
Tue Oct 27 20:20, status motion
Tue Oct 27 20:18, status motion
Tue Oct 27 20:17, status motion
Tue Oct 27 20:16, status motion
Tue Oct 27 20:15, status motion
Tue Oct 27 20:13, status motion
Tue Oct 27 20:11, status motion
Tue Oct 27 20:10, status motion
Tue Oct 27 20:09, status motion
Tue Oct 27 20:03, status motion
Tue Oct 27 20:01, status motion
Tue Oct 27 20:00, status motion
Tue Oct 27 20:00, no_motion 10m
Tue Oct 27 19:50, status motion
Tue Oct 27 19:48, status motion
Tue Oct 27 19:46, status motion
Tue Oct 27 19:43, status motion
Tue Oct 27 19:41, status motion
Tue Oct 27 19:40, status motion
Tue Oct 27 19:38, status motion
Tue Oct 27 19:37, status motion
Tue Oct 27 19:36, status motion
Tue Oct 27 19:31, status motion
Tue Oct 27 19:30, status motion
Tue Oct 27 19:28, status motion
Tue Oct 27 19:25, status motion
Tue Oct 27 19:24, status motion
Tue Oct 27 19:23, status motion
Tue Oct 27 19:22, status motion
Tue Oct 27 19:15, status motion
Tue Oct 27 19:14, status motion
Tue Oct 27 19:13, status motion
Tue Oct 27 19:11, status motion
Tue Oct 27 19:10, status motion
Tue Oct 27 19:07, status motion
Tue Oct 27 19:04, status motion
Tue Oct 27 19:02, status motion
Tue Oct 27 18:57, status motion
Tue Oct 27 18:56, status motion
Tue Oct 27 18:54, status motion
Tue Oct 27 18:50, status motion
Tue Oct 27 18:49, status motion
Tue Oct 27 18:47, status motion
Tue Oct 27 18:46, status motion
Tue Oct 27 18:45, status motion
Tue Oct 27 18:43, status motion
Tue Oct 27 18:42, status motion
Tue Oct 27 18:41, status motion
Tue Oct 27 18:40, status motion
Tue Oct 27 18:38, status motion
Tue Oct 27 18:37, status motion
Tue Oct 27 18:36, status motion
Tue Oct 27 18:35, status motion
Tue Oct 27 18:33, status motion
Tue Oct 27 18:32, status motion
Tue Oct 27 18:30, status motion
Tue Oct 27 18:28, status motion
Tue Oct 27 18:27, status motion
Tue Oct 27 18:25, status motion
Tue Oct 27 18:22, status motion
Tue Oct 27 18:21, status motion
Tue Oct 27 18:20, status motion
Tue Oct 27 18:14, status motion
Tue Oct 27 18:13, status motion
Tue Oct 27 18:06, status motion
Tue Oct 27 18:01, status motion
Tue Oct 27 17:58, status motion
Tue Oct 27 17:54, status motion
Tue Oct 27 17:51, status motion
Tue Oct 27 17:48, status motion
Tue Oct 27 17:47, status motion
Tue Oct 27 17:40, status motion
Tue Oct 27 17:37, status motion
Tue Oct 27 17:34, status motion
Tue Oct 27 17:33, status motion
Tue Oct 27 17:31, status motion
Tue Oct 27 17:30, status motion
Tue Oct 27 17:28, status motion
Tue Oct 27 17:27, status motion
Tue Oct 27 17:25, status motion
Tue Oct 27 17:24, status motion
Tue Oct 27 17:20, status motion
Tue Oct 27 17:19, status motion
Tue Oct 27 17:18, status motion
Tue Oct 27 17:16, status motion
Tue Oct 27 17:14, status motion
Tue Oct 27 17:11, status motion
Tue Oct 27 17:10, status motion
Tue Oct 27 17:09, status motion
Tue Oct 27 17:06, no_motion 10m
Tue Oct 27 16:57, status motion
Tue Oct 27 16:54, status motion
Tue Oct 27 16:53, status motion
Tue Oct 27 16:51, status motion
Tue Oct 27 16:50, status motion
Tue Oct 27 16:49, status motion
Tue Oct 27 16:48, status motion
Tue Oct 27 16:47, status motion
Tue Oct 27 16:45, status motion
Tue Oct 27 16:44, status motion
Tue Oct 27 16:43, status motion
Tue Oct 27 16:41, status motion
Tue Oct 27 16:40, status motion
Tue Oct 27 16:39, status motion
Tue Oct 27 16:32, status motion
Tue Oct 27 16:30, status motion
Tue Oct 27 16:25, status motion
Tue Oct 27 16:24, status motion
Tue Oct 27 16:14, status motion
Tue Oct 27 16:13, status motion
Tue Oct 27 16:12, status motion
Tue Oct 27 16:10, status motion
Tue Oct 27 16:09, status motion
Tue Oct 27 16:08, status motion
Tue Oct 27 16:04, status motion
Tue Oct 27 16:02, status motion
Tue Oct 27 16:00, status motion
Tue Oct 27 15:57, status motion
Tue Oct 27 15:55, status motion
Tue Oct 27 15:52, status motion
Tue Oct 27 15:51, status motion
Tue Oct 27 15:49, status motion
Tue Oct 27 15:48, status motion
Tue Oct 27 15:46, status motion
Tue Oct 27 15:45, status motion
Tue Oct 27 15:44, status motion
Tue Oct 27 15:42, status motion
Tue Oct 27 15:40, status motion
Tue Oct 27 15:39, status motion
Tue Oct 27 15:38, status motion
Tue Oct 27 15:36, status motion
Tue Oct 27 15:34, status motion
Tue Oct 27 15:33, status motion
Tue Oct 27 15:32, status motion
Tue Oct 27 15:27, status motion
Tue Oct 27 15:26, status motion
Tue Oct 27 15:22, status motion
Tue Oct 27 15:20, status motion
Tue Oct 27 15:18, status motion
Tue Oct 27 15:16, status motion
Tue Oct 27 15:13, status motion
Tue Oct 27 15:05, status motion
Tue Oct 27 15:04, status motion
Tue Oct 27 15:03, status motion
Tue Oct 27 15:02, status motion
Tue Oct 27 14:56, status motion
Tue Oct 27 14:55, status motion
Tue Oct 27 14:53, status motion
Tue Oct 27 14:52, status motion
Tue Oct 27 14:51, status motion
Tue Oct 27 14:46, status motion
Tue Oct 27 14:38, status motion
Tue Oct 27 14:37, no_motion 10m
Tue Oct 27 14:27, status motion
Tue Oct 27 14:26, status motion
Tue Oct 27 14:25, status motion
Tue Oct 27 14:24, status motion
Tue Oct 27 14:22, status motion
Tue Oct 27 14:21, status motion
Tue Oct 27 14:20, status motion
Tue Oct 27 14:16, status motion
Tue Oct 27 14:12, status motion
Tue Oct 27 14:10, status motion
Tue Oct 27 14:09, status motion
Tue Oct 27 14:08, status motion
Tue Oct 27 14:05, status motion
Tue Oct 27 14:02, status motion
Tue Oct 27 14:00, no_motion 10m
Tue Oct 27 13:50, status motion
Tue Oct 27 13:46, status motion
Tue Oct 27 13:37, status motion
Tue Oct 27 13:31, status motion
Tue Oct 27 13:22, no_motion 20m
Tue Oct 27 13:12, no_motion 10m
Tue Oct 27 13:02, status motion
Tue Oct 27 12:58, status motion
Tue Oct 27 12:57, status motion
Tue Oct 27 12:47, status motion
Tue Oct 27 12:40, no_motion 10m
Tue Oct 27 12:30, status motion
Tue Oct 27 12:28, no_motion 10m
Tue Oct 27 12:18, status motion
Tue Oct 27 12:12, status motion
Tue Oct 27 12:11, status motion
Tue Oct 27 12:03, status motion
Tue Oct 27 08:41, no_motion 30m
Tue Oct 27 08:31, no_motion 20m
Tue Oct 27 08:21, no_motion 10m
Tue Oct 27 08:11, status motion
Tue Oct 27 08:07, status motion
Tue Oct 27 08:06, status motion
Tue Oct 27 08:05, no_motion 10m
Tue Oct 27 07:55, status motion
Tue Oct 27 07:50, no_motion 20m
Tue Oct 27 07:40, no_motion 10m
Tue Oct 27 07:30, status motion
Tue Oct 27 07:25, status motion
Tue Oct 27 07:24, status motion
Tue Oct 27 07:23, no_motion 20m
Tue Oct 27 07:13, no_motion 10m
Tue Oct 27 07:03, status motion
Tue Oct 27 07:01, status motion
Mon Oct 26 15:03, status motion
Mon Oct 26 15:02, no_motion 30m
Mon Oct 26 14:42, no_motion 10m
Mon Oct 26 14:32, status motion
Mon Oct 26 14:24, no_motion 20m
Mon Oct 26 14:14, no_motion 10m
Mon Oct 26 14:04, status motion
Mon Oct 26 13:56, no_motion 20m
Mon Oct 26 13:46, no_motion 10m
Mon Oct 26 13:36, status motion
Mon Oct 26 13:14, no_motion 30m
Mon Oct 26 13:04, no_motion 20m
Mon Oct 26 12:54, no_motion 10m
Mon Oct 26 12:44, status motion
Mon Oct 26 12:35, status motion
Mon Oct 26 12:31, status motion
Mon Oct 26 12:25, status motion
Mon Oct 26 12:23, status motion
Mon Oct 26 12:22, status motion
Mon Oct 26 12:21, status motion
Mon Oct 26 12:20, status motion
Mon Oct 26 12:15, status motion
Mon Oct 26 12:13, status motion
Mon Oct 26 12:12, status motion
Mon Oct 26 12:04, status motion
Mon Oct 26 12:01, no_motion 30m
Mon Oct 26 11:51, no_motion 20m
Mon Oct 26 11:41, no_motion 10m
Mon Oct 26 11:31, status motion
Mon Oct 26 10:49, no_motion 30m
Mon Oct 26 10:39, no_motion 20m
Mon Oct 26 10:29, no_motion 10m
Mon Oct 26 10:19, status motion
Mon Oct 26 10:13, status motion
Mon Oct 26 09:24, no_motion 30m
Mon Oct 26 09:14, no_motion 20m
Mon Oct 26 09:04, no_motion 10m
Mon Oct 26 08:54, status motion
Mon Oct 26 08:50, no_motion 20m
Mon Oct 26 08:40, no_motion 10m
Mon Oct 26 08:31, status motion
Mon Oct 26 08:30, no_motion 10m
Mon Oct 26 08:20, status motion
Mon Oct 26 08:16, no_motion 10m
Mon Oct 26 08:06, status motion
Mon Oct 26 08:02, no_motion 10m
Mon Oct 26 07:52, status motion
Mon Oct 26 07:47, no_motion 10m
Mon Oct 26 07:37, status motion
Sun Oct 25 21:51, no_motion 30m
Sun Oct 25 21:41, no_motion 20m
Sun Oct 25 21:31, no_motion 10m
Sun Oct 25 21:21, status motion
Sun Oct 25 21:19, status motion
Sun Oct 25 21:18, status motion
Sun Oct 25 21:16, status motion
Sun Oct 25 21:16, no_motion 10m
Sun Oct 25 21:06, status motion
Sun Oct 25 21:04, status motion
Sun Oct 25 21:02, status motion
Sun Oct 25 21:01, status motion
Sun Oct 25 20:58, status motion
Sun Oct 25 20:57, status motion
Sun Oct 25 20:56, status motion
Sun Oct 25 20:54, status motion
Sun Oct 25 20:52, status motion
Sun Oct 25 20:51, status motion
Sun Oct 25 20:50, status motion
Sun Oct 25 20:48, status motion
Sun Oct 25 20:45, status motion
Sun Oct 25 20:42, status motion
Sun Oct 25 20:40, status motion
Sun Oct 25 20:39, status motion
Sun Oct 25 20:38, status motion
Sun Oct 25 20:36, status motion
Sun Oct 25 20:35, status motion
Sun Oct 25 20:34, status motion
Sun Oct 25 20:32, status motion
Sun Oct 25 20:30, status motion
Sun Oct 25 20:28, status motion
Sun Oct 25 20:27, status motion
Sun Oct 25 20:26, status motion
Sun Oct 25 20:25, status motion
Sun Oct 25 20:24, status motion
Sun Oct 25 20:22, status motion
Sun Oct 25 20:21, status motion
Sun Oct 25 20:19, status motion
Sun Oct 25 20:18, status motion
Sun Oct 25 20:14, status motion
Sun Oct 25 20:13, status motion
Sun Oct 25 20:10, status motion
Sun Oct 25 20:08, status motion
Sun Oct 25 20:07, status motion
Sun Oct 25 20:06, status motion
Sun Oct 25 20:05, status motion
Sun Oct 25 20:03, status motion
Sun Oct 25 20:02, status motion
Sun Oct 25 19:58, status motion
Sun Oct 25 19:57, status motion
Sun Oct 25 19:54, status motion
Sun Oct 25 19:52, status motion
Sun Oct 25 19:51, status motion
Sun Oct 25 19:49, status motion
Sun Oct 25 19:45, status motion
Sun Oct 25 19:44, status motion
Sun Oct 25 19:42, status motion
Sun Oct 25 19:41, status motion
Sun Oct 25 19:39, status motion
Sun Oct 25 19:36, status motion
Sun Oct 25 19:35, status motion
Sun Oct 25 19:33, status motion
Sun Oct 25 19:32, status motion
Sun Oct 25 19:31, status motion
Sun Oct 25 19:29, status motion
Sun Oct 25 19:27, status motion
Sun Oct 25 19:24, status motion
Sun Oct 25 19:21, status motion
Sun Oct 25 19:19, status motion
Sun Oct 25 19:18, status motion
Sun Oct 25 19:16, status motion
Sun Oct 25 19:14, status motion
Sun Oct 25 19:12, status motion
Sun Oct 25 19:08, status motion
Sun Oct 25 19:03, status motion
Sun Oct 25 19:00, status motion
Sun Oct 25 18:56, status motion
Sun Oct 25 18:55, status motion
Sun Oct 25 18:51, no_motion 10m
Sun Oct 25 18:41, status motion
Sun Oct 25 18:39, status motion
Sun Oct 25 18:31, status motion
Sun Oct 25 18:24, status motion
Sun Oct 25 18:19, status motion
Sun Oct 25 18:12, status motion
Sun Oct 25 18:06, status motion
Sun Oct 25 18:03, status motion
Sun Oct 25 18:02, no_motion 10m
Sun Oct 25 17:52, status motion
Sun Oct 25 17:51, status motion
Sun Oct 25 17:43, status motion
Sun Oct 25 17:42, status motion
Sun Oct 25 17:38, status motion
Sun Oct 25 17:37, status motion
Sun Oct 25 17:35, status motion
Sun Oct 25 17:34, status motion
Sun Oct 25 17:32, status motion
Sun Oct 25 17:31, status motion
Sun Oct 25 17:30, status motion
Sun Oct 25 17:23, status motion
Sun Oct 25 17:15, no_motion 20m
Sun Oct 25 17:05, no_motion 10m
Sun Oct 25 16:55, status motion
Sun Oct 25 16:53, status motion
Sun Oct 25 16:48, status motion
Sun Oct 25 16:47, status motion
Sun Oct 25 16:46, status motion
Sun Oct 25 16:44, status motion
Sun Oct 25 16:43, status motion
Sun Oct 25 16:40, status motion
Sun Oct 25 16:39, status motion
Sun Oct 25 16:33, status motion
Sun Oct 25 16:32, status motion
Sun Oct 25 16:31, status motion
Sun Oct 25 16:23, no_motion 10m
Sun Oct 25 16:13, status motion
Sun Oct 25 16:08, status motion
Sun Oct 25 16:04, no_motion 10m
Sun Oct 25 15:54, status motion
Sun Oct 25 15:53, status motion
Sun Oct 25 15:50, status motion
Sun Oct 25 15:48, status motion
Sun Oct 25 15:47, status motion
Sun Oct 25 15:46, status motion
Sun Oct 25 15:39, status motion
Sun Oct 25 15:34, no_motion 10m
Sun Oct 25 15:24, status motion
Sun Oct 25 15:23, status motion
Sun Oct 25 15:15, status motion
Sun Oct 25 15:13, status motion
Sun Oct 25 15:12, status motion
Sun Oct 25 15:10, status motion
Sun Oct 25 15:08, status motion
Sun Oct 25 15:07, no_motion 10m
Sun Oct 25 14:57, status motion
Sun Oct 25 14:49, status motion
Sun Oct 25 14:47, status motion
Sun Oct 25 14:41, status motion
Sun Oct 25 14:40, status motion
Sun Oct 25 14:39, status motion
Sun Oct 25 14:38, status motion
Sun Oct 25 14:37, status motion
Sun Oct 25 14:35, status motion
Sun Oct 25 14:33, status motion
Sun Oct 25 14:32, status motion
Sun Oct 25 14:31, status motion
Sun Oct 25 14:29, status motion
Sun Oct 25 14:26, status motion
Sun Oct 25 14:19, status motion
Sun Oct 25 14:18, status motion
Sun Oct 25 14:08, status motion
Sun Oct 25 14:03, status motion
Sun Oct 25 14:02, status motion
Sun Oct 25 14:00, status motion
Sun Oct 25 13:57, status motion
Sun Oct 25 13:53, no_motion 20m
Sun Oct 25 13:43, no_motion 10m
Sun Oct 25 13:33, status motion
Sun Oct 25 13:28, status motion
Sun Oct 25 13:22, no_motion 10m
Sun Oct 25 13:12, status motion
Sun Oct 25 12:59, no_motion 30m
Sun Oct 25 12:49, no_motion 20m
Sun Oct 25 12:39, no_motion 10m
Sun Oct 25 12:29, status motion
Sun Oct 25 09:29, no_motion 30m
Sun Oct 25 09:19, no_motion 20m
Sun Oct 25 09:09, no_motion 10m
Sun Oct 25 08:59, status motion
Sun Oct 25 08:57, status motion
Sun Oct 25 08:56, status motion
Sun Oct 25 08:50, status motion
Sun Oct 25 08:48, status motion
Sun Oct 25 08:40, status motion
Sun Oct 25 08:39, status motion
Sun Oct 25 08:37, status motion
Sun Oct 25 08:30, status motion
Sun Oct 25 08:27, no_motion 30m
Sun Oct 25 08:17, no_motion 20m
Sun Oct 25 08:07, no_motion 10m
Sun Oct 25 07:57, status motion
Sun Oct 25 06:38, no_motion 30m
Sun Oct 25 06:28, no_motion 20m
Sun Oct 25 06:18, no_motion 10m
Sun Oct 25 06:08, status motion
Sun Oct 25 06:07, status motion
Sun Oct 25 06:05, status motion
Sun Oct 25 00:28, no_motion 30m
Sun Oct 25 00:19, no_motion 20m
Sun Oct 25 00:09, no_motion 10m
Sat Oct 24 23:59, status motion
Sat Oct 24 23:54, status motion
Sat Oct 24 23:07, no_motion 30m
Sat Oct 24 22:57, no_motion 20m
Sat Oct 24 22:47, no_motion 10m
Sat Oct 24 22:37, status motion
Sat Oct 24 22:34, status motion
Sat Oct 24 22:33, status motion
Sat Oct 24 22:32, no_motion 10m
Sat Oct 24 22:22, status motion
Sat Oct 24 22:20, status motion
Sat Oct 24 22:19, status motion
Sat Oct 24 22:14, status motion
Sat Oct 24 22:08, status motion
Sat Oct 24 22:07, no_motion 10m

s6 Kitchen PiR
Wed Oct 28 10:59, status motion

Wed Oct 28 10:59, status motion
Wed Oct 28 10:49, status motion
Wed Oct 28 10:43, status motion
Wed Oct 28 10:41, status motion
Wed Oct 28 10:40, status motion
Wed Oct 28 10:39, status motion
Wed Oct 28 10:31, status motion
Wed Oct 28 10:25, status motion
Wed Oct 28 10:24, status motion
Wed Oct 28 10:15, no_motion 10m
Wed Oct 28 10:05, status motion
Wed Oct 28 10:04, status motion
Wed Oct 28 10:03, status motion
Wed Oct 28 09:59, status motion
Wed Oct 28 09:53, status motion
Wed Oct 28 09:52, status motion
Wed Oct 28 09:51, status motion
Wed Oct 28 09:49, status motion
Wed Oct 28 09:45, status motion
Wed Oct 28 09:44, status motion
Wed Oct 28 09:43, status motion
Wed Oct 28 09:42, status motion
Wed Oct 28 09:41, status motion
Wed Oct 28 09:40, status motion
Wed Oct 28 09:39, status motion
Wed Oct 28 09:38, status motion
Wed Oct 28 09:34, status motion
Wed Oct 28 09:33, status motion
Wed Oct 28 09:31, status motion
Wed Oct 28 09:30, status motion
Wed Oct 28 09:29, status motion
Wed Oct 28 09:28, status motion
Wed Oct 28 09:27, status motion
Wed Oct 28 09:26, status motion
Wed Oct 28 09:25, status motion
Wed Oct 28 09:24, status motion
Wed Oct 28 09:23, status motion
Wed Oct 28 09:22, status motion
Wed Oct 28 09:21, status motion
Wed Oct 28 09:20, status motion
Wed Oct 28 09:19, status motion
Wed Oct 28 09:18, status motion
Wed Oct 28 09:17, status motion
Wed Oct 28 09:16, status motion
Wed Oct 28 09:15, status motion
Wed Oct 28 09:14, status motion
Wed Oct 28 09:12, status motion
Wed Oct 28 09:11, status motion
Wed Oct 28 09:06, status motion
Wed Oct 28 09:00, status motion
Wed Oct 28 08:59, status motion
Wed Oct 28 08:58, status motion
Wed Oct 28 08:57, status motion
Wed Oct 28 08:56, status motion
Wed Oct 28 08:55, status motion
Wed Oct 28 08:53, status motion
Wed Oct 28 08:52, status motion
Wed Oct 28 08:50, status motion
Wed Oct 28 08:45, status motion
Wed Oct 28 08:44, status motion
Wed Oct 28 08:43, status motion
Wed Oct 28 08:35, no_motion 10m
Wed Oct 28 08:25, status motion
Wed Oct 28 08:23, status motion
Wed Oct 28 08:22, status motion
Wed Oct 28 08:21, status motion
Wed Oct 28 08:20, status motion
Wed Oct 28 08:19, status motion
Wed Oct 28 08:18, status motion
Wed Oct 28 08:13, status motion
Wed Oct 28 08:11, status motion
Wed Oct 28 08:10, status motion
Wed Oct 28 08:07, status motion
Wed Oct 28 08:05, status motion
Wed Oct 28 08:04, status motion
Wed Oct 28 08:03, status motion
Wed Oct 28 08:02, no_motion 10m
Wed Oct 28 07:52, status motion
Wed Oct 28 07:51, status motion
Wed Oct 28 07:50, status motion
Wed Oct 28 07:49, status motion
Wed Oct 28 07:48, status motion
Wed Oct 28 07:47, status motion
Wed Oct 28 07:46, status motion
Wed Oct 28 07:43, no_motion 10m
Wed Oct 28 07:33, status motion
Wed Oct 28 07:32, status motion
Wed Oct 28 07:31, status motion
Wed Oct 28 07:30, status motion
Wed Oct 28 07:24, no_motion 20m
Wed Oct 28 07:14, no_motion 10m
Wed Oct 28 07:04, status motion
Wed Oct 28 07:03, status motion
Wed Oct 28 07:01, status motion
Wed Oct 28 07:00, status motion
Wed Oct 28 06:59, status motion
Wed Oct 28 06:58, status motion
Wed Oct 28 06:57, status motion
Wed Oct 28 06:56, status motion
Wed Oct 28 06:25, no_motion 30m
Wed Oct 28 06:15, no_motion 20m
Wed Oct 28 06:05, no_motion 10m
Wed Oct 28 05:55, status motion
Wed Oct 28 05:54, status motion
Wed Oct 28 05:50, status motion
Wed Oct 28 05:49, status motion
Wed Oct 28 05:48, status motion
Wed Oct 28 05:47, status motion
Wed Oct 28 05:45, status motion
Wed Oct 28 05:41, status motion
Tue Oct 27 22:38, no_motion 30m
Tue Oct 27 22:28, no_motion 20m
Tue Oct 27 22:18, no_motion 10m
Tue Oct 27 22:08, status motion
Tue Oct 27 22:07, status motion
Tue Oct 27 22:05, status motion
Tue Oct 27 22:04, status motion
Tue Oct 27 22:03, status motion
Tue Oct 27 22:02, status motion
Tue Oct 27 21:53, no_motion 20m
Tue Oct 27 21:43, no_motion 10m
Tue Oct 27 21:33, status motion
Tue Oct 27 21:07, no_motion 30m
Tue Oct 27 20:57, no_motion 20m
Tue Oct 27 20:47, no_motion 10m
Tue Oct 27 20:37, status motion
Tue Oct 27 20:32, no_motion 10m
Tue Oct 27 20:22, status motion
Tue Oct 27 20:21, status motion
Tue Oct 27 20:20, status motion
Tue Oct 27 20:17, status motion
Tue Oct 27 20:16, status motion
Tue Oct 27 20:11, status motion
Tue Oct 27 20:09, status motion
Tue Oct 27 20:01, no_motion 20m
Tue Oct 27 19:51, no_motion 10m
Tue Oct 27 19:41, status motion
Tue Oct 27 19:40, status motion
Tue Oct 27 19:39, status motion
Tue Oct 27 19:36, status motion
Tue Oct 27 19:35, status motion
Tue Oct 27 19:27, status motion
Tue Oct 27 19:26, status motion
Tue Oct 27 19:24, status motion
Tue Oct 27 19:20, no_motion 20m
Tue Oct 27 19:10, no_motion 10m
Tue Oct 27 19:00, status motion
Tue Oct 27 19:00, no_motion 30m
Tue Oct 27 18:50, no_motion 20m
Tue Oct 27 18:40, no_motion 10m
Tue Oct 27 18:30, status motion
Tue Oct 27 18:28, status motion
Tue Oct 27 18:25, status motion
Tue Oct 27 18:24, status motion
Tue Oct 27 18:23, status motion
Tue Oct 27 18:22, status motion
Tue Oct 27 18:20, status motion
Tue Oct 27 18:18, status motion
Tue Oct 27 18:17, status motion
Tue Oct 27 18:16, status motion
Tue Oct 27 18:15, status motion
Tue Oct 27 18:14, status motion
Tue Oct 27 18:12, status motion
Tue Oct 27 18:11, status motion
Tue Oct 27 18:10, status motion
Tue Oct 27 18:09, status motion
Tue Oct 27 18:08, status motion
Tue Oct 27 18:07, status motion
Tue Oct 27 18:06, status motion
Tue Oct 27 18:05, status motion
Tue Oct 27 18:04, status motion
Tue Oct 27 18:03, status motion
Tue Oct 27 18:02, status motion
Tue Oct 27 18:01, status motion
Tue Oct 27 18:00, status motion
Tue Oct 27 17:59, status motion
Tue Oct 27 17:58, status motion
Tue Oct 27 17:54, status motion
Tue Oct 27 17:48, status motion
Tue Oct 27 17:47, status motion
Tue Oct 27 17:46, status motion
Tue Oct 27 17:45, status motion
Tue Oct 27 17:42, no_motion 10m
Tue Oct 27 17:32, status motion
Tue Oct 27 17:30, status motion
Tue Oct 27 17:27, status motion
Tue Oct 27 17:23, status motion
Tue Oct 27 17:22, status motion
Tue Oct 27 17:21, status motion
Tue Oct 27 17:12, no_motion 20m
Tue Oct 27 17:02, no_motion 10m
Tue Oct 27 16:52, status motion
Tue Oct 27 16:51, status motion
Tue Oct 27 16:49, status motion
Tue Oct 27 16:48, status motion
Tue Oct 27 16:47, status motion
Tue Oct 27 16:45, status motion
Tue Oct 27 16:44, status motion
Tue Oct 27 16:42, status motion
Tue Oct 27 16:39, status motion
Tue Oct 27 16:34, no_motion 10m
Tue Oct 27 16:24, status motion
Tue Oct 27 16:23, status motion
Tue Oct 27 16:21, status motion
Tue Oct 27 16:20, status motion
Tue Oct 27 16:12, no_motion 10m
Tue Oct 27 16:02, status motion
Tue Oct 27 16:00, status motion
Tue Oct 27 15:37, no_motion 30m
Tue Oct 27 15:27, no_motion 20m
Tue Oct 27 15:17, no_motion 10m
Tue Oct 27 15:07, status motion
Tue Oct 27 15:06, status motion
Tue Oct 27 15:03, status motion
Tue Oct 27 15:02, status motion
Tue Oct 27 15:01, status motion
Tue Oct 27 15:00, status motion
Tue Oct 27 14:59, status motion
Tue Oct 27 14:58, status motion
Tue Oct 27 14:57, status motion
Tue Oct 27 14:56, status motion
Tue Oct 27 14:55, status motion
Tue Oct 27 14:54, status motion
Tue Oct 27 14:50, no_motion 30m
Tue Oct 27 14:40, no_motion 20m
Tue Oct 27 14:30, no_motion 10m
Tue Oct 27 14:20, status motion
Tue Oct 27 14:19, status motion
Tue Oct 27 14:17, status motion
Tue Oct 27 14:11, status motion
Tue Oct 27 14:08, status motion
Tue Oct 27 14:06, status motion
Tue Oct 27 13:59, no_motion 10m
Tue Oct 27 13:49, status motion
Tue Oct 27 13:45, status motion
Tue Oct 27 13:44, status motion
Tue Oct 27 13:35, status motion
Tue Oct 27 13:32, status motion
Tue Oct 27 13:27, no_motion 10m
Tue Oct 27 13:17, status motion
Tue Oct 27 13:13, status motion
Tue Oct 27 13:05, status motion
Tue Oct 27 13:04, status motion
Tue Oct 27 13:02, status motion
Tue Oct 27 12:57, status motion
Tue Oct 27 12:56, status motion
Tue Oct 27 12:55, status motion
Tue Oct 27 12:53, status motion
Tue Oct 27 12:52, status motion
Tue Oct 27 12:51, status motion
Tue Oct 27 12:50, status motion
Tue Oct 27 12:49, status motion
Tue Oct 27 12:48, status motion
Tue Oct 27 12:47, status motion
Tue Oct 27 12:46, status motion
Tue Oct 27 12:45, status motion
Tue Oct 27 12:44, status motion
Tue Oct 27 12:42, status motion
Tue Oct 27 12:41, status motion
Tue Oct 27 12:40, status motion
Tue Oct 27 12:39, status motion
Tue Oct 27 12:38, status motion
Tue Oct 27 12:37, status motion
Tue Oct 27 12:30, status motion
Tue Oct 27 12:29, status motion
Tue Oct 27 12:28, status motion
Tue Oct 27 12:27, status motion
Tue Oct 27 12:26, status motion
Tue Oct 27 12:25, status motion
Tue Oct 27 12:24, status motion
Tue Oct 27 12:22, status motion
Tue Oct 27 12:21, status motion
Tue Oct 27 12:20, status motion
Tue Oct 27 12:19, status motion
Tue Oct 27 12:18, status motion
Tue Oct 27 12:17, status motion
Tue Oct 27 12:16, status motion
Tue Oct 27 12:15, status motion
Tue Oct 27 12:14, status motion
Tue Oct 27 12:12, status motion
Tue Oct 27 12:11, status motion
Tue Oct 27 12:09, status motion
Tue Oct 27 12:07, status motion
Tue Oct 27 12:06, status motion
Tue Oct 27 12:05, status motion
Tue Oct 27 12:04, status motion
Tue Oct 27 12:03, status motion
Tue Oct 27 12:02, status motion
Tue Oct 27 10:47, no_motion 30m
Tue Oct 27 10:37, no_motion 20m
Tue Oct 27 10:27, no_motion 10m
Tue Oct 27 10:17, status motion
Tue Oct 27 08:41, no_motion 30m
Tue Oct 27 08:31, no_motion 20m
Tue Oct 27 08:21, no_motion 10m
Tue Oct 27 08:12, status motion
Tue Oct 27 08:10, status motion
Tue Oct 27 08:09, status motion
Tue Oct 27 08:06, status motion
Tue Oct 27 08:02, status motion
Tue Oct 27 08:01, status motion
Tue Oct 27 08:00, status motion
Tue Oct 27 07:59, status motion
Tue Oct 27 07:56, status motion
Tue Oct 27 07:55, status motion
Tue Oct 27 07:54, status motion
Tue Oct 27 07:49, status motion
Tue Oct 27 07:47, status motion
Tue Oct 27 07:45, status motion
Tue Oct 27 07:44, status motion
Tue Oct 27 07:43, status motion
Tue Oct 27 07:42, status motion
Tue Oct 27 07:41, status motion
Tue Oct 27 07:40, status motion
Tue Oct 27 07:39, status motion
Tue Oct 27 07:34, status motion
Tue Oct 27 07:29, status motion
Tue Oct 27 07:27, status motion
Tue Oct 27 07:26, status motion
Tue Oct 27 07:25, status motion
Tue Oct 27 07:23, status motion
Tue Oct 27 07:17, no_motion 10m
Tue Oct 27 07:07, status motion
Tue Oct 27 07:06, status motion
Tue Oct 27 07:05, status motion
Tue Oct 27 07:04, status motion
Tue Oct 27 07:00, status motion
Mon Oct 26 15:03, no_motion 30m
Mon Oct 26 14:53, no_motion 20m
Mon Oct 26 14:43, no_motion 10m
Mon Oct 26 14:33, status motion
Mon Oct 26 14:29, no_motion 10m
Mon Oct 26 14:19, status motion
Mon Oct 26 14:14, no_motion 10m
Mon Oct 26 14:04, status motion
Mon Oct 26 13:59, no_motion 20m
Mon Oct 26 13:49, no_motion 10m
Mon Oct 26 13:39, status motion
Mon Oct 26 13:37, status motion
Mon Oct 26 13:36, status motion
Mon Oct 26 13:35, status motion
Mon Oct 26 13:34, status motion
Mon Oct 26 13:33, status motion
Mon Oct 26 13:32, status motion
Mon Oct 26 13:31, status motion
Mon Oct 26 13:30, status motion
Mon Oct 26 13:29, status motion
Mon Oct 26 13:28, status motion
Mon Oct 26 13:27, status motion
Mon Oct 26 13:26, status motion
Mon Oct 26 13:25, status motion
Mon Oct 26 13:22, no_motion 10m
Mon Oct 26 13:12, status motion
Mon Oct 26 13:11, status motion
Mon Oct 26 13:09, status motion
Mon Oct 26 13:08, status motion
Mon Oct 26 13:07, status motion
Mon Oct 26 13:05, status motion
Mon Oct 26 13:03, status motion
Mon Oct 26 13:02, status motion
Mon Oct 26 13:00, status motion
Mon Oct 26 12:59, status motion
Mon Oct 26 12:58, status motion
Mon Oct 26 12:57, status motion
Mon Oct 26 12:56, status motion
Mon Oct 26 12:55, status motion
Mon Oct 26 12:54, status motion
Mon Oct 26 12:53, status motion
Mon Oct 26 12:52, status motion
Mon Oct 26 12:51, status motion
Mon Oct 26 12:50, status motion
Mon Oct 26 12:49, status motion
Mon Oct 26 12:48, status motion
Mon Oct 26 12:46, status motion
Mon Oct 26 12:45, status motion
Mon Oct 26 12:44, status motion
Mon Oct 26 12:43, status motion
Mon Oct 26 12:41, status motion
Mon Oct 26 12:40, status motion
Mon Oct 26 12:39, status motion
Mon Oct 26 12:38, status motion
Mon Oct 26 12:37, status motion
Mon Oct 26 12:36, status motion
Mon Oct 26 12:35, status motion
Mon Oct 26 12:34, status motion
Mon Oct 26 12:33, status motion
Mon Oct 26 12:31, status motion
Mon Oct 26 12:30, status motion
Mon Oct 26 12:25, status motion
Mon Oct 26 12:23, status motion
Mon Oct 26 12:22, status motion
Mon Oct 26 12:21, status motion
Mon Oct 26 12:19, status motion
Mon Oct 26 12:17, status motion
Mon Oct 26 12:16, status motion
Mon Oct 26 12:15, status motion
Mon Oct 26 12:14, status motion
Mon Oct 26 12:12, status motion
Mon Oct 26 12:11, status motion
Mon Oct 26 12:10, status motion
Mon Oct 26 12:08, status motion
Mon Oct 26 12:06, status motion
Mon Oct 26 12:05, status motion
Mon Oct 26 12:04, status motion
Mon Oct 26 12:02, status motion
Mon Oct 26 12:01, status motion
Mon Oct 26 12:00, status motion
Mon Oct 26 11:59, status motion
Mon Oct 26 11:58, status motion
Mon Oct 26 11:57, status motion
Mon Oct 26 11:56, status motion
Mon Oct 26 11:55, status motion
Mon Oct 26 11:54, status motion
Mon Oct 26 11:53, status motion
Mon Oct 26 11:52, status motion
Mon Oct 26 11:51, status motion
Mon Oct 26 11:49, status motion
Mon Oct 26 11:48, status motion
Mon Oct 26 11:47, no_motion 10m
Mon Oct 26 11:37, status motion
Mon Oct 26 11:36, status motion
Mon Oct 26 11:34, status motion
Mon Oct 26 11:32, status motion
Mon Oct 26 11:31, status motion
Mon Oct 26 11:30, status motion
Mon Oct 26 10:52, no_motion 30m
Mon Oct 26 10:42, no_motion 20m
Mon Oct 26 10:32, no_motion 10m
Mon Oct 26 10:22, status motion
Mon Oct 26 10:21, status motion
Mon Oct 26 10:20, status motion
Mon Oct 26 10:18, status motion
Mon Oct 26 10:16, status motion
Mon Oct 26 10:15, status motion
Mon Oct 26 10:14, status motion
Mon Oct 26 09:51, no_motion 30m
Mon Oct 26 09:41, no_motion 20m
Mon Oct 26 09:31, no_motion 10m
Mon Oct 26 09:21, status motion
Mon Oct 26 09:17, status motion
Mon Oct 26 09:13, no_motion 20m
Mon Oct 26 09:03, no_motion 10m
Mon Oct 26 08:53, status motion
Mon Oct 26 08:49, no_motion 10m
Mon Oct 26 08:39, status motion
Mon Oct 26 08:36, status motion
Mon Oct 26 08:32, status motion
Mon Oct 26 08:31, status motion
Mon Oct 26 08:30, status motion
Mon Oct 26 08:29, status motion
Mon Oct 26 08:28, status motion
Mon Oct 26 08:27, status motion
Mon Oct 26 08:26, status motion
Mon Oct 26 08:25, status motion
Mon Oct 26 08:24, status motion
Mon Oct 26 08:22, status motion
Mon Oct 26 08:21, status motion
Mon Oct 26 08:19, status motion
Mon Oct 26 08:18, status motion
Mon Oct 26 08:17, status motion
Mon Oct 26 08:16, status motion
Mon Oct 26 08:14, status motion
Mon Oct 26 08:12, status motion
Mon Oct 26 08:11, status motion
Mon Oct 26 08:10, status motion
Mon Oct 26 08:09, status motion
Mon Oct 26 08:07, status motion
Mon Oct 26 08:06, status motion
Mon Oct 26 08:05, status motion
Mon Oct 26 08:04, status motion
Mon Oct 26 08:02, status motion
Mon Oct 26 08:01, status motion
Mon Oct 26 07:58, status motion
Mon Oct 26 07:57, status motion
Mon Oct 26 07:56, status motion
Mon Oct 26 07:55, status motion
Mon Oct 26 07:52, status motion
Mon Oct 26 07:51, status motion
Mon Oct 26 07:43, status motion
Mon Oct 26 07:41, status motion
Mon Oct 26 07:37, status motion
Mon Oct 26 07:36, no_motion 10m
Mon Oct 26 07:26, status motion
Mon Oct 26 07:25, status motion
Mon Oct 26 07:16, status motion
Mon Oct 26 07:09, status motion
Mon Oct 26 07:07, status motion
Mon Oct 26 07:05, status motion
Mon Oct 26 07:04, status motion
Mon Oct 26 07:03, status motion
Mon Oct 26 07:01, status motion
Mon Oct 26 05:16, no_motion 30m
Mon Oct 26 05:06, no_motion 20m
Mon Oct 26 04:56, no_motion 10m
Mon Oct 26 04:46, status motion
Mon Oct 26 04:45, status motion
Mon Oct 26 04:44, status motion
Mon Oct 26 04:38, status motion
Sun Oct 25 22:00, no_motion 30m
Sun Oct 25 21:50, no_motion 20m
Sun Oct 25 21:40, no_motion 10m
Sun Oct 25 21:30, status motion
Sun Oct 25 21:23, status motion
Sun Oct 25 21:22, status motion
Sun Oct 25 21:21, status motion
Sun Oct 25 21:20, status motion
Sun Oct 25 21:19, status motion
Sun Oct 25 21:18, status motion
Sun Oct 25 21:13, no_motion 10m
Sun Oct 25 21:03, status motion
Sun Oct 25 21:02, status motion
Sun Oct 25 21:01, status motion
Sun Oct 25 21:00, status motion
Sun Oct 25 20:59, status motion
Sun Oct 25 20:58, no_motion 30m
Sun Oct 25 20:48, no_motion 20m
Sun Oct 25 20:38, no_motion 10m
Sun Oct 25 20:28, status motion
Sun Oct 25 20:27, status motion
Sun Oct 25 20:25, status motion
Sun Oct 25 20:24, status motion
Sun Oct 25 20:23, status motion
Sun Oct 25 20:22, status motion
Sun Oct 25 20:21, status motion
Sun Oct 25 20:20, status motion
Sun Oct 25 20:19, status motion
Sun Oct 25 20:18, status motion
Sun Oct 25 20:17, status motion
Sun Oct 25 20:16, status motion
Sun Oct 25 20:15, status motion
Sun Oct 25 20:05, no_motion 20m
Sun Oct 25 19:55, no_motion 10m
Sun Oct 25 19:46, status motion
Sun Oct 25 19:36, status motion
Sun Oct 25 19:35, status motion
Sun Oct 25 19:34, status motion
Sun Oct 25 19:27, status motion
Sun Oct 25 19:26, status motion
Sun Oct 25 19:25, status motion
Sun Oct 25 19:24, status motion
Sun Oct 25 19:14, status motion
Sun Oct 25 19:13, status motion
Sun Oct 25 19:12, status motion
Sun Oct 25 19:11, status motion
Sun Oct 25 19:10, status motion
Sun Oct 25 19:09, status motion
Sun Oct 25 19:08, status motion
Sun Oct 25 19:07, status motion
Sun Oct 25 19:06, status motion
Sun Oct 25 19:05, status motion
Sun Oct 25 19:04, status motion
Sun Oct 25 18:58, status motion
Sun Oct 25 18:57, status motion
Sun Oct 25 18:56, status motion
Sun Oct 25 18:47, no_motion 30m
Sun Oct 25 18:37, no_motion 20m
Sun Oct 25 18:27, no_motion 10m
Sun Oct 25 18:17, status motion
Sun Oct 25 18:15, status motion
Sun Oct 25 18:14, status motion
Sun Oct 25 18:13, status motion
Sun Oct 25 18:12, status motion
Sun Oct 25 18:11, status motion
Sun Oct 25 18:10, status motion
Sun Oct 25 18:09, status motion
Sun Oct 25 18:08, status motion
Sun Oct 25 18:07, status motion
Sun Oct 25 18:06, status motion
Sun Oct 25 18:03, status motion
Sun Oct 25 18:01, no_motion 10m
Sun Oct 25 17:51, status motion
Sun Oct 25 17:50, status motion
Sun Oct 25 17:49, status motion
Sun Oct 25 17:47, status motion
Sun Oct 25 17:46, status motion
Sun Oct 25 17:45, status motion
Sun Oct 25 17:44, status motion
Sun Oct 25 17:43, status motion
Sun Oct 25 17:42, status motion
Sun Oct 25 17:40, status motion
Sun Oct 25 17:38, status motion
Sun Oct 25 17:37, status motion
Sun Oct 25 17:36, status motion
Sun Oct 25 17:35, status motion
Sun Oct 25 17:32, status motion
Sun Oct 25 17:31, status motion
Sun Oct 25 17:30, status motion
Sun Oct 25 17:29, status motion
Sun Oct 25 17:28, status motion
Sun Oct 25 17:27, status motion
Sun Oct 25 17:25, status motion
Sun Oct 25 17:24, status motion
Sun Oct 25 17:23, status motion
Sun Oct 25 17:22, status motion
Sun Oct 25 17:21, status motion
Sun Oct 25 17:20, status motion
Sun Oct 25 17:18, status motion
Sun Oct 25 17:17, status motion
Sun Oct 25 17:16, status motion
Sun Oct 25 17:14, status motion
Sun Oct 25 17:13, status motion
Sun Oct 25 17:12, status motion
Sun Oct 25 17:11, status motion
Sun Oct 25 17:10, status motion
Sun Oct 25 17:09, status motion
Sun Oct 25 17:08, status motion
Sun Oct 25 17:07, status motion
Sun Oct 25 17:06, status motion
Sun Oct 25 17:03, status motion
Sun Oct 25 17:02, status motion

s7 Alarm Arm
Tue Oct 27 06:54, ARM..

Tue Oct 27 06:54, ARM..
Mon Sep 28 16:37, disarmed
Mon Sep 28 16:36, ARM..
Tue Sep 8 07:22, click
Sun Sep 6 19:29, click
Sat Sep 5 21:34, disarmed
Sat Sep 5 21:34, ALARM
Sat Sep 5 18:10, ARM..
Sat Sep 5 18:09, disarmed
Sat Sep 5 18:09, ARM..
Sun Aug 30 17:19, click
Tue Aug 25 15:07, disarmed
Tue Aug 25 15:07, click
Tue Aug 25 15:07, click
Tue Aug 25 15:06, click
Tue Aug 25 15:06, ARM..
Mon Aug 24 12:25, click
Sat Aug 15 23:16, click
Sat Aug 15 23:16, long_press
Sat Aug 15 23:16, click
Tue Aug 11 11:09, disarmed
Tue Aug 11 11:09, ALARM
Tue Aug 11 08:52, ARM..
Mon Aug 10 22:59, disarmed
Mon Aug 10 09:28, ALARM
Mon Aug 10 08:53, click
Mon Aug 10 08:53, ARM..
Mon Aug 10 08:53, long_press
Mon Aug 10 08:53, long_release
Mon Aug 10 08:53, long_press
Sun Aug 9 18:13, disarmed
Sun Aug 9 18:12, ALARM
Sun Aug 9 10:39, ARM..
Sun Aug 9 10:39, disarmed
Sun Aug 9 10:38, ARM..
Sat Aug 8 19:49, disarmed
Sat Aug 8 19:38, ALARM
Sat Aug 8 14:39, ARM..
Sun Jul 12 16:02, click
Mon Jun 29 18:28, click
Sun Jun 21 11:53, long_release
Sun Jun 21 11:53, long_press
Sat Jun 6 14:58, click
Sat Jun 6 14:58, click
Thu Jun 4 14:02, disarmed
Thu Jun 4 14:01, ARM..
Fri May 29 07:51, disarmed
Fri May 29 07:51, ARM..
Thu May 28 21:17, click
Mon May 18 10:33, click
Wed Feb 26 13:20, click
Wed Feb 26 13:20, click
Wed Feb 26 11:47, click
Wed Feb 26 11:46, click
Sun Feb 16 17:43, disarmed
Sun Feb 16 17:43, ARM..
Sat Feb 15 11:51, click
Wed Feb 12 12:35, click
Tue Feb 11 12:32, click
Sun Feb 9 11:28, click
Wed Jan 29 07:00, disarmed
Wed Jan 29 06:59, ARM..
Sat Jan 4 09:29, disarmed
Sat Jan 4 09:29, ARM..
Sat Jan 4 09:29, disarmed
Sat Jan 4 09:29, ARM..
Sat Jan 4 06:35, disarmed
Sat Jan 4 06:34, ARM..
Sat Jan 4 06:13, disarmed
Sat Jan 4 06:12, ARM..
Sat Jan 4 06:10, disarmed
Sat Jan 4 06:09, ARM..
Sat Jan 4 06:07, disarmed
Sat Jan 4 06:07, ARM..
Sat Jan 4 05:56, disarmed
Sat Jan 4 05:55, ARM..
Fri Jan 3 22:46, disarmed
Fri Jan 3 22:46, ARM..
Wed Jan 1 13:34, disarmed
Wed Jan 1 13:34, ARM..
Wed Jan 1 10:31, click
Tue Dec 31 19:29, disarmed
Tue Dec 31 19:29, ALARM
Tue Dec 31 16:39, ARM..
Tue Dec 31 16:05, disarmed
Tue Dec 31 15:46, ARM..
Mon Dec 30 16:05, disarmed
Mon Dec 30 15:54, ALARM
Mon Dec 30 15:53, ARM..
Mon Dec 30 15:49, disarmed
Mon Dec 30 15:19, ALARM
Mon Dec 30 15:15, ARM..
Mon Dec 30 15:15, disarmed
Mon Dec 30 15:04, ARM..
Mon Dec 30 00:16, disarmed
Sun Dec 29 18:17, ALARM
Sun Dec 29 18:15, ARM..
Sun Dec 29 17:58, disarmed
Sun Dec 29 17:58, ARM..
Sat Dec 28 16:37, disarmed
Sat Dec 28 16:37, ARM..
Tue Dec 24 11:56, disarmed
Tue Dec 24 11:56, ARM..
Tue Dec 24 11:56, click
Tue Dec 24 11:56, click
Tue Dec 24 11:56, click
Sun Dec 22 09:04, disarmed
Sat Dec 21 22:02, ARM..
Sat Dec 21 22:02, disarmed
Sat Dec 21 16:59, ALARM
Sat Dec 21 16:56, ARM..
Fri Dec 20 10:04, disarmed
Fri Dec 20 10:04, ALARM
Fri Dec 20 10:02, ARM..
Fri Dec 13 14:23, disarmed
Fri Dec 13 14:22, ALARM
Fri Dec 13 13:50, ARM..
Tue Dec 10 18:53, click
Sat Dec 7 12:32, click
Sat Dec 7 11:58, OFF
Sat Dec 7 11:57, ARM..
Wed Nov 27 18:24, OFF
Wed Nov 27 18:23, ARM..
Wed Nov 27 18:23, OFF
Wed Nov 27 18:22, ARM..
Mon Nov 25 14:37, OFF
Mon Nov 25 14:36, ARM..
Mon Nov 25 14:35, OFF
Mon Nov 25 14:35, ARM..
Mon Nov 25 14:34, OFF
Mon Nov 25 14:34, ARM..
Mon Nov 25 14:33, OFF
Mon Nov 25 14:33, ARM..
Mon Nov 25 14:32, OFF
Mon Nov 25 14:32, ARM..
Mon Nov 25 14:19, OFF
Mon Nov 25 14:18, ARM..
Thu Nov 21 15:46, click
Sat Nov 2 17:07, OFF
Sat Nov 2 17:07, ARM..
Fri Nov 1 11:34, ARM..
Fri Nov 1 11:34, OFF
Fri Nov 1 10:25, ARM..
Thu Oct 31 16:26, OFF
Thu Oct 31 14:58, ARM..
Thu Oct 31 14:58, ARM..
Thu Oct 31 08:53, OFF
Thu Oct 31 08:53, ARM..
Thu Oct 31 08:53, OFF
Thu Oct 31 08:52, ARM..
Wed Oct 30 12:54, OFF
Wed Oct 30 12:45, ARM..
Wed Oct 30 11:56, OFF
Wed Oct 30 11:51, ARM..
Wed Oct 30 11:45, OFF
Wed Oct 30 11:41, ARM..
Tue Oct 29 19:17, click
Tue Oct 29 19:17, long_press
Mon Oct 28 22:16, OFF
Mon Oct 28 22:15, ARM..
Mon Oct 28 21:38, OFF
Mon Oct 28 21:37, ARM..
Mon Oct 28 21:36, OFF
Mon Oct 28 21:36, ARM..
Mon Oct 28 21:03, OFF
Mon Oct 28 21:03, ARM..
Mon Oct 28 17:04, OFF
Mon Oct 28 17:02, double_click
Mon Oct 28 16:56, OFF
Mon Oct 28 16:55, double_click
Mon Oct 28 16:53, OFF
Mon Oct 28 16:51, double_click
Mon Oct 28 16:51, OFF
Mon Oct 28 16:50, double_click
Mon Oct 28 16:44, OFF
Mon Oct 28 16:43, double_click
Mon Oct 28 16:41, double_click
Mon Oct 28 16:40, double_click
Mon Oct 28 16:40, double_click
Mon Oct 28 16:39, double_click
Mon Oct 28 16:21, OFF
Mon Oct 28 16:20, double_click
Mon Oct 28 16:20, OFF
Mon Oct 28 16:20, double_click
Sun Oct 27 17:16, OFF
Sun Oct 27 17:15, double_click
Sun Oct 27 13:34, OFF
Sun Oct 27 13:33, double_click
Sun Oct 27 13:32, OFF
Sun Oct 27 13:32, double_click
Sun Oct 27 13:32, OFF
Sun Oct 27 13:32, double_click
Sun Oct 27 13:32, double_click
Sun Oct 27 13:24, OFF
Sun Oct 27 13:24, double_click
Sun Oct 27 13:23, OFF
Sun Oct 27 13:23, double_click
Sun Oct 27 13:22, OFF
Sun Oct 27 13:22, double_click
Sun Oct 27 13:21, OFF
Sun Oct 27 13:20, double_click
Sun Oct 27 13:20, double_click
Sun Oct 27 13:19, double_click
Sun Oct 27 13:17, double_click
Sun Oct 27 13:17, double_click
Sun Oct 27 13:17, double_click
Sun Oct 27 13:16, double_click
Sun Oct 27 13:06, double_click
Sun Oct 27 13:06, double_click
Sun Oct 27 13:06, double_click
Sun Oct 27 13:05, double_click
Sun Oct 27 13:05, double_click
Sun Oct 27 13:05, double_click
Sun Oct 27 13:03, double_click
Sun Oct 27 13:03, double_click
Sun Oct 27 12:59, double_click
Sun Oct 27 12:59, double_click
Sun Oct 27 12:58, double_click
Sun Oct 27 12:55, double_click
Sun Oct 27 12:54, double_click
Sun Oct 27 12:54, double_click
Sun Oct 27 12:03, double_click
Sun Oct 27 12:03, double_click
Sun Oct 27 12:02, double_click
Sun Oct 27 12:02, double_click
Sat Oct 26 07:04, double_click
Sat Oct 26 07:03, double_click
Sat Oct 26 06:58, double_click
Sat Oct 26 06:57, double_click
Fri Oct 25 15:48, double_click
Fri Oct 25 15:47, double_click
Fri Oct 25 15:46, double_click
Fri Oct 25 15:45, double_click
Fri Oct 25 15:43, double_click
Fri Oct 25 15:43, double_click
Fri Oct 25 15:42, double_click
Fri Oct 25 15:39, double_click
Fri Oct 25 15:38, double_click
Fri Oct 25 15:36, double_click
Fri Oct 25 15:36, double_click
Fri Oct 25 15:34, double_click
Fri Oct 25 12:06, double_click
Fri Oct 25 12:00, double_click
Fri Oct 25 11:40, double_click
Fri Oct 25 11:39, double_click
Fri Oct 25 11:39, click
Fri Oct 25 11:32, click
Fri Oct 25 11:30, click
Tue Jun 4 11:23, click
Wed May 29 12:46, click
Wed May 29 12:37, click
Wed May 29 11:52, click
Wed May 29 11:52, click
Wed May 29 11:46, click
Wed May 29 11:43, click
Wed May 29 11:41, click
Wed May 29 11:41, click
Wed May 29 11:40, click
Wed May 29 11:40, click
Wed May 29 11:40, click
Wed May 29 11:39, click
Wed May 29 11:39, click
Wed May 29 11:39, click
Wed May 29 11:39, click
Wed May 29 11:38, click
Wed May 29 11:38, click
Wed May 29 11:38, click
Wed May 29 11:38, click
Wed May 29 11:37, click
Wed May 29 11:37, click
Wed May 29 11:31, click
Wed May 29 11:26, click
Mon May 27 13:15, click
Sat May 25 15:45, double_click
Sat May 25 15:44, double_click
Sat May 25 15:43, double_click
Sat May 25 15:43, double_click
Sat May 25 15:43, click
Sat May 25 15:37, double_click
Sat May 25 15:37, double_click
Sat May 25 15:34, double_click
Sat May 25 15:34, double_click
Sat May 25 15:33, double_click
Sat May 25 15:33, double_click
Fri May 24 16:22, click
Fri May 24 16:00, click
Fri May 24 15:45, click
Fri May 24 15:37, click
Fri May 24 15:31, click
Fri May 24 15:30, click
Fri May 24 15:14, click
Fri May 24 15:08, click
Fri May 24 15:07, click
Sat Mar 16 12:08, click
Tue Mar 12 12:19, click
Sun Mar 3 10:15, click
Fri Jan 25 15:56, click
Fri Nov 16 15:53, double_click
Fri Nov 16 15:53, double_click
Mon Nov 12 16:22, click
Mon Nov 12 16:20, click
Sun Nov 11 16:39, double_click
Sun Nov 11 16:38, click
Sun Nov 11 16:38, long_press
Sun Nov 11 16:38, click
Sun Nov 11 16:38, long_press
Sun Nov 11 16:38, click
Sun Nov 11 16:38, click
Sun Nov 11 16:38, long_press
Sun Nov 11 16:38, click
Sun Nov 11 16:38, click
Sun Nov 11 16:38, click
Sun Nov 11 16:38, click
Sun Nov 11 16:38, click
Sun Nov 11 16:38, click
Sun Nov 11 16:38, click
Sun Nov 11 16:38, click
Sat Nov 10 07:36, double_click
Sat Nov 10 06:48, double_click
Sat Nov 10 06:47, double_click
Fri Nov 9 17:17, double_click
Fri Nov 9 17:16, double_click
Thu Oct 25 17:15, click
Sat Oct 20 12:06, double_click
Sat Oct 20 12:06, double_click
Sat Oct 20 00:29, double_click
Fri Oct 19 19:13, double_click
Fri Oct 19 19:09, click
Thu Oct 18 09:58, double_click
Thu Oct 18 09:56, double_click
Sat Sep 29 18:38, double_click
Sat Sep 29 18:37, double_click
Sat Sep 29 18:37, click
Sat Sep 29 18:37, click
Sun Sep 23 12:38, double_click
Sun Sep 23 12:38, double_click
Sun Sep 23 12:37, double_click
Sun Sep 23 12:37, click
Sat Sep 22 23:37, double_click
Sat Sep 22 23:37, click
Sat Sep 22 23:37, click
Sat Sep 22 17:22, double_click
Sat Sep 22 17:13, double_click
Sat Sep 22 17:13, double_click
Sun Sep 16 17:48, long_release
Sun Sep 16 17:48, long_press
Sun Sep 9 06:51, double_click
Sun Sep 9 06:51, double_click
Sun Sep 9 06:41, double_click
Sun Sep 9 06:41, double_click
Sat Sep 8 23:20, double_click
Sat Sep 8 13:31, double_click
Sat Sep 8 13:26, double_click
Sat Sep 8 13:26, double_click
Mon Sep 3 09:50, double_click
Mon Sep 3 09:49, double_click
Mon Sep 3 09:49, click
Mon Sep 3 09:49, long_press
Mon Sep 3 09:48, click
Mon Sep 3 09:47, click
Mon Sep 3 09:47, double_click
Mon Sep 3 09:47, long_release
Mon Sep 3 09:47, long_press
Mon Sep 3 09:45, double_click
Mon Sep 3 09:45, double_click
Mon Sep 3 09:45, double_click
Mon Sep 3 09:44, double_click
Fri Aug 17 10:59, click
Fri Aug 17 08:34, double_click
Fri Aug 17 08:32, double_click
Wed Aug 15 12:40, click
Wed Aug 15 10:29, double_click
Wed Aug 15 10:28, double_click
Wed Aug 15 10:28, click
Wed Aug 15 10:28, click
Wed Aug 15 10:28, click
Wed Aug 15 10:28, double_click
Wed Aug 15 10:26, double_click
Tue Aug 14 20:35, double_click
Tue Aug 14 20:35, double_click
Tue Aug 14 20:33, click
Tue Aug 14 17:21, double_click
Tue Aug 14 17:09, double_click
Tue Aug 14 17:04, double_click
Tue Aug 14 17:04, double_click
Tue Aug 14 17:04, click
Tue Aug 14 17:04, double_click
Wed May 30 19:10, click
Sat May 5 13:33, click
Fri May 4 06:34, click
Fri May 4 06:33, click
Thu May 3 16:55, click
Thu May 3 15:47, click
Thu May 3 15:47, click
Thu May 3 15:47, click
Thu May 3 15:47, click
Thu May 3 15:46, click
Thu May 3 15:46, click
Thu May 3 15:46, click
Thu May 3 15:46, click
Thu May 3 15:46, click
Thu May 3 15:45, click
Thu May 3 15:45, click
Thu May 3 15:26, click
Fri Apr 20 09:11, click
Fri Apr 13 16:02, double_click
Fri Apr 13 09:33, click
Fri Mar 16 10:05, click
Fri Mar 16 08:19, click
Fri Mar 16 07:55, click
Fri Mar 16 07:50, click
Fri Mar 16 07:48, click
Fri Mar 16 07:46, click
Thu Mar 15 16:28, click
Thu Mar 15 16:28, click
Mon Mar 5 16:53, click
Mon Mar 5 14:27, click
Mon Mar 5 14:24, click
Mon Mar 5 14:24, click
Tue Feb 20 06:27, click
Tue Feb 20 06:25, click
Tue Feb 20 06:15, click
Tue Feb 20 06:10, click
Mon Feb 19 22:08, click

s7 Rain Gauge mm/hr
Wed Oct 28 11:04:06, Rain 0.295

Wed Oct 28 11:04:06, Rain 0.295
Wed Oct 28 10:07:12, Rain 0.239
Wed Oct 28 08:57:06, Rain 0.364
Wed Oct 28 08:11:00, Rain 27.185
Wed Oct 28 08:10:22, Rain 5.467
Wed Oct 28 08:07:18, Rain 0.057
Wed Oct 28 03:13:59, Rain 8.112
Wed Oct 28 03:11:56, Rain 0.104
Wed Oct 28 00:30:24, Rain 0.243
Tue Oct 27 23:21:28, Rain 0.225
Tue Oct 27 22:06:57, Rain 0.039
Tue Oct 27 14:57:30, Rain 1.135
Tue Oct 27 14:42:44, Rain 1.378
Tue Oct 27 14:30:34, Rain 1.734
Tue Oct 27 14:20:54, Rain 0.909
Tue Oct 27 14:02:28, Rain 2.586
Tue Oct 27 13:55:59, Rain 0.648
Tue Oct 27 13:30:07, Rain 3.810
Tue Oct 27 13:25:44, Rain 1.126
Tue Oct 27 13:10:50, Rain 5.588
Tue Oct 27 13:07:50, Rain 0.877
Tue Oct 27 12:48:43, Rain 0.372
Tue Oct 27 12:03:39, Rain 0.012
Mon Oct 26 13:30:51, Rain 0.125
Mon Oct 26 11:16:21, Rain 0.048
Mon Oct 26 05:28:30, Rain 0.984
Mon Oct 26 05:11:29, Rain 0.302
Mon Oct 26 04:15:57, Rain 4.156
Mon Oct 26 04:11:54, Rain 2.187
Mon Oct 26 04:04:14, Rain 1.168
Mon Oct 26 03:49:53, Rain 0.034
Sun Oct 25 19:31:40, Rain 0.460
Sun Oct 25 18:55:15, Rain 0.896
Sun Oct 25 18:36:33, Rain 0.033
Sun Oct 25 10:12:07, Rain 0.137
Sun Oct 25 08:09:22, Rain 0.120
Sun Oct 25 05:49:29, Rain 0.523
Sun Oct 25 05:17:25, Rain 3.287
Sun Oct 25 05:12:18, Rain 0.475
Sun Oct 25 04:36:59, Rain 0.341
Sun Oct 25 03:47:50, Rain 0.519
Sun Oct 25 03:15:32, Rain 6.286
Sun Oct 25 03:12:52, Rain 0.030
Sat Oct 24 18:57:08, Rain 1.251
Sat Oct 24 18:43:44, Rain 0.785
Sat Oct 24 18:22:24, Rain 0.148
Sat Oct 24 16:29:25, Rain 0.047
Sat Oct 24 10:35:26, Rain 0.582
Sat Oct 24 10:06:38, Rain 0.747
Sat Oct 24 09:44:11, Rain 1.042
Sat Oct 24 09:28:07, Rain 5.004
Sat Oct 24 09:24:45, Rain 5.882
Sat Oct 24 09:21:54, Rain 14.369
Sat Oct 24 09:20:44, Rain 8.313
Sat Oct 24 09:18:43, Rain 0.053
Sat Oct 24 04:03:44, Rain 0.017
Fri Oct 23 11:22:09, Rain 0.490
Fri Oct 23 10:47:57, Rain 7.134
Fri Oct 23 10:45:37, Rain 4.226
Fri Oct 23 10:41:38, Rain 2.296
Fri Oct 23 10:34:20, Rain 1.495
Fri Oct 23 10:23:07, Rain 2.718
Fri Oct 23 10:16:57, Rain 1.070
Fri Oct 23 10:01:18, Rain 1.458
Fri Oct 23 09:49:47, Rain 0.507
Fri Oct 23 09:16:43, Rain 0.304
Fri Oct 23 08:21:39, Rain 0.926
Fri Oct 23 08:03:34, Rain 0.704
Fri Oct 23 07:39:44, Rain 0.435
Fri Oct 23 07:01:14, Rain 0.695
Fri Oct 23 06:37:07, Rain 0.022
Thu Oct 22 17:44:36, Rain 0.501
Thu Oct 22 17:11:11, Rain 0.824
Thu Oct 22 16:50:49, Rain 3.618
Thu Oct 22 16:46:12, Rain 3.085
Thu Oct 22 16:40:45, Rain 3.480
Thu Oct 22 16:35:56, Rain 0.111
Thu Oct 22 14:04:17, Rain 0.073
Thu Oct 22 10:15:54, Rain 0.040
Thu Oct 22 03:19:21, Rain 0.947
Thu Oct 22 03:01:39, Rain 0.087
Wed Oct 21 23:49:59, Rain 0.026
Wed Oct 21 13:03:25, Rain 0.010
Tue Oct 20 08:05:49, Rain 0.960
Tue Oct 20 07:48:21, Rain 0.920
Tue Oct 20 07:30:08, Rain 1.859
Tue Oct 20 07:21:07, Rain 1.529
Tue Oct 20 07:10:09, Rain 3.214
Tue Oct 20 07:04:57, Rain 1.931
Tue Oct 20 06:56:16, Rain 4.056
Tue Oct 20 06:52:07, Rain 0.791
Tue Oct 20 06:30:56, Rain 0.038
Mon Oct 19 23:14:55, Rain 0.689
Mon Oct 19 22:50:36, Rain 1.077
Mon Oct 19 22:35:02, Rain 0.662
Mon Oct 19 22:09:43, Rain 1.439
Mon Oct 19 21:58:03, Rain 1.219
Mon Oct 19 21:44:18, Rain 0.747
Mon Oct 19 21:21:52, Rain 0.333
Mon Oct 19 20:31:28, Rain 0.899
Mon Oct 19 20:12:49, Rain 0.485
Mon Oct 19 19:38:16, Rain 0.115
Mon Oct 19 17:12:22, Rain 0.038
Mon Oct 19 09:47:11, Rain 0.055
Mon Oct 19 04:43:54, Rain 1.137
Mon Oct 19 04:29:08, Rain 1.323
Mon Oct 19 04:16:28, Rain 0.075
Mon Oct 19 00:34:13, Rain 0.908
Mon Oct 19 00:15:45, Rain 3.505
Mon Oct 19 00:10:58, Rain 1.905
Mon Oct 19 00:02:11, Rain 8.382
Mon Oct 19 00:00:10, Rain 2.216
Sun Oct 18 23:52:36, Rain 5.212
Sun Oct 18 23:49:24, Rain 1.195
Sun Oct 18 23:35:21, Rain 0.049
Sun Oct 18 17:52:53, Rain 2.932
Sun Oct 18 17:47:10, Rain 1.714
Sun Oct 18 17:37:23, Rain 2.378
Sun Oct 18 17:30:20, Rain 0.429
Sun Oct 18 16:51:17, Rain 0.004
Thu Oct 15 10:26:40, Rain 0.096
Thu Oct 15 07:32:07, Rain 1.278
Thu Oct 15 07:19:00, Rain 0.017
Wed Oct 14 15:15:22, Rain 0.028
Wed Oct 14 05:16:19, Rain 0.017
Tue Oct 13 12:43:52, Rain 0.089
Tue Oct 13 09:35:50, Rain 0.445
Tue Oct 13 08:58:10, Rain 0.014
Mon Oct 12 12:40:22, Rain 0.131
Mon Oct 12 10:32:28, Rain 1.790
Mon Oct 12 10:23:06, Rain 3.456
Mon Oct 12 10:18:15, Rain 3.712
Mon Oct 12 10:13:44, Rain 1.510
Mon Oct 12 10:02:38, Rain 2.307
Mon Oct 12 09:55:23, Rain 2.378
Mon Oct 12 09:48:20, Rain 3.143
Mon Oct 12 09:42:59, Rain 2.163
Mon Oct 12 09:35:14, Rain 1.170
Mon Oct 12 09:20:54, Rain 0.510
Mon Oct 12 08:48:00, Rain 1.909
Mon Oct 12 08:39:13, Rain 1.829
Mon Oct 12 08:30:04, Rain 6.209
Mon Oct 12 08:27:21, Rain 2.726
Mon Oct 12 08:21:13, Rain 0.869
Mon Oct 12 08:01:54, Rain 0.329
Mon Oct 12 07:10:57, Rain 0.323
Mon Oct 12 06:19:02, Rain 0.006
Sat Oct 10 09:21:58, Rain 0.057
Sat Oct 10 04:29:53, Rain 0.028
Fri Oct 9 18:38:11, Rain 0.068
Fri Oct 9 14:33:20, Rain 0.031
Fri Oct 9 05:36:19, Rain 0.180
Fri Oct 9 04:03:22, Rain 2.976
Fri Oct 9 03:57:45, Rain 1.393
Fri Oct 9 03:45:42, Rain 2.163
Fri Oct 9 03:37:57, Rain 6.366
Fri Oct 9 03:35:19, Rain 1.435
Fri Oct 9 03:23:38, Rain 0.759
Fri Oct 9 03:01:34, Rain 3.398
Fri Oct 9 02:56:38, Rain 0.015
Thu Oct 8 08:12:48, Rain 0.074
Thu Oct 8 04:26:29, Rain 1.317
Thu Oct 8 04:13:45, Rain 0.651
Thu Oct 8 03:47:59, Rain 1.529
Thu Oct 8 03:37:02, Rain 1.332
Thu Oct 8 03:24:26, Rain 2.296
Thu Oct 8 03:17:08, Rain 1.433
Thu Oct 8 03:05:26, Rain 2.265
Thu Oct 8 02:58:03, Rain 1.636
Thu Oct 8 02:47:47, Rain 1.665
Thu Oct 8 02:37:43, Rain 0.707
Thu Oct 8 02:14:01, Rain 0.683
Thu Oct 8 01:49:28, Rain 0.286
Thu Oct 8 00:50:47, Rain 0.512
Thu Oct 8 00:18:03, Rain 0.735
Wed Oct 7 23:55:13, Rain 1.093
Wed Oct 7 23:39:54, Rain 1.139
Wed Oct 7 23:25:10, Rain 2.682
Wed Oct 7 23:18:55, Rain 0.838
Wed Oct 7 22:58:54, Rain 0.333
Wed Oct 7 22:08:30, Rain 0.006
Tue Oct 6 02:04:11, Rain 1.203
Tue Oct 6 01:50:15, Rain 1.552
Tue Oct 6 01:39:28, Rain 3.067
Tue Oct 6 01:34:00, Rain 0.569
Tue Oct 6 01:04:32, Rain 0.009
Sun Oct 4 16:49:28, Rain 0.415
Sun Oct 4 16:09:03, Rain 0.021
Sun Oct 4 02:54:53, Rain 1.033
Sun Oct 4 02:38:39, Rain 1.233
Sun Oct 4 02:25:03, Rain 2.104
Sun Oct 4 02:17:05, Rain 1.685
Sun Oct 4 02:07:09, Rain 1.533
Sun Oct 4 01:56:13, Rain 1.526
Sun Oct 4 01:45:13, Rain 0.558
Sun Oct 4 01:15:10, Rain 2.312
Sun Oct 4 01:07:55, Rain 2.168
Sun Oct 4 01:00:11, Rain 3.255
Sun Oct 4 00:55:02, Rain 2.553
Sun Oct 4 00:48:28, Rain 1.046
Sun Oct 4 00:32:26, Rain 1.749
Sun Oct 4 00:22:51, Rain 0.418
Sat Oct 3 23:42:45, Rain 0.352
Sat Oct 3 22:55:10, Rain 1.368
Sat Oct 3 22:42:54, Rain 0.197
Sat Oct 3 21:17:43, Rain 0.436
Sat Oct 3 20:39:18, Rain 1.311
Sat Oct 3 20:26:31, Rain 0.205
Sat Oct 3 19:04:35, Rain 1.768
Sat Oct 3 18:55:07, Rain 2.626
Sat Oct 3 18:48:43, Rain 0.250
Sat Oct 3 17:41:44, Rain 0.762
Sat Oct 3 17:19:43, Rain 2.711
Sat Oct 3 17:13:32, Rain 0.712
Sat Oct 3 16:50:00, Rain 1.161
Sat Oct 3 16:35:34, Rain 2.012
Sat Oct 3 16:27:14, Rain 1.722
Sat Oct 3 16:17:30, Rain 0.532
Sat Oct 3 15:46:01, Rain 0.667
Sat Oct 3 15:20:53, Rain 1.992
Sat Oct 3 15:12:28, Rain 4.007
Sat Oct 3 15:08:17, Rain 1.901
Sat Oct 3 14:59:28, Rain 1.682
Sat Oct 3 14:49:31, Rain 0.440
Sat Oct 3 14:11:26, Rain 0.765
Sat Oct 3 13:49:31, Rain 1.001
Sat Oct 3 13:32:46, Rain 0.769
Sat Oct 3 13:10:58, Rain 1.008
Sat Oct 3 12:54:20, Rain 0.540
Sat Oct 3 12:23:17, Rain 0.796
Sat Oct 3 12:02:12, Rain 0.559
Sat Oct 3 11:32:15, Rain 0.301
Sat Oct 3 10:36:37, Rain 0.785
Sat Oct 3 10:15:15, Rain 0.483
Sat Oct 3 09:40:34, Rain 0.684
Sat Oct 3 09:16:05, Rain 2.240
Sat Oct 3 09:08:35, Rain 0.451
Sat Oct 3 08:31:27, Rain 1.092
Sat Oct 3 08:16:07, Rain 0.759
Sat Oct 3 07:54:01, Rain 1.793
Sat Oct 3 07:44:40, Rain 1.873
Sat Oct 3 07:35:43, Rain 1.676
Sat Oct 3 07:25:44, Rain 1.276
Sat Oct 3 07:12:36, Rain 0.013
Fri Oct 2 09:34:11, Rain 0.010
Thu Oct 1 06:48:52, Rain 0.072
Thu Oct 1 02:56:52, Rain 1.120
Thu Oct 1 02:41:55, Rain 1.884
Thu Oct 1 02:33:00, Rain 4.859
Thu Oct 1 02:29:34, Rain 1.577
Thu Oct 1 02:18:55, Rain 1.028
Thu Oct 1 02:02:37, Rain 0.296
Thu Oct 1 01:06:00, Rain 0.071
Wed Sep 30 21:10:54, Rain 0.030
Wed Sep 30 11:59:57, Rain 0.385
Wed Sep 30 11:16:25, Rain 0.520
Wed Sep 30 10:44:11, Rain 0.601
Wed Sep 30 10:16:18, Rain 1.462
Wed Sep 30 10:04:49, Rain 0.728
Wed Sep 30 09:41:48, Rain 1.053
Wed Sep 30 09:25:52, Rain 0.310
Wed Sep 30 08:31:44, Rain 0.492
Wed Sep 30 07:57:38, Rain 0.188
Wed Sep 30 06:28:20, Rain 0.664
Wed Sep 30 06:03:05, Rain 0.020
Tue Sep 29 16:18:05, Rain 0.015
Mon Sep 28 22:10:53, Rain 0.049
Mon Sep 28 16:25:30, Rain 0.533
Mon Sep 28 15:54:03, Rain 0.003
Thu Sep 24 18:52:38, Rain 0.750
Thu Sep 24 18:30:17, Rain 0.236
Thu Sep 24 17:19:09, Rain 0.051
Thu Sep 24 11:48:18, Rain 0.008
Wed Sep 23 01:26:15, Rain 0.190
Tue Sep 22 23:58:04, Rain 0.165
Tue Sep 22 22:16:11, Rain 2.465
Tue Sep 22 22:09:22, Rain 1.942
Tue Sep 22 22:00:44, Rain 2.515
Tue Sep 22 21:54:04, Rain 0.627
Tue Sep 22 21:27:20, Rain 0.424
Tue Sep 22 20:47:47, Rain 0.036
Tue Sep 22 12:58:35, Rain 0.532
Tue Sep 22 12:27:04, Rain 0.849
Tue Sep 22 12:07:18, Rain 0.045
Tue Sep 22 05:56:18, Rain 0.001
Sun Sep 13 00:36:07, Rain 0.321
Sat Sep 12 23:43:57, Rain 1.016
Sat Sep 12 23:27:27, Rain 0.499
Sat Sep 12 22:53:50, Rain 0.371
Sat Sep 12 22:08:35, Rain 0.173
Sat Sep 12 20:31:56, Rain 0.342
Sat Sep 12 19:42:58, Rain 0.242
Sat Sep 12 18:33:39, Rain 0.010
Fri Sep 11 14:40:34, Rain 0.909
Fri Sep 11 14:22:08, Rain 0.711
Fri Sep 11 13:58:34, Rain 1.020
Fri Sep 11 13:42:07, Rain 2.136
Fri Sep 11 13:34:16, Rain 2.899
Fri Sep 11 13:28:29, Rain 2.384
Fri Sep 11 13:21:27, Rain 1.276
Fri Sep 11 13:08:19, Rain 1.475
Fri Sep 11 12:56:57, Rain 1.024
Fri Sep 11 12:40:35, Rain 0.305
Fri Sep 11 11:45:40, Rain 0.005
Wed Sep 9 01:53:26, Rain 3.234
Wed Sep 9 01:48:14, Rain 0.102
Tue Sep 8 23:04:19, Rain 0.010
Mon Sep 7 17:59:34, Rain 0.051
Mon Sep 7 12:28:26, Rain 0.766
Mon Sep 7 12:06:33, Rain 2.675
Mon Sep 7 12:00:17, Rain 0.378
Mon Sep 7 11:15:56, Rain 0.281
Mon Sep 7 10:16:14, Rain 0.596
Mon Sep 7 09:48:05, Rain 0.123
Mon Sep 7 07:31:15, Rain 0.557
Mon Sep 7 07:01:08, Rain 3.567
Mon Sep 7 06:56:26, Rain 3.421
Mon Sep 7 06:51:33, Rain 5.557
Mon Sep 7 06:48:32, Rain 3.364
Mon Sep 7 06:43:32, Rain 2.994
Mon Sep 7 06:37:56, Rain 0.999
Mon Sep 7 06:21:09, Rain 1.431
Mon Sep 7 06:09:26, Rain 1.569
Mon Sep 7 05:58:45, Rain 3.618
Mon Sep 7 05:54:08, Rain 0.751
Mon Sep 7 05:31:47, Rain 2.899
Mon Sep 7 05:26:00, Rain 1.237
Mon Sep 7 05:12:27, Rain 0.789
Mon Sep 7 04:51:12, Rain 0.014
Sun Sep 6 09:22:36, Rain 0.152
Sun Sep 6 07:32:02, Rain 0.364
Sun Sep 6 06:46:01, Rain 0.016
Sat Sep 5 13:41:41, Rain 3.567
Sat Sep 5 13:36:59, Rain 1.716
Sat Sep 5 13:27:13, Rain 0.016
Fri Sep 4 20:04:54, Rain 0.084
Fri Sep 4 16:45:10, Rain 8.746
Fri Sep 4 16:43:15, Rain 9.400
Fri Sep 4 16:41:28, Rain 0.281
Fri Sep 4 15:41:46, Rain 12.573
Fri Sep 4 15:40:25, Rain 14.167
Fri Sep 4 15:39:14, Rain 2.350
Fri Sep 4 15:32:06, Rain 7.983
Fri Sep 4 15:30:00, Rain 20.527
Fri Sep 4 15:29:11, Rain 33.528
Fri Sep 4 15:28:41, Rain 43.732
Fri Sep 4 15:28:18, Rain 71.846
Fri Sep 4 15:28:04, Rain 52.939
Fri Sep 4 15:27:45, Rain 22.352
Fri Sep 4 15:27:00, Rain 32.446
Fri Sep 4 15:26:29, Rain 14.792
Fri Sep 4 15:25:21, Rain 10.933
Fri Sep 4 15:23:49, Rain 14.369
Fri Sep 4 15:22:39, Rain 71.846
Fri Sep 4 15:22:26, Rain 55.880
Fri Sep 4 15:22:07, Rain 18.288
Fri Sep 4 15:21:12, Rain 35.923
Fri Sep 4 15:20:45, Rain 67.056
Fri Sep 4 15:20:29, Rain 71.846
Fri Sep 4 15:20:15, Rain 91.440
Fri Sep 4 15:20:04, Rain 77.372
Fri Sep 4 15:19:51, Rain 83.820
Fri Sep 4 15:19:40, Rain 32.446
Fri Sep 4 15:19:09, Rain 41.910
Fri Sep 4 15:18:45, Rain 43.732
Fri Sep 4 15:18:21, Rain 71.846
Fri Sep 4 15:18:07, Rain 50.292
Fri Sep 4 15:17:48, Rain 111.760
Fri Sep 4 15:17:38, Rain 30.480
Fri Sep 4 15:17:05, Rain 26.469
Fri Sep 4 15:16:27, Rain 17.048
Fri Sep 4 15:15:28, Rain 1.790
Fri Sep 4 15:06:06, Rain 0.010
Thu Sep 3 11:32:04, Rain 0.032
Thu Sep 3 02:54:51, Rain 0.155
Thu Sep 3 01:06:36, Rain 1.104
Thu Sep 3 00:51:26, Rain 0.843
Thu Sep 3 00:31:32, Rain 7.797
Thu Sep 3 00:29:23, Rain 5.437
Thu Sep 3 00:26:18, Rain 7.563
Thu Sep 3 00:24:05, Rain 0.811
Thu Sep 3 00:03:24, Rain 0.640
Wed Sep 2 23:37:12, Rain 1.599
Wed Sep 2 23:26:43, Rain 1.531
Wed Sep 2 23:15:46, Rain 1.067
Wed Sep 2 23:00:03, Rain 1.427
Wed Sep 2 22:48:18, Rain 3.133
Wed Sep 2 22:42:57, Rain 3.421
Wed Sep 2 22:38:03, Rain 0.729
Wed Sep 2 22:15:03, Rain 1.039
Wed Sep 2 21:58:55, Rain 4.931
Wed Sep 2 21:55:31, Rain 7.083
Wed Sep 2 21:53:09, Rain 1.705
Wed Sep 2 21:43:19, Rain 0.142
Wed Sep 2 19:45:28, Rain 4.490
Wed Sep 2 19:41:44, Rain 5.848
Wed Sep 2 19:38:52, Rain 8.597
Wed Sep 2 19:36:55, Rain 9.228
Wed Sep 2 19:35:06, Rain 5.132
Wed Sep 2 19:31:50, Rain 4.931
Wed Sep 2 19:28:26, Rain 3.631
Wed Sep 2 19:23:49, Rain 7.034
Wed Sep 2 19:21:26, Rain 5.185
Wed Sep 2 19:18:12, Rain 3.003
Wed Sep 2 19:12:37, Rain 1.293
Wed Sep 2 18:59:39, Rain 1.877
Wed Sep 2 18:50:43, Rain 6.209
Wed Sep 2 18:48:01, Rain 16.223
Wed Sep 2 18:46:59, Rain 0.371
Wed Sep 2 18:01:51, Rain 8.313
Wed Sep 2 17:59:50, Rain 9.579
Wed Sep 2 17:58:05, Rain 7.797
Wed Sep 2 17:55:56, Rain 9.489
Wed Sep 2 17:54:10, Rain 10.264
Wed Sep 2 17:52:32, Rain 9.579
Wed Sep 2 17:50:47, Rain 2.220
Wed Sep 2 17:43:15, Rain 3.592
Wed Sep 2 17:38:34, Rain 1.103
Wed Sep 2 17:23:22, Rain 1.222
Wed Sep 2 17:09:39, Rain 5.748
Wed Sep 2 17:06:45, Rain 2.950
Wed Sep 2 17:01:03, Rain 0.507
Wed Sep 2 16:28:01, Rain 6.448
Wed Sep 2 16:25:24, Rain 26.469
Wed Sep 2 16:24:47, Rain 18.288
Wed Sep 2 16:23:51, Rain 32.446
Wed Sep 2 16:23:21, Rain 6.489
Wed Sep 2 16:20:45, Rain 7.858
Wed Sep 2 16:18:37, Rain 4.883
Wed Sep 2 16:15:11, Rain 7.737
Wed Sep 2 16:13:01, Rain 5.408
Wed Sep 2 16:09:55, Rain 12.418
Wed Sep 2 16:08:35, Rain 18.288
Wed Sep 2 16:07:39, Rain 26.469
Wed Sep 2 16:07:01, Rain 0.914
Wed Sep 2 15:48:41, Rain 1.793
Wed Sep 2 15:39:20, Rain 1.433
Wed Sep 2 15:27:37, Rain 0.340
Wed Sep 2 14:38:21, Rain 2.633
Wed Sep 2 14:31:59, Rain 7.506
Wed Sep 2 14:29:45, Rain 5.917
Wed Sep 2 14:26:55, Rain 3.505
Wed Sep 2 14:22:09, Rain 0.495
Wed Sep 2 13:48:18, Rain 2.447
Wed Sep 2 13:41:28, Rain 2.412
Wed Sep 2 13:34:30, Rain 4.614
Wed Sep 2 13:30:53, Rain 1.803
Wed Sep 2 13:21:35, Rain 2.453
Wed Sep 2 13:14:44, Rain 2.471
Wed Sep 2 13:07:57, Rain 3.658
Wed Sep 2 13:03:22, Rain 3.153
Wed Sep 2 12:58:04, Rain 3.505
Wed Sep 2 12:53:16, Rain 3.375
Wed Sep 2 12:48:18, Rain 1.313
Wed Sep 2 12:35:32, Rain 0.002
Fri Aug 28 08:03:27, Rain 0.209
Fri Aug 28 06:43:20, Rain 0.218
Fri Aug 28 05:26:29, Rain 0.642
Fri Aug 28 05:00:23, Rain 1.803
Fri Aug 28 04:51:05, Rain 1.719
Fri Aug 28 04:41:20, Rain 1.891
Fri Aug 28 04:32:28, Rain 2.372
Fri Aug 28 04:25:24, Rain 2.932
Fri Aug 28 04:19:41, Rain 3.644
Fri Aug 28 04:15:06, Rain 2.044
Fri Aug 28 04:06:54, Rain 1.946
Fri Aug 28 03:58:16, Rain 0.939
Fri Aug 28 03:40:25, Rain 1.649
Fri Aug 28 03:30:15, Rain 1.582
Fri Aug 28 03:19:39, Rain 2.430
Fri Aug 28 03:12:45, Rain 1.481
Fri Aug 28 03:01:26, Rain 0.513
Fri Aug 28 02:28:47, Rain 0.141
Fri Aug 28 00:29:59, Rain 0.094
Thu Aug 27 21:32:34, Rain 1.405
Thu Aug 27 21:20:38, Rain 0.194
Thu Aug 27 19:54:22, Rain 1.909
Thu Aug 27 19:45:35, Rain 3.505
Thu Aug 27 19:40:48, Rain 23.392
Thu Aug 27 19:40:05, Rain 3.529
Thu Aug 27 19:35:20, Rain 0.448
Thu Aug 27 18:57:56, Rain 0.839
Thu Aug 27 18:37:57, Rain 0.221
Thu Aug 27 17:22:00, Rain 1.495
Thu Aug 27 17:10:47, Rain 4.431
Thu Aug 27 17:07:00, Rain 1.586
Thu Aug 27 16:56:26, Rain 4.317
Thu Aug 27 16:52:33, Rain 2.613
Thu Aug 27 16:46:08, Rain 3.433
Thu Aug 27 16:41:15, Rain 1.584
Thu Aug 27 16:30:40, Rain 0.094
Thu Aug 27 13:31:57, Rain 3.605
Thu Aug 27 13:27:18, Rain 19.343
Thu Aug 27 13:26:26, Rain 15.474
Thu Aug 27 13:25:21, Rain 15.474
Thu Aug 27 13:24:16, Rain 0.038
Thu Aug 27 06:07:12, Rain 0.045
Wed Aug 26 23:58:22, Rain 0.081
Wed Aug 26 20:31:15, Rain 0.553
Wed Aug 26 20:00:55, Rain 1.536
Wed Aug 26 19:50:01, Rain 1.607
Wed Aug 26 19:39:34, Rain 8.671
Wed Aug 26 19:37:38, Rain 0.175
Wed Aug 26 18:01:38, Rain 0.066
Wed Aug 26 13:47:21, Rain 0.048
Wed Aug 26 07:58:57, Rain 0.146
Wed Aug 26 06:04:10, Rain 0.656
Wed Aug 26 05:38:35, Rain 0.575
Wed Aug 26 05:09:28, Rain 3.214

s9 Front Door
Wed Oct 28 10:23:00, status close

Wed Oct 28 10:23:00, status close
Wed Oct 28 10:22:45, status open
Wed Oct 28 10:11:00, status close
Wed Oct 28 10:10:56, status open
Wed Oct 28 10:06:53, status close
Wed Oct 28 10:06:17, status open
Wed Oct 28 09:00:46, status close
Wed Oct 28 09:00:42, status open
Wed Oct 28 08:50:02, status close
Wed Oct 28 08:49:58, status open
Wed Oct 28 08:45:55, status close
Wed Oct 28 08:45:52, status open
Tue Oct 27 13:45:37, status close
Tue Oct 27 13:44:40, status open
Tue Oct 27 12:03:30, status close
Tue Oct 27 12:03:27, status open
Tue Oct 27 12:02:33, status close
Tue Oct 27 12:02:21, status open
Tue Oct 27 12:00:28, status close
Tue Oct 27 12:00:14, status open
Tue Oct 27 10:17:54, status close
Tue Oct 27 10:17:29, status open
Tue Oct 27 08:12:41, status close
Tue Oct 27 08:12:14, status open
Mon Oct 26 13:38:10, status close
Mon Oct 26 13:38:07, status open
Mon Oct 26 12:50:21, status close
Mon Oct 26 12:50:18, status open
Mon Oct 26 12:44:49, status close
Mon Oct 26 12:44:38, status open
Mon Oct 26 11:30:05, status close
Mon Oct 26 11:29:56, status open
Mon Oct 26 10:22:46, status close
Mon Oct 26 10:22:18, status open
Mon Oct 26 08:32:24, status close
Mon Oct 26 08:32:18, status open
Mon Oct 26 08:32:13, status close
Mon Oct 26 08:32:09, status open
Sun Oct 25 18:17:41, status close
Sun Oct 25 18:16:50, status open
Sun Oct 25 17:43:49, status close
Sun Oct 25 17:43:15, status open
Sun Oct 25 17:00:08, status close
Sun Oct 25 16:59:59, status open
Sun Oct 25 12:28:32, status close
Sun Oct 25 12:27:43, status open
Sun Oct 25 09:39:37, status close
Sun Oct 25 09:39:18, status open
Sat Oct 24 16:25:00, status close
Sat Oct 24 16:24:57, status open
Sat Oct 24 15:43:32, status close
Sat Oct 24 15:43:07, status open
Sat Oct 24 15:42:44, status close
Sat Oct 24 15:42:26, status open
Sat Oct 24 14:14:14, status close
Sat Oct 24 14:13:51, status open
Sat Oct 24 12:14:23, status close
Sat Oct 24 12:14:13, status open
Sat Oct 24 08:28:55, status close
Sat Oct 24 08:28:51, status open
Fri Oct 23 17:14:02, status close
Fri Oct 23 17:13:58, status open
Fri Oct 23 13:26:15, status close
Fri Oct 23 13:26:12, status open
Fri Oct 23 13:24:51, status close
Fri Oct 23 13:24:44, status open
Fri Oct 23 12:37:23, status close
Fri Oct 23 12:37:19, status open
Fri Oct 23 08:40:50, status close
Fri Oct 23 08:40:47, status open
Fri Oct 23 08:35:22, status close
Fri Oct 23 08:35:19, status open
Fri Oct 23 08:34:17, status close
Fri Oct 23 08:34:12, status open
Fri Oct 23 08:33:40, status close
Fri Oct 23 08:33:37, status open
Fri Oct 23 07:51:05, status close
Fri Oct 23 07:51:03, status open
Fri Oct 23 07:50:07, status close
Fri Oct 23 07:50:03, status open
Fri Oct 23 07:49:53, status close
Fri Oct 23 07:49:48, status open
Thu Oct 22 14:45:04, status close
Thu Oct 22 14:45:00, status open
Thu Oct 22 14:42:12, status close
Thu Oct 22 14:40:58, no_close 1m
Thu Oct 22 14:39:59, status open
Thu Oct 22 05:29:34, status close
Thu Oct 22 05:29:30, status open
Thu Oct 22 05:28:14, status close
Thu Oct 22 05:28:07, status open
Thu Oct 22 05:25:23, status close
Thu Oct 22 05:25:20, status open
Thu Oct 22 05:20:53, status close
Thu Oct 22 05:20:47, status open
Wed Oct 21 16:10:11, status close
Wed Oct 21 16:09:56, status open
Wed Oct 21 16:09:50, status close
Wed Oct 21 16:09:11, no_close 1m
Wed Oct 21 16:08:11, status open
Wed Oct 21 14:47:07, status close
Wed Oct 21 14:47:04, status open
Wed Oct 21 14:46:27, status close
Wed Oct 21 14:46:24, status open
Wed Oct 21 14:41:01, status close
Wed Oct 21 14:40:57, status open
Wed Oct 21 13:27:48, status close
Wed Oct 21 13:27:44, status open
Wed Oct 21 10:39:22, status close
Wed Oct 21 10:39:14, status open
Wed Oct 21 09:06:42, status close
Wed Oct 21 09:06:19, status open
Wed Oct 21 09:02:17, status close
Wed Oct 21 09:00:37, no_close 1m
Wed Oct 21 08:59:38, status open
Wed Oct 21 08:13:57, status close
Wed Oct 21 08:13:36, no_close 1m
Wed Oct 21 08:12:36, status open
Tue Oct 20 15:10:27, status close
Tue Oct 20 15:10:26, status open
Tue Oct 20 15:00:42, status close
Tue Oct 20 14:58:58, no_close 1m
Tue Oct 20 14:57:58, status open
Tue Oct 20 12:40:52, status close
Tue Oct 20 12:40:45, status open
Tue Oct 20 12:27:00, status close
Tue Oct 20 12:26:35, status open
Tue Oct 20 11:23:42, status close
Tue Oct 20 11:23:35, status open
Mon Oct 19 18:08:08, status close
Mon Oct 19 18:07:54, status open
Mon Oct 19 17:08:09, status close
Mon Oct 19 17:08:06, status open
Mon Oct 19 13:26:07, status close
Mon Oct 19 13:26:03, status open
Mon Oct 19 12:41:03, status close
Mon Oct 19 12:40:59, status open
Mon Oct 19 12:16:42, status close
Mon Oct 19 12:16:40, status open
Mon Oct 19 09:05:22, status close
Mon Oct 19 09:05:18, status open
Mon Oct 19 08:37:01, status close
Mon Oct 19 08:36:58, status open
Sun Oct 18 16:23:13, status close
Sun Oct 18 16:23:11, status open
Sun Oct 18 16:18:36, status close
Sun Oct 18 16:18:19, status open
Sun Oct 18 16:06:39, status close
Sun Oct 18 16:06:37, status open
Sun Oct 18 16:05:15, status close
Sun Oct 18 16:05:11, status open
Sun Oct 18 15:57:38, status close
Sun Oct 18 15:57:35, status open
Sun Oct 18 15:53:56, status close
Sun Oct 18 15:53:54, status open
Sun Oct 18 14:01:30, status close
Sun Oct 18 14:01:27, status open
Sun Oct 18 13:41:08, status close
Sun Oct 18 13:41:04, status open
Sun Oct 18 13:00:53, status close
Sun Oct 18 13:00:50, status open
Sun Oct 18 12:59:32, status close
Sun Oct 18 12:59:29, status open
Sun Oct 18 12:54:57, status close
Sun Oct 18 12:54:52, status open
Sun Oct 18 12:47:36, status close
Sun Oct 18 12:47:33, status open
Sun Oct 18 09:59:59, status close
Sun Oct 18 09:59:30, status open
Sun Oct 18 09:51:01, status close
Sun Oct 18 09:50:58, status open
Sun Oct 18 09:48:01, status close
Sun Oct 18 09:47:59, status open
Sat Oct 17 16:04:26, status close
Sat Oct 17 16:04:22, status open
Sat Oct 17 15:21:27, status close
Sat Oct 17 15:21:25, status open
Sat Oct 17 14:08:12, status close
Sat Oct 17 14:08:10, status open
Sat Oct 17 13:27:02, status close
Sat Oct 17 13:27:00, status open
Sat Oct 17 12:43:48, status close
Sat Oct 17 12:43:45, status open
Sat Oct 17 12:36:32, status close
Sat Oct 17 12:36:30, status open
Sat Oct 17 10:28:12, status close
Sat Oct 17 10:28:07, status open
Sat Oct 17 09:27:13, status close
Sat Oct 17 09:27:11, status open
Fri Oct 16 17:13:47, status close
Fri Oct 16 17:13:41, status open
Fri Oct 16 17:09:51, status close
Fri Oct 16 17:09:46, status open
Fri Oct 16 15:51:01, status close
Fri Oct 16 15:50:57, status open
Fri Oct 16 15:40:31, status close
Fri Oct 16 15:40:28, status open
Fri Oct 16 15:38:06, status close
Fri Oct 16 15:38:03, status open
Fri Oct 16 14:32:22, status close
Fri Oct 16 14:32:19, status open
Fri Oct 16 13:50:29, status close
Fri Oct 16 13:50:25, status open
Fri Oct 16 13:46:05, status close
Fri Oct 16 13:44:54, no_close 1m
Fri Oct 16 13:43:54, status open
Fri Oct 16 13:25:14, status close
Fri Oct 16 13:25:11, status open
Fri Oct 16 13:02:51, status close
Fri Oct 16 13:02:45, status open
Fri Oct 16 12:36:50, status close
Fri Oct 16 12:36:46, status open
Fri Oct 16 08:52:30, status close
Fri Oct 16 08:52:13, no_close 1m
Fri Oct 16 08:51:13, status open
Fri Oct 16 08:49:03, status close
Fri Oct 16 08:49:01, status open
Fri Oct 16 08:29:06, status close
Fri Oct 16 08:29:01, status open
Thu Oct 15 19:09:04, status close
Thu Oct 15 19:08:59, status open
Thu Oct 15 19:08:23, status close
Thu Oct 15 19:08:19, status open
Thu Oct 15 19:07:40, status close
Thu Oct 15 19:07:37, status open
Thu Oct 15 19:06:23, status close
Thu Oct 15 19:06:21, status open
Thu Oct 15 18:03:23, status close
Thu Oct 15 18:03:07, no_close 5m
Thu Oct 15 17:59:05, no_close 1m
Thu Oct 15 17:58:05, status open
Thu Oct 15 17:56:37, status close
Thu Oct 15 17:55:54, status open
Thu Oct 15 14:58:05, status close
Thu Oct 15 14:58:02, status open
Thu Oct 15 14:54:08, status close
Thu Oct 15 14:54:07, status open
Thu Oct 15 14:51:38, status close
Thu Oct 15 14:50:59, status open
Thu Oct 15 14:50:47, status close
Thu Oct 15 14:50:43, status open
Thu Oct 15 13:36:32, status close
Thu Oct 15 13:34:24, no_close 1m
Thu Oct 15 13:33:24, status open
Thu Oct 15 12:45:21, status close
Thu Oct 15 12:44:24, no_close 1m
Thu Oct 15 12:43:24, status open
Thu Oct 15 12:41:47, status close
Thu Oct 15 12:41:40, status open
Thu Oct 15 12:34:02, status close
Thu Oct 15 12:34:00, status open
Thu Oct 15 10:50:36, status close
Thu Oct 15 10:50:32, status open
Thu Oct 15 08:22:31, status close
Thu Oct 15 08:22:27, status open
Thu Oct 15 08:09:57, status close
Thu Oct 15 08:09:45, no_close 1m
Thu Oct 15 08:08:45, status open
Wed Oct 14 18:40:56, status close
Wed Oct 14 18:38:03, no_close 5m
Wed Oct 14 18:34:01, no_close 1m
Wed Oct 14 18:33:01, status open
Wed Oct 14 18:33:00, status close
Wed Oct 14 18:32:52, status open
Wed Oct 14 18:32:06, status close
Wed Oct 14 18:28:57, no_close 1m
Wed Oct 14 18:27:57, status open
Wed Oct 14 18:19:37, status close
Wed Oct 14 18:19:35, status open
Wed Oct 14 14:27:58, status close
Wed Oct 14 14:27:42, status open
Wed Oct 14 14:26:54, status close
Wed Oct 14 14:26:51, status open
Wed Oct 14 13:36:37, status close
Wed Oct 14 13:36:32, no_close 1m
Wed Oct 14 13:35:31, status open
Wed Oct 14 12:59:57, status close
Wed Oct 14 12:59:54, status open
Wed Oct 14 12:27:29, status close
Wed Oct 14 12:27:26, status open
Wed Oct 14 09:10:28, status close
Wed Oct 14 09:10:24, status open
Wed Oct 14 08:33:46, status close
Wed Oct 14 08:33:37, status open
Tue Oct 13 18:15:35, status close
Tue Oct 13 18:15:33, status open
Tue Oct 13 18:12:55, status close
Tue Oct 13 18:12:54, status open
Tue Oct 13 17:50:24, status close
Tue Oct 13 17:48:25, no_close 5m
Tue Oct 13 17:44:23, no_close 1m
Tue Oct 13 17:43:23, status open
Tue Oct 13 17:43:15, status close
Tue Oct 13 17:43:06, status open
Tue Oct 13 16:54:54, status close
Tue Oct 13 16:54:46, status open
Tue Oct 13 15:50:23, status close
Tue Oct 13 15:50:19, status open
Tue Oct 13 15:30:06, status close
Tue Oct 13 15:30:02, status open
Tue Oct 13 15:27:31, status close
Tue Oct 13 15:27:24, status open
Tue Oct 13 12:37:25, status close
Tue Oct 13 12:37:22, status open
Tue Oct 13 12:21:51, status close
Tue Oct 13 12:21:47, status open
Tue Oct 13 12:08:39, status close
Tue Oct 13 12:08:32, status open
Tue Oct 13 11:59:05, status close
Tue Oct 13 11:59:01, status open
Tue Oct 13 11:45:36, status close
Tue Oct 13 11:45:34, status open
Tue Oct 13 10:54:28, status close
Tue Oct 13 10:53:44, status open
Tue Oct 13 10:43:41, status close
Tue Oct 13 10:43:30, status open
Tue Oct 13 10:40:45, status close
Tue Oct 13 10:40:23, no_close 1m
Tue Oct 13 10:39:23, status open
Tue Oct 13 08:05:53, status close
Tue Oct 13 08:05:35, status open
Tue Oct 13 08:04:52, status close
Tue Oct 13 08:04:25, status open
Tue Oct 13 08:02:33, status close
Tue Oct 13 08:02:30, status open
Tue Oct 13 07:59:47, status close
Tue Oct 13 07:59:43, status open
Mon Oct 12 17:11:23, status close
Mon Oct 12 17:11:21, status open
Mon Oct 12 15:24:34, status close
Mon Oct 12 15:24:31, status open
Mon Oct 12 15:23:32, status close
Mon Oct 12 15:23:29, status open
Mon Oct 12 13:35:08, status close
Mon Oct 12 13:35:06, status open
Mon Oct 12 13:25:43, status close
Mon Oct 12 13:25:40, status open
Mon Oct 12 13:23:44, status close
Mon Oct 12 13:23:41, status open
Mon Oct 12 13:13:55, status close
Mon Oct 12 13:13:52, status open
Mon Oct 12 13:12:43, status close
Mon Oct 12 13:12:40, status open
Mon Oct 12 12:36:06, status close
Mon Oct 12 12:36:02, status open
Mon Oct 12 11:57:40, status close
Mon Oct 12 11:57:37, status open
Mon Oct 12 11:37:06, status close
Mon Oct 12 11:37:02, status open
Mon Oct 12 08:29:34, status close
Mon Oct 12 08:29:16, status open
Sun Oct 11 12:56:58, status close
Sun Oct 11 12:56:55, status open
Sun Oct 11 12:25:31, status close
Sun Oct 11 12:25:28, status open
Sun Oct 11 08:36:36, status close
Sun Oct 11 08:28:56, no_close 5m
Sun Oct 11 08:24:54, no_close 1m
Sun Oct 11 08:23:54, status open
Sat Oct 10 16:38:06, status close
Sat Oct 10 16:38:03, status open
Sat Oct 10 16:37:51, status close
Sat Oct 10 16:37:47, status open
Sat Oct 10 15:58:00, status close
Sat Oct 10 15:57:58, status open
Sat Oct 10 15:57:39, status close
Sat Oct 10 15:57:36, status open
Sat Oct 10 14:16:37, status close
Sat Oct 10 14:16:34, status open
Sat Oct 10 14:13:33, status close
Sat Oct 10 14:13:29, status open
Sat Oct 10 12:02:27, status close
Sat Oct 10 12:01:36, status open
Sat Oct 10 12:00:55, status close
Sat Oct 10 12:00:52, status open
Sat Oct 10 11:44:28, status close
Sat Oct 10 11:44:22, status open
Fri Oct 9 17:59:02, status close
Fri Oct 9 17:58:25, status open
Fri Oct 9 17:14:23, status close
Fri Oct 9 17:14:20, status open
Fri Oct 9 13:16:15, status close
Fri Oct 9 13:16:12, status open
Fri Oct 9 12:35:24, status close
Fri Oct 9 12:35:20, status open
Fri Oct 9 12:32:41, status close
Fri Oct 9 12:32:38, status open
Fri Oct 9 12:00:46, status close
Fri Oct 9 12:00:42, status open
Fri Oct 9 11:59:49, status close
Fri Oct 9 11:59:45, status open
Fri Oct 9 08:34:17, status close
Fri Oct 9 08:34:14, status open
Fri Oct 9 07:57:43, status close
Fri Oct 9 07:57:40, status open
Fri Oct 9 07:55:33, status close
Fri Oct 9 07:55:30, status open
Fri Oct 9 07:52:17, status close
Fri Oct 9 07:52:14, status open
Thu Oct 8 19:07:07, status close
Thu Oct 8 19:07:05, status open
Thu Oct 8 19:06:12, status close
Thu Oct 8 19:06:09, status open
Thu Oct 8 19:04:20, status close
Thu Oct 8 19:04:16, status open
Thu Oct 8 19:02:11, status close
Thu Oct 8 19:02:07, status open
Thu Oct 8 18:55:51, status close
Thu Oct 8 18:55:36, status open
Thu Oct 8 18:55:18, status close
Thu Oct 8 18:55:06, status open
Thu Oct 8 18:55:04, status close
Thu Oct 8 18:55:01, status open
Thu Oct 8 17:21:54, status close
Thu Oct 8 17:21:51, status open
Thu Oct 8 17:13:41, status close
Thu Oct 8 17:13:37, status open
Thu Oct 8 17:13:23, status close
Thu Oct 8 17:12:28, no_close 1m
Thu Oct 8 17:11:29, status open
Thu Oct 8 13:23:34, status close
Thu Oct 8 13:23:31, status open
Thu Oct 8 12:38:45, status close
Thu Oct 8 12:38:42, status open
Thu Oct 8 12:18:30, status close
Thu Oct 8 12:18:05, status open
Thu Oct 8 12:15:51, status close
Thu Oct 8 12:15:42, status open
Thu Oct 8 08:30:55, status close
Thu Oct 8 08:30:47, status open
Thu Oct 8 08:20:19, status close
Thu Oct 8 08:20:15, status open
Thu Oct 8 08:11:07, status close
Thu Oct 8 08:10:11, no_close 1m
Thu Oct 8 08:09:12, status open
Thu Oct 8 08:01:53, status close
Thu Oct 8 08:01:35, status open
Wed Oct 7 16:52:21, status close
Wed Oct 7 16:52:18, status open
Wed Oct 7 16:32:31, status close
Wed Oct 7 16:31:55, no_close 1m
Wed Oct 7 16:30:55, status open
Wed Oct 7 14:09:07, status close
Wed Oct 7 14:09:04, status open
Wed Oct 7 13:09:45, status close
Wed Oct 7 13:09:26, status open
Wed Oct 7 12:38:55, status close
Wed Oct 7 12:38:06, no_close 1m
Wed Oct 7 12:37:06, status open
Wed Oct 7 12:36:57, status close
Wed Oct 7 12:36:49, status open
Wed Oct 7 11:28:31, status close
Wed Oct 7 11:28:09, status open
Wed Oct 7 09:29:51, status close
Wed Oct 7 09:29:49, status open
Wed Oct 7 08:55:21, status close
Wed Oct 7 08:55:16, status open
Wed Oct 7 08:42:08, status close
Wed Oct 7 08:42:02, status open
Tue Oct 6 15:41:35, status close
Tue Oct 6 15:41:32, status open
Tue Oct 6 15:39:12, status close
Tue Oct 6 15:36:08, no_close 5m
Tue Oct 6 15:32:05, no_close 1m
Tue Oct 6 15:31:06, status open
Tue Oct 6 15:31:04, status close
Tue Oct 6 15:30:27, no_close 1m
Tue Oct 6 15:29:27, status open
Tue Oct 6 14:09:13, status close
Tue Oct 6 14:01:07, no_close 5m
Tue Oct 6 13:57:04, no_close 1m
Tue Oct 6 13:56:05, status open
Tue Oct 6 13:42:25, status close
Tue Oct 6 13:41:55, status open
Tue Oct 6 13:36:29, status close
Tue Oct 6 13:36:23, status open
Tue Oct 6 13:36:06, status close
Tue Oct 6 13:36:02, status open
Tue Oct 6 13:35:17, status close
Tue Oct 6 13:35:14, status open
Tue Oct 6 13:34:00, status close
Tue Oct 6 13:33:57, status open
Tue Oct 6 12:49:34, status close
Tue Oct 6 12:49:31, status open
Tue Oct 6 12:37:30, status close
Tue Oct 6 12:37:25, status open
Tue Oct 6 12:36:47, status close
Tue Oct 6 12:33:04, no_close 1m
Tue Oct 6 12:32:04, status open
Tue Oct 6 11:14:19, status close
Tue Oct 6 11:14:16, status open
Tue Oct 6 11:12:21, status close
Tue Oct 6 11:12:16, status open
Tue Oct 6 11:01:35, status close
Tue Oct 6 11:01:09, no_close 1m
Tue Oct 6 11:00:08, status open
Tue Oct 6 10:58:29, status close
Tue Oct 6 10:58:25, status open
Tue Oct 6 10:22:43, status close
Tue Oct 6 10:22:40, status open
Tue Oct 6 09:54:29, status close
Tue Oct 6 09:54:06, status open
Tue Oct 6 09:51:56, status close
Tue Oct 6 09:51:53, status open
Tue Oct 6 09:51:12, status close
Tue Oct 6 09:51:10, status open
Tue Oct 6 09:48:02, status close
Tue Oct 6 09:47:57, status open
Tue Oct 6 08:05:21, status close
Tue Oct 6 08:05:17, no_close 1m
Tue Oct 6 08:04:18, status open
Mon Oct 5 17:15:02, status close

Contact: HomeGuardMi at Gmail.com     HG ver Nov-17